GFSGBSN_850_rhum_012.txt.gz
RH
96 100 100 95 96 100 100 98 95 100 99 69 78 80 94 91 87 78 49 59 61 64 75 67 59 50 75 100 94 59 59 61 67 90 100 90 96 80 81 80 77 85 80 70 65 62 60
92 91 96 94 99 100 100 99 98 98 96 95 68 80 82 89 85 83 62 64 63 69 81 82 81 78 70 94 54 75 62 66 67 90 100 99 93 88 86 83 78 72 74 75 67 66 66
94 92 91 92 100 100 100 100 98 98 98 99 86 80 82 82 92 83 80 57 74 83 76 74 79 76 89 64 52 48 76 74 68 78 75 68 81 81 86 89 79 78 86 78 73 66 68
92 92 91 90 87 86 99 92 100 93 96 97 100 82 86 86 90 78 80 65 79 86 92 79 71 81 70 57 56 57 57 71 70 69 68 66 78 86 91 82 74 78 79 90 66 67 64
89 88 88 87 88 94 88 95 98 95 93 99 98 98 88 92 96 86 78 71 73 88 86 95 95 88 83 70 68 53 64 67 67 67 69 72 68 70 80 90 84 84 91 85 72 57 64
90 85 88 83 84 93 89 92 93 98 99 92 99 100 95 92 99 92 79 68 80 84 90 97 95 96 78 67 63 62 58 64 69 71 70 66 65 76 84 90 95 82 87 81 78 64 69
87 82 79 84 81 81 77 93 96 100 99 98 95 97 97 91 99 100 81 96 98 98 99 86 83 79 67 73 67 64 61 61 66 65 83 69 92 92 83 82 77 84 93 88 70 59 66
90 85 92 94 88 82 83 87 98 96 97 99 98 89 93 99 100 100 81 82 75 74 92 84 83 84 78 78 76 70 70 68 74 87 76 80 95 76 68 70 77 80 87 83 68 62 67
94 94 90 93 93 85 81 77 99 88 90 89 95 79 76 96 100 100 82 74 77 80 82 75 79 93 80 78 79 74 73 74 81 91 84 87 68 66 73 80 84 87 92 86 86 64 60
93 93 92 89 86 89 90 80 84 83 89 99 90 70 69 94 100 98 94 89 87 74 92 73 95 87 88 83 79 70 68 70 79 90 88 87 71 74 78 82 79 91 75 78 82 88 92
93 90 96 89 88 88 86 91 86 96 93 99 74 70 79 100 100 100 79 78 84 71 96 76 94 91 89 74 71 85 74 70 89 87 82 81 86 85 85 75 72 70 67 76 79 92 95
96 94 88 95 90 89 89 96 98 99 95 97 84 79 76 97 100 90 77 81 82 83 93 89 86 93 92 78 77 84 79 72 77 72 74 71 71 74 76 66 65 63 74 77 80 85 94
94 92 84 80 92 90 90 91 91 91 98 100 95 92 87 92 99 97 84 93 94 90 67 91 86 84 80 83 79 79 88 93 91 100 99 90 88 74 75 80 73 72 88 97 99 97 84
96 93 79 74 80 94 92 89 92 98 100 98 92 94 98 89 99 99 78 82 93 65 78 76 71 78 82 80 78 81 90 92 83 92 100 96 93 90 77 76 82 81 77 90 91 96 87
90 86 81 76 82 94 93 88 93 94 98 100 100 98 96 73 100 93 78 86 77 67 77 91 79 82 84 84 82 87 89 87 67 90 98 98 95 79 78 72 64 98 97 69 75 61 90
98 93 80 88 80 92 89 90 95 91 98 100 99 99 88 82 100 99 73 82 68 63 79 75 85 78 89 85 89 93 90 72 78 76 77 89 97 76 78 76 72 83 77 98 97 96 93
92 92 82 90 84 87 91 90 98 100 93 98 98 100 92 83 100 100 98 80 68 74 68 78 81 82 66 79 80 85 78 68 74 74 76 80 96 82 86 90 78 92 96 99 95 96 94
92 88 86 85 80 88 91 90 91 93 97 97 100 99 94 81 99 98 90 74 66 78 81 77 73 66 71 76 84 84 81 71 66 78 89 80 97 98 84 71 63 62 72 73 88 86 86
96 92 93 84 79 90 88 96 89 90 99 98 100 98 99 97 100 99 79 73 72 81 88 82 86 76 72 80 92 88 82 63 67 78 84 75 99 97 92 90 82 89 76 66 68 77 88
88 78 92 86 85 86 85 96 95 97 99 100 99 100 99 100 96 83 80 75 80 72 72 72 77 76 82 87 69 77 83 63 69 71 69 66 94 96 88 90 98 100 99 84 84 91 74
83 80 94 87 80 86 90 93 99 99 97 100 99 99 98 99 96 76 69 70 74 89 73 70 85 81 91 99 95 91 77 67 68 65 72 86 99 99 93 82 96 98 99 99 98 79 77
78 81 86 82 90 91 91 96 99 98 100 100 99 97 89 84 84 75 74 85 89 83 82 85 91 78 83 95 79 79 74 73 77 71 79 93 98 100 97 96 100 100 96 83 93 74 65
76 85 87 88 84 92 90 88 99 100 100 99 97 96 81 82 85 77 78 80 76 70 75 75 82 88 92 81 76 74 67 73 72 80 93 98 100 100 89 97 100 99 91 88 76 81 64
79 80 88 93 92 93 89 95 98 100 99 100 100 100 90 94 78 71 72 69 86 80 79 81 79 88 75 75 70 76 76 81 85 80 73 98 100 100 98 98 98 93 79 71 71 67 70
92 92 92 87 90 91 88 99 98 100 100 100 100 100 94 90 73 74 78 81 74 77 87 82 75 75 73 76 92 94 96 84 86 88 88 82 99 100 100 98 84 89 85 78 78 77 63
86 94 94 88 93 93 88 98 98 100 98 99 98 100 100 88 84 64 73 86 94 94 90 88 88 86 82 89 95 100 95 80 90 88 77 86 73 98 91 98 88 60 91 82 72 96 69
92 98 91 90 91 89 90 94 84 92 94 99 99 100 97 86 75 67 82 86 80 85 86 89 88 89 94 98 100 100 97 76 94 96 93 92 91 94 88 88 84 61 58 75 89 66 62
82 78 93 84 88 87 89 92 86 88 93 99 99 99 100 86 82 78 74 79 82 80 89 91 92 98 99 99 99 98 94 91 87 78 89 86 92 85 77 90 76 55 60 65 55 54 58
84 78 92 85 73 81 90 91 90 87 96 98 98 100 98 89 83 79 77 74 75 73 72 87 89 93 91 98 92 93 93 97 89 89 81 91 75 83 84 76 58 56 55 53 53 57 58

GFSGBSN_850_rhum_015.txt.gz
RH
94 93 93 92 92 92 97 100 99 98 98 98 98 80 84 82 92 88 85 76 43 55 70 66 55 47 78 99 95 68 65 63 75 98 94 90 89 73 76 80 78 84 78 72 68 68 67
93 94 93 94 93 92 91 96 100 98 98 97 98 99 80 90 86 90 85 79 45 59 71 89 69 68 61 97 75 79 66 56 68 89 95 93 83 84 83 80 74 70 77 75 68 68 64
91 92 91 91 89 88 96 96 98 100 100 99 99 99 98 89 88 99 88 80 56 67 74 78 80 72 80 55 50 51 73 65 58 94 93 99 92 78 81 88 83 80 87 73 73 69 65
91 91 88 87 90 85 83 87 81 97 97 99 95 100 98 92 92 95 93 80 65 79 89 82 73 78 67 56 56 56 65 78 83 92 67 64 70 87 88 85 73 81 83 84 61 65 65
87 90 85 89 90 91 89 87 83 89 93 94 92 96 98 99 96 96 100 86 62 87 84 98 95 87 78 72 66 59 57 73 76 74 72 70 73 73 83 90 86 86 84 86 68 59 61
91 89 91 90 92 94 93 88 87 82 95 80 89 86 94 99 100 99 100 89 68 79 85 100 99 95 83 70 70 68 63 65 64 71 73 72 68 76 78 87 88 83 90 82 77 62 65
93 82 91 94 99 86 90 89 87 81 88 96 88 84 78 80 100 100 100 90 98 96 96 88 89 84 75 74 70 70 62 69 68 71 86 70 84 88 80 82 72 82 89 87 76 59 68
91 90 91 96 95 91 89 88 89 92 85 76 85 88 88 70 96 100 100 77 71 57 93 79 96 87 82 75 77 75 68 68 70 85 78 81 91 66 70 75 78 77 83 78 64 55 60
94 99 94 91 93 90 90 90 90 88 78 83 88 99 99 83 81 100 99 82 67 62 72 73 84 96 80 77 76 76 72 74 80 91 86 87 71 66 72 80 78 78 80 69 71 66 62
99 95 95 96 95 93 90 90 92 89 87 98 96 88 99 82 94 93 99 83 68 65 86 72 95 89 90 79 76 69 71 68 80 88 84 75 61 74 83 84 81 91 70 72 77 82 78
99 95 96 97 94 93 95 88 89 94 98 86 88 99 88 90 93 100 94 86 72 56 76 75 92 94 92 77 69 84 76 73 89 89 83 78 84 90 86 74 74 76 66 72 78 90 91
92 97 96 95 94 93 96 88 93 94 91 87 98 100 90 95 99 95 100 91 71 81 94 91 84 94 92 78 79 87 82 73 73 78 80 74 71 72 75 69 67 65 81 76 79 85 94
100 98 95 94 95 94 93 88 91 92 92 96 100 97 90 99 94 90 100 98 93 88 69 93 88 91 75 84 82 77 85 92 93 98 98 81 80 74 71 78 73 72 98 93 95 97 82
100 95 96 91 95 92 83 91 90 89 93 92 98 99 88 87 83 98 100 99 93 68 78 69 71 84 86 70 74 80 87 90 80 89 97 97 88 83 74 73 81 88 80 87 86 82 73
100 98 95 91 94 76 88 89 89 93 92 99 99 98 99 96 89 99 98 98 77 69 82 78 75 84 87 76 78 80 87 84 76 77 97 95 88 78 82 75 65 94 97 66 88 75 92
97 92 95 94 92 93 88 88 92 92 98 98 99 98 98 95 93 100 99 91 67 71 73 72 86 76 85 85 92 88 89 74 74 74 67 84 98 75 80 75 75 86 75 96 97 94 86
96 90 92 93 86 86 87 91 96 94 94 99 98 97 98 88 84 99 100 93 75 75 66 73 79 86 78 86 85 88 84 71 76 85 73 85 96 82 90 91 74 89 97 99 95 95 89
96 94 79 89 76 71 79 91 95 97 94 100 100 100 98 97 100 100 100 74 67 87 78 79 68 70 74 77 80 81 80 68 68 81 94 76 94 97 82 66 63 64 72 70 94 85 91
98 94 88 80 77 77 90 90 86 94 98 100 100 100 100 97 100 100 89 80 75 80 83 79 82 72 70 77 89 83 80 64 70 78 87 81 98 98 86 85 73 96 82 70 74 71 88
85 94 92 75 78 79 91 94 96 93 99 100 99 100 99 99 95 92 82 82 85 73 82 75 78 74 80 84 71 83 87 66 70 72 68 69 88 90 72 67 86 99 85 85 98 96 74
81 90 90 87 92 82 91 94 96 99 98 99 99 100 98 99 99 79 67 70 84 90 73 70 86 79 78 93 86 87 78 71 78 72 71 84 99 93 85 73 81 99 100 96 98 84 90
96 94 90 94 93 90 92 88 88 88 100 99 100 93 92 88 90 71 75 81 72 86 77 85 80 66 78 91 79 86 78 77 75 77 78 85 98 100 97 90 96 98 94 95 95 92 81
87 88 93 92 84 92 85 80 91 90 100 100 98 100 98 84 89 80 85 81 83 75 71 72 75 76 88 75 74 76 76 71 71 74 81 98 100 100 90 86 100 99 94 95 90 81 78
96 92 93 93 90 91 93 86 98 89 100 100 100 100 98 92 81 76 71 71 77 77 81 80 78 86 74 74 76 74 83 84 77 79 73 98 100 100 98 99 98 96 75 77 86 70 61
96 93 92 93 89 89 91 85 87 97 99 99 100 100 98 89 77 71 77 66 68 72 84 80 77 78 76 78 88 87 94 91 81 90 92 81 99 100 100 96 85 85 76 83 83 80 61
95 93 89 95 89 87 92 81 80 84 92 98 100 98 100 89 82 62 82 79 90 92 89 84 78 75 84 91 90 100 94 85 88 86 89 85 88 100 96 97 96 63 78 64 68 81 64
94 94 80 93 86 76 87 89 88 65 86 99 100 100 100 94 78 66 80 88 78 85 90 88 93 97 92 97 94 100 98 76 89 92 96 95 93 98 94 95 80 61 60 76 82 66 66
64 91 89 78 84 81 82 86 86 34 74 96 100 100 100 100 86 72 66 74 82 78 88 84 92 96 99 99 99 94 99 91 88 80 83 89 94 97 82 88 85 57 74 73 54 56 63
28 82 88 80 76 78 91 96 78 58 92 86 97 100 100 100 88 80 75 71 73 71 72 84 86 89 90 96 96 91 88 96 89 88 84 92 77 78 81 78 58 56 55 52 58 63 62

GFSGBSN_850_rhum_018.txt.gz
RH
94 95 92 93 93 91 92 99 100 99 100 100 98 97 97 96 84 88 99 86 77 47 52 59 54 54 97 96 86 74 68 72 81 98 97 86 73 62 57 52 58 55 43 51 49 57 52
93 92 91 91 92 93 90 85 86 84 90 99 99 98 99 99 88 86 98 93 79 56 54 84 70 62 75 78 79 85 68 63 83 96 97 89 85 74 62 57 56 52 58 54 56 51 50
92 90 92 89 91 98 89 91 90 89 84 90 95 97 95 99 100 87 93 99 80 64 56 74 85 72 78 57 50 56 65 76 73 96 95 96 86 73 72 62 68 59 59 44 42 44 43
90 94 92 91 91 93 92 92 92 90 84 84 88 87 83 99 99 97 96 100 79 67 71 75 74 74 70 58 56 53 56 81 79 94 91 84 91 79 63 71 56 56 57 57 40 49 49
93 97 88 87 90 90 91 91 92 90 88 87 91 93 74 94 94 100 99 100 84 65 88 93 91 84 75 71 61 56 56 78 98 76 75 86 78 66 71 58 59 56 53 56 49 40 43
93 93 98 96 91 89 88 90 91 87 89 91 89 95 84 68 77 98 100 100 97 81 89 98 98 90 86 76 72 68 57 75 76 77 76 74 62 55 53 62 62 52 67 52 52 44 49
91 96 97 95 88 90 86 94 91 92 89 91 92 80 82 87 87 73 99 100 100 99 100 74 79 74 82 78 74 71 69 70 69 69 66 66 73 74 54 51 49 54 57 56 47 44 49
96 97 100 94 92 99 94 87 90 90 90 79 80 83 83 84 93 79 94 100 77 62 82 89 88 85 83 81 76 83 72 61 60 63 60 71 81 54 49 52 58 59 61 56 46 42 50
98 100 97 93 95 95 91 86 95 96 92 80 84 80 92 90 82 80 90 99 80 50 60 87 94 90 84 78 69 77 74 67 58 69 67 64 57 52 58 63 66 62 62 55 54 46 46
95 98 98 93 95 91 78 93 82 95 89 93 92 85 89 98 86 69 76 92 90 58 82 72 87 84 86 78 67 77 71 64 67 66 65 64 51 60 63 66 59 66 47 54 57 62 69
97 98 98 95 85 78 81 92 80 89 89 92 95 93 96 98 87 87 86 93 100 79 84 68 88 93 86 64 68 83 80 70 66 67 67 66 66 68 72 65 56 63 52 54 55 62 66
90 96 86 87 78 88 89 83 94 92 87 88 88 97 97 97 98 75 98 91 100 97 78 84 92 92 88 72 71 83 79 71 64 61 65 56 62 58 55 55 55 55 63 64 63 71 90
92 92 88 82 82 95 88 80 88 90 93 89 96 100 98 99 85 71 95 100 98 95 63 92 83 86 71 74 75 68 78 82 78 96 91 66 63 57 56 62 61 64 75 73 85 93 64
96 86 82 81 94 92 93 92 88 93 93 95 96 99 89 88 99 92 97 100 95 60 64 65 69 68 72 62 72 72 78 89 65 68 76 74 76 64 63 62 57 68 63 67 66 50 42
86 78 82 93 92 92 94 92 89 97 94 92 97 95 96 90 99 100 99 98 77 54 61 68 76 80 85 64 65 73 76 72 63 65 84 88 75 60 60 55 56 76 91 55 75 60 73
85 87 87 93 91 89 91 90 92 98 98 98 98 98 96 100 98 98 100 99 61 62 57 56 72 60 74 73 72 71 74 56 57 51 51 67 86 58 64 67 64 67 55 90 92 78 68
81 93 94 91 80 71 90 90 95 99 99 97 97 99 100 99 98 98 100 94 76 60 57 60 66 69 61 68 66 68 64 60 56 62 54 64 68 71 74 82 63 82 93 98 76 74 67
84 78 86 92 79 75 86 92 95 97 92 96 100 100 99 99 98 99 100 71 66 68 74 64 53 56 61 64 71 66 65 56 56 65 76 62 71 87 70 45 46 43 54 64 94 82 83
90 87 88 83 91 84 92 90 100 90 99 100 100 100 100 99 96 100 87 72 72 75 70 66 68 58 55 63 72 60 62 56 62 62 62 63 88 88 72 66 56 66 55 53 73 82 91
98 81 84 90 91 90 89 89 97 86 100 98 99 100 99 99 95 79 73 74 80 74 70 66 70 62 62 63 61 71 68 60 60 56 62 58 64 83 66 61 60 99 73 71 97 95 70
98 87 77 89 88 92 93 86 92 86 98 99 100 99 96 99 83 64 58 65 72 76 69 66 72 68 65 72 72 73 66 62 65 65 62 64 100 88 75 66 70 85 81 86 99 83 86
100 91 90 84 91 92 94 81 89 82 96 98 99 99 94 87 70 57 59 64 66 75 66 75 63 66 68 72 64 81 71 68 62 63 65 72 91 98 97 87 82 98 90 93 95 94 86
100 98 90 90 88 88 81 77 91 80 94 97 98 100 100 82 68 62 62 62 59 64 68 66 66 66 72 64 68 68 67 67 60 64 70 84 100 100 94 68 84 96 93 90 93 94 84
95 93 90 90 87 83 71 67 88 80 91 99 100 99 99 85 69 60 60 60 67 54 76 73 73 70 72 72 75 76 80 72 70 75 62 92 100 100 98 98 93 88 75 79 82 76 77
95 88 92 93 88 80 77 76 83 77 95 98 100 99 100 82 64 64 63 60 67 73 67 71 76 73 74 80 76 72 81 86 76 70 75 74 94 100 99 93 64 78 78 91 80 68 53
90 89 87 91 89 82 73 70 82 46 66 95 100 100 100 84 70 59 63 60 63 63 69 74 80 77 77 78 85 85 77 71 71 78 74 76 86 97 99 95 90 60 52 62 59 64 52
90 91 92 94 94 80 69 77 84 40 91 85 100 100 100 98 84 65 62 70 75 73 87 89 91 97 88 90 88 84 77 68 72 73 85 87 95 93 86 86 64 48 56 72 64 66 57
57 91 91 81 69 87 80 72 48 36 85 78 90 100 100 100 94 71 65 77 81 77 75 81 87 90 95 94 90 90 93 77 74 62 68 68 73 76 75 76 79 51 59 58 53 57 60
25 92 74 23 81 86 87 38 56 71 56 77 94 94 100 99 98 82 72 67 67 65 71 86 79 83 85 90 92 93 89 82 72 67 66 73 55 55 56 55 46 54 52 54 63 63 63

GFSGBSN_850_rhum_021.txt.gz
RH
94 94 94 93 92 93 93 92 94 92 91 88 88 99 98 97 98 98 86 93 97 82 59 49 54 48 87 96 86 75 76 79 86 92 82 67 56 47 45 37 37 42 33 27 34 37 38
93 93 93 95 92 93 89 89 89 91 92 89 88 89 99 92 98 99 96 92 100 85 65 55 63 54 91 86 80 78 72 80 83 96 90 75 62 51 47 43 45 39 40 39 39 39 39
92 92 98 90 88 93 92 93 94 92 91 90 90 88 88 81 96 100 100 97 98 89 68 62 78 72 83 64 64 69 84 78 90 88 90 88 81 71 60 52 53 52 54 42 40 40 40
99 97 96 93 91 86 85 84 94 92 91 93 91 89 86 96 80 92 99 95 99 95 68 64 73 91 70 64 66 54 67 80 87 93 92 93 85 78 57 57 50 50 44 51 31 33 32
98 96 97 94 96 91 80 86 94 84 90 92 93 93 90 94 84 90 93 100 90 98 77 75 84 88 64 67 61 61 63 72 83 78 83 92 86 72 66 59 50 45 46 41 35 31 35
98 98 97 98 97 88 85 94 84 76 80 87 92 91 80 76 80 78 90 98 89 98 92 99 100 88 73 68 76 70 63 71 73 69 74 68 59 53 53 51 56 43 50 42 38 31 39
100 95 97 94 100 92 92 87 85 74 85 80 91 77 82 74 81 89 89 96 99 100 100 76 81 64 71 77 78 73 64 70 66 62 58 56 65 65 44 40 38 41 44 41 34 30 37
97 92 92 97 98 86 78 81 80 84 78 81 84 78 85 73 86 88 90 99 99 99 92 74 75 73 76 72 70 69 64 61 61 66 54 70 79 48 39 40 45 47 50 46 35 31 37
99 96 97 97 87 90 76 78 77 75 77 82 81 83 82 88 86 65 84 74 97 99 83 79 76 69 80 76 59 70 64 54 56 59 59 68 51 43 47 51 57 52 54 48 44 36 36
97 95 91 93 92 83 80 81 83 77 77 88 90 88 84 96 81 97 93 62 98 100 99 87 79 70 80 71 63 66 63 57 55 60 57 60 44 48 51 56 50 58 38 41 46 52 55
98 94 87 86 90 82 87 93 90 83 95 88 84 90 96 98 100 85 91 89 91 98 96 69 73 73 71 58 63 70 64 64 58 53 56 60 56 58 60 52 46 54 47 49 50 57 63
96 88 79 82 86 94 92 82 93 90 87 86 84 94 97 98 99 70 89 97 100 99 96 84 87 83 74 56 62 70 68 65 53 50 52 47 50 48 47 46 47 49 52 55 56 61 84
98 85 83 89 93 93 76 91 91 89 88 89 88 89 95 98 96 96 86 100 97 96 59 93 78 74 71 68 67 70 75 77 70 91 82 58 56 49 46 55 51 55 66 70 78 90 62
98 78 83 92 88 85 76 93 89 92 87 95 89 87 97 100 90 93 99 96 96 76 63 56 74 66 75 64 63 61 68 77 56 52 62 73 78 55 52 54 57 67 62 59 55 39 33
95 79 77 80 74 83 85 89 88 94 93 91 93 89 99 98 89 90 94 94 90 52 58 68 70 79 79 64 66 59 64 67 52 52 73 70 67 47 49 47 47 63 85 52 68 50 60
98 82 81 75 76 84 83 90 92 90 96 92 96 93 99 95 89 97 97 99 67 48 49 53 66 62 75 64 67 59 63 49 52 44 41 54 76 49 49 53 51 56 52 87 90 80 56
98 86 81 86 75 91 85 91 90 100 96 98 99 99 100 94 91 95 98 99 62 49 48 48 54 57 56 62 55 58 62 51 44 47 45 51 56 66 63 73 56 70 78 82 56 60 69
99 91 78 81 76 91 79 88 94 99 98 98 99 100 100 96 99 94 100 93 52 53 64 50 44 44 51 53 59 58 52 48 47 46 56 50 62 79 64 40 38 40 54 54 86 68 73
98 98 82 75 87 82 89 73 96 87 100 100 99 100 99 100 99 86 92 78 57 66 60 54 55 46 43 51 58 49 48 48 48 51 53 54 71 81 79 54 42 51 47 45 62 81 94
91 97 84 82 84 86 93 64 96 78 99 98 98 100 98 98 88 61 95 72 74 66 58 53 54 45 48 51 49 54 57 55 51 50 58 50 58 81 66 57 55 99 69 60 81 97 73
93 97 94 91 82 88 89 69 88 80 97 98 98 98 93 95 79 62 76 66 69 62 57 54 55 51 49 57 55 58 54 56 55 53 54 54 97 81 66 60 62 75 70 71 98 94 97
87 90 93 91 92 92 78 74 84 80 88 96 98 99 96 63 56 48 55 72 69 61 53 59 55 53 53 53 52 59 54 54 55 55 59 64 96 92 91 69 69 86 71 82 96 95 95
94 91 89 91 82 91 81 77 84 75 94 99 98 99 99 65 54 48 49 54 57 52 63 56 52 54 59 55 56 60 58 58 56 61 67 78 98 95 89 63 70 80 86 94 92 82 90
93 90 89 87 62 89 91 91 85 51 97 100 100 99 99 77 52 46 50 49 50 50 63 61 63 57 80 74 72 66 65 70 64 70 60 82 98 100 99 94 89 76 55 77 87 67 53
92 86 90 91 93 78 79 87 84 42 93 100 99 99 99 70 53 52 49 49 54 54 58 63 70 71 72 70 65 59 68 82 70 66 74 68 97 100 100 81 55 59 56 67 84 73 51
94 84 43 87 44 59 84 90 59 30 83 96 99 100 100 99 53 49 50 51 59 57 62 61 83 73 77 66 68 74 63 62 66 80 68 76 82 98 100 95 85 54 42 53 55 82 50
98 80 24 26 23 20 66 52 74 57 40 82 98 99 99 100 72 56 51 55 53 52 68 77 82 87 84 78 86 71 63 57 62 60 79 77 88 96 90 93 56 38 45 60 70 61 53
98 93 28 23 28 18 27 92 92 95 40 54 90 99 98 99 86 77 56 62 69 64 65 78 81 83 92 83 82 82 98 62 64 47 55 59 69 74 71 81 78 42 41 55 51 52 53
96 94 80 26 30 37 36 83 92 93 93 57 88 74 94 100 97 86 82 71 72 68 68 76 76 70 75 85 92 89 89 68 62 69 50 62 46 53 50 48 37 43 48 50 56 57 54

GFSGBSN_850_rhum_024.txt.gz
RH
95 93 93 99 91 92 91 92 90 93 90 90 91 90 89 88 98 99 100 99 95 96 93 77 43 50 83 97 91 82 72 87 86 82 91 63 55 50 50 36 34 39 35 31 29 31 32
98 99 98 97 98 94 91 92 87 86 93 91 92 94 94 86 89 94 96 99 97 94 98 79 46 61 79 85 77 78 69 79 86 82 81 67 54 48 46 40 39 36 37 37 34 32 36
93 99 99 93 91 94 99 83 78 78 84 84 92 93 95 95 86 93 86 99 100 100 98 80 50 71 79 76 64 77 75 72 80 83 84 73 71 62 57 52 46 47 57 48 44 41 41
96 98 95 98 96 98 96 92 87 87 93 85 64 85 91 91 90 91 76 93 99 100 100 84 65 86 79 63 67 62 66 73 72 86 80 83 80 70 66 56 49 56 56 69 36 37 37
96 98 94 94 92 99 94 86 83 85 92 86 77 71 79 92 75 73 81 72 82 100 100 78 79 91 70 66 63 60 60 68 77 80 84 92 81 72 67 63 61 55 63 55 43 35 34
99 96 96 98 96 97 96 87 85 82 77 77 76 75 79 76 82 76 87 75 80 100 98 94 96 88 75 71 64 61 59 66 75 73 84 92 81 70 70 70 76 57 59 50 47 37 37
91 98 94 95 91 90 90 91 80 76 82 81 75 74 75 79 77 72 76 95 74 100 100 90 88 63 62 70 72 66 60 70 65 68 69 66 72 76 62 58 53 45 47 51 40 30 37
100 98 97 93 89 89 92 91 90 93 93 78 75 78 77 83 75 82 73 98 87 100 98 86 78 67 72 69 68 66 62 69 66 77 56 65 81 52 43 40 45 47 53 55 43 34 36
99 97 92 82 82 90 90 90 91 79 75 74 79 81 86 92 87 78 82 87 87 96 99 93 73 72 72 68 64 65 62 60 63 70 70 65 52 46 49 51 56 56 58 56 53 42 40
98 99 85 79 95 90 92 81 81 88 84 86 92 89 98 99 85 96 85 84 90 100 100 96 79 70 76 66 61 64 60 56 59 72 61 64 47 46 54 57 52 64 43 47 50 58 68
97 99 83 77 91 89 94 75 94 88 88 89 82 88 91 100 100 99 86 92 85 100 99 91 80 67 73 60 64 67 61 58 61 57 61 68 57 59 58 52 46 54 49 51 54 63 70
96 95 79 79 78 77 77 77 81 90 88 82 85 84 87 98 98 84 95 99 99 99 97 99 84 75 75 60 62 64 63 60 53 52 53 53 48 47 52 46 47 50 52 55 59 64 94
99 94 78 78 75 82 92 88 89 90 88 88 88 78 99 98 97 88 91 99 99 97 86 98 89 70 64 65 70 68 74 79 78 92 93 61 60 48 46 55 52 57 61 93 96 98 89
99 95 78 79 76 85 90 91 94 89 92 91 92 86 94 97 99 90 95 92 96 86 85 57 73 70 68 60 69 69 79 81 62 58 76 87 85 62 51 59 65 65 64 89 78 80 67
100 98 83 77 74 89 90 96 89 89 89 91 90 84 96 88 92 84 89 97 98 70 57 74 72 88 77 61 67 73 78 73 55 54 70 80 69 48 50 49 50 66 82 57 81 65 85
99 99 89 76 80 83 86 95 88 97 97 98 98 98 98 99 88 88 98 94 100 52 57 55 72 58 76 73 69 66 69 50 52 47 45 55 73 50 53 48 48 55 51 91 91 95 78
94 98 91 73 71 73 86 95 92 98 98 98 97 98 91 91 91 94 99 100 83 51 48 53 58 59 56 65 62 62 60 48 45 47 46 49 58 69 67 71 70 71 74 73 69 82 92
97 96 96 89 74 79 95 87 97 97 99 99 98 96 98 93 94 95 99 98 57 60 53 44 41 45 50 51 60 52 53 50 41 44 55 49 62 90 77 51 51 52 64 62 83 78 76
94 99 93 78 77 90 88 87 88 99 99 99 98 99 98 98 92 93 97 85 58 65 55 50 49 43 43 53 65 52 50 47 46 49 52 53 82 85 88 60 49 56 51 53 59 67 83
93 93 93 88 81 85 81 71 67 93 98 97 96 98 93 94 88 83 99 81 89 63 56 47 47 43 46 53 46 54 59 52 48 50 48 48 62 85 91 73 72 98 80 62 68 97 81
91 91 87 89 94 86 71 66 59 89 99 97 98 97 91 89 78 77 85 68 66 60 54 50 51 47 48 57 55 53 51 61 54 59 52 56 91 83 75 65 65 74 72 72 92 95 98
91 89 91 89 88 88 66 70 56 88 88 98 98 98 99 62 60 70 70 84 63 60 59 55 56 50 50 52 58 54 50 54 61 57 61 60 96 96 89 77 76 85 72 72 76 95 96
92 91 87 92 98 89 75 78 41 74 99 100 98 99 99 62 53 56 55 62 60 55 61 56 51 52 58 72 63 61 55 57 57 61 65 86 98 100 94 73 81 90 76 77 87 78 86
97 94 66 89 87 57 86 77 36 30 97 100 98 99 98 71 57 49 47 48 56 53 65 61 60 62 78 71 65 68 63 67 66 62 60 89 99 100 98 97 92 71 68 68 78 74 71
95 97 88 53 82 52 25 42 32 26 52 97 100 100 99 92 54 45 46 47 50 63 61 64 68 74 71 69 73 67 74 76 70 66 71 69 98 100 100 94 66 53 60 61 77 76 55
96 99 95 78 61 64 34 44 90 43 26 80 99 100 100 99 67 56 48 51 64 62 67 66 73 69 76 71 71 70 65 77 79 84 73 80 85 98 99 97 90 63 51 51 58 92 58
98 99 98 80 90 56 83 50 86 87 30 28 97 100 100 99 82 76 53 57 51 52 81 73 76 85 80 77 88 70 71 58 71 73 84 94 97 96 91 96 77 43 48 60 83 69 59
98 91 99 90 99 95 91 92 90 86 84 44 67 99 98 100 77 76 78 58 58 61 74 80 83 85 91 93 84 80 88 75 73 55 66 74 81 88 81 92 90 44 49 61 61 53 54
100 95 100 100 98 99 98 96 96 87 91 88 93 96 87 100 95 90 76 79 69 70 71 75 78 68 76 91 94 88 87 86 73 91 51 70 55 62 66 71 45 42 46 46 53 58 59

GFSGBSN_850_rhum_027.txt.gz
RH
99 99 96 92 99 94 95 92 93 84 80 85 85 92 91 89 94 93 94 99 97 100 98 100 83 54 62 93 84 84 75 90 88 75 61 69 74 62 59 50 46 50 45 39 37 33 34
98 97 93 97 94 98 95 93 87 90 79 92 96 89 93 95 87 97 89 87 88 97 100 100 85 73 74 95 65 81 68 83 88 84 66 78 69 56 50 51 47 37 43 45 41 42 43
98 97 97 98 93 97 91 88 85 81 78 81 94 82 74 96 94 92 93 88 79 98 100 100 90 76 81 66 77 81 68 73 78 82 71 70 76 62 57 54 50 50 59 57 52 48 49
95 99 97 97 92 91 94 88 88 81 80 78 79 78 72 90 94 94 73 87 75 82 100 100 85 88 87 49 65 78 74 73 80 84 75 78 76 67 62 53 50 58 58 80 55 45 46
91 98 98 98 94 92 87 86 84 77 76 76 76 75 72 72 72 68 76 70 74 66 90 100 97 89 78 61 60 65 60 73 74 75 76 86 83 72 60 67 67 62 79 72 60 40 43
97 98 100 95 85 85 90 87 88 85 95 95 76 73 74 72 73 76 77 72 67 64 73 100 98 90 81 74 65 63 53 69 79 78 97 94 90 85 77 71 92 76 75 60 58 42 43
96 99 99 86 89 95 93 93 93 95 87 79 74 72 74 80 82 82 85 68 73 74 91 90 92 70 60 71 64 59 56 66 72 76 88 92 91 93 86 78 62 62 60 59 50 40 40
94 100 99 91 86 92 92 95 94 93 87 88 75 82 87 84 82 82 86 92 76 99 99 86 93 77 66 68 68 62 65 73 70 89 65 76 87 67 58 60 63 59 61 63 52 42 44
96 98 94 94 78 93 94 84 95 93 90 92 91 84 87 86 98 87 94 92 92 86 99 92 96 87 72 68 70 65 66 70 71 82 71 80 58 54 58 57 57 60 64 62 61 53 47
98 98 88 84 79 87 94 93 94 94 89 92 86 82 86 100 99 90 88 86 99 98 100 98 96 80 69 68 70 61 66 62 64 74 66 68 49 50 60 64 57 69 52 54 57 65 76
100 94 90 87 76 90 95 92 90 92 91 91 84 81 84 90 100 99 96 94 99 86 97 97 87 76 62 72 66 64 63 56 66 70 74 87 64 60 58 60 51 62 53 56 60 68 72
91 99 93 81 77 81 91 90 96 93 90 80 81 90 92 98 92 87 100 100 80 98 97 100 87 79 81 66 67 65 65 58 53 61 64 62 48 52 56 47 51 50 56 57 61 74 98
99 99 97 80 78 84 91 92 92 88 93 90 93 92 94 98 94 87 91 96 96 97 98 100 95 78 75 78 73 69 73 77 81 95 98 72 67 50 48 63 54 59 69 96 89 90 91
95 100 98 79 77 77 81 85 91 89 97 92 100 90 89 93 84 88 99 95 96 99 100 81 75 71 79 69 80 71 81 82 70 66 86 89 85 66 55 63 73 75 65 91 93 96 83
98 98 95 80 74 87 85 95 89 98 97 99 94 86 99 93 80 92 95 95 99 98 86 94 72 77 81 68 81 74 78 75 68 62 75 90 78 55 57 52 59 70 85 62 80 75 94
92 97 91 90 87 93 92 94 94 98 99 92 77 95 99 98 86 94 99 98 100 84 68 62 92 69 85 74 81 76 79 63 58 54 52 61 78 57 57 52 53 59 59 87 95 99 93
93 89 94 93 85 92 93 95 98 98 94 81 82 87 100 99 98 93 100 99 97 59 53 60 66 67 63 83 73 72 72 56 54 56 52 51 60 78 63 71 75 72 74 72 74 92 98
95 98 87 86 93 79 87 96 91 98 84 76 83 95 90 89 93 96 100 100 97 70 57 50 48 57 56 65 70 61 71 55 45 48 63 50 71 91 82 62 58 62 70 72 88 78 90
95 89 86 91 90 72 81 96 52 94 90 79 97 98 83 89 98 100 97 97 87 70 60 52 52 47 49 58 60 52 59 51 44 49 51 58 80 85 79 70 60 70 66 61 62 74 84
94 87 88 90 90 63 70 96 44 94 83 83 91 97 84 88 94 97 98 93 82 58 60 51 49 44 48 54 53 58 66 54 51 56 46 48 74 80 86 78 81 88 76 66 74 97 81
96 90 88 90 91 88 74 74 42 88 81 83 90 97 97 95 86 83 94 85 68 68 55 50 55 51 54 62 50 51 64 63 56 58 54 63 82 87 79 75 76 79 76 76 84 82 98
88 88 91 92 79 82 62 41 36 89 86 84 95 98 97 99 64 79 75 80 75 70 69 61 64 61 67 74 67 59 62 68 70 63 62 66 97 94 92 80 82 90 78 76 76 74 77
95 97 86 93 58 49 34 29 31 69 89 93 99 100 100 83 70 72 74 70 62 64 61 62 62 67 80 78 71 66 57 59 56 72 74 79 95 100 95 79 89 96 80 71 78 79 84
96 99 85 91 84 34 51 39 39 36 88 100 99 98 100 91 72 59 53 53 57 66 69 65 63 74 76 69 64 67 65 66 61 64 67 94 99 100 96 92 86 67 67 67 77 72 68
87 99 99 92 96 75 40 85 59 32 32 95 100 97 99 90 90 54 49 56 67 65 69 73 75 76 70 69 79 84 84 80 79 74 73 76 98 100 100 96 70 58 69 72 80 76 59
84 100 100 99 99 90 90 70 91 64 28 43 100 100 97 98 87 88 69 58 72 73 72 79 69 63 70 82 79 74 72 73 91 87 75 80 90 100 99 98 92 59 51 52 66 88 59
73 98 96 96 98 98 96 90 91 91 76 45 95 99 99 99 84 81 80 70 52 64 86 80 78 80 79 87 92 79 76 63 85 93 92 98 100 96 97 97 80 58 50 62 79 67 61
63 94 97 86 94 99 98 98 90 99 83 77 72 100 99 100 78 70 73 94 74 62 84 80 78 85 89 91 94 86 87 85 80 72 86 87 93 95 94 98 91 44 54 63 54 55 57
68 97 99 67 91 98 99 100 100 99 98 93 76 81 95 91 87 78 73 80 84 78 73 75 79 77 78 91 91 87 85 89 85 94 65 80 66 71 75 74 49 44 49 51 55 59 60

GFSGBSN_850_rhum_033.txt.gz
RH
100 96 98 98 99 99 94 84 84 79 78 86 92 77 70 67 69 80 80 82 81 91 92 84 97 100 100 88 63 90 89 68 77 87 93 98 86 72 72 66 59 60 54 49 46 42 45
95 96 99 99 99 88 83 85 88 91 92 97 95 77 79 72 81 84 74 74 79 69 93 86 92 100 100 84 55 60 90 70 87 81 80 96 85 69 62 58 65 52 51 48 44 44 44
96 100 99 98 98 83 77 84 91 90 93 94 93 91 77 74 89 74 70 74 80 93 96 100 100 99 100 81 51 74 81 71 82 87 80 90 75 71 62 60 52 50 55 55 54 50 52
98 98 99 99 96 81 86 85 76 84 79 91 89 77 73 72 72 76 70 63 67 64 88 89 100 100 98 78 68 69 78 85 75 77 75 72 80 72 63 57 57 63 61 72 51 52 47
97 99 97 97 83 81 87 78 78 93 86 92 83 90 88 76 73 80 77 73 65 60 84 82 97 99 89 81 66 80 79 83 86 88 84 66 76 75 66 71 74 67 84 75 61 48 48
98 98 98 100 83 79 81 82 78 87 78 79 92 88 94 82 91 94 93 82 56 57 61 77 84 100 94 76 56 78 77 79 90 92 100 83 84 87 83 80 80 83 74 71 66 47 55
94 100 97 99 86 79 86 77 84 92 88 90 97 90 82 81 93 98 95 79 69 89 80 76 92 83 81 73 56 79 76 75 82 88 96 82 96 93 78 75 62 67 69 68 58 47 49
97 98 96 98 88 82 78 83 81 75 91 95 92 87 80 85 86 99 99 88 78 94 86 73 99 76 83 72 65 73 68 76 83 94 96 98 93 77 72 70 70 70 73 74 60 50 49
97 97 98 98 82 84 83 84 90 92 87 94 87 74 72 81 97 88 86 83 81 92 91 76 92 91 79 67 68 70 64 78 83 89 84 93 85 80 78 84 84 67 69 66 66 58 52
98 99 100 99 88 92 86 94 93 93 89 96 86 76 78 97 98 100 97 76 85 91 95 98 95 89 71 62 73 67 64 71 78 86 81 84 72 81 89 90 66 75 55 58 61 65 79
97 99 99 100 98 92 87 96 100 99 98 99 97 93 94 90 99 100 90 82 91 97 96 98 96 89 74 68 68 68 68 62 74 78 76 88 70 89 86 68 56 66 54 58 60 73 70
94 99 99 95 92 91 98 88 98 98 95 87 86 89 87 91 97 94 99 100 91 96 96 99 98 93 77 70 72 74 70 61 65 69 64 68 52 54 56 59 53 57 58 67 80 76 87
98 100 98 90 97 92 96 93 98 97 86 82 75 77 74 72 84 98 90 93 94 93 98 100 98 77 75 80 78 74 74 76 89 98 100 78 70 52 55 67 57 58 68 83 71 95 78
96 93 95 93 99 90 98 97 99 96 90 93 85 66 66 70 81 90 94 93 93 98 100 90 76 73 88 77 78 79 76 82 68 82 97 95 93 63 53 63 72 64 66 79 55 87 86
84 93 94 93 86 90 98 99 100 99 89 87 78 74 70 79 85 89 94 96 98 100 94 84 71 88 90 88 88 93 78 79 67 61 78 86 76 60 55 57 58 73 81 61 83 79 96
69 92 94 95 85 90 88 94 98 71 78 72 74 86 88 88 88 90 93 98 99 88 62 72 92 82 95 96 87 96 78 60 61 58 54 67 89 64 61 53 59 61 65 83 93 92 82
33 59 95 87 14 18 37 62 78 62 60 60 59 69 72 83 77 82 99 99 94 70 73 66 83 72 76 80 80 71 78 61 52 58 52 57 72 78 66 74 80 74 79 82 81 82 87
11 13 90 84 8 11 24 54 72 66 56 64 66 84 77 68 93 94 100 100 92 87 74 58 57 64 70 73 70 63 78 64 53 55 62 54 80 96 78 65 61 65 74 76 86 79 96
19 12 34 48 20 7 15 37 79 69 63 58 72 73 75 72 97 99 95 94 89 87 65 57 58 51 61 67 71 63 67 52 53 56 62 57 78 93 84 70 68 73 73 69 68 78 91
21 16 18 17 20 6 8 21 70 74 68 69 79 90 70 78 86 89 94 90 78 66 57 52 58 54 56 59 55 74 66 66 56 51 48 52 75 76 84 71 79 88 79 75 79 100 88
27 21 19 18 14 9 7 10 38 72 68 67 86 96 99 98 86 86 87 81 79 83 60 53 55 55 54 67 68 75 66 63 62 59 62 62 86 88 79 73 75 78 76 80 89 76 90
34 30 32 21 10 13 11 9 17 69 74 65 96 99 96 94 89 80 76 76 78 75 71 70 54 54 59 75 68 75 69 68 62 62 66 64 92 95 90 78 87 94 82 82 80 76 77
45 44 46 35 16 13 12 14 12 48 77 92 98 95 100 85 90 76 72 67 66 63 66 69 68 76 81 80 71 55 49 52 56 70 75 71 93 90 92 82 89 94 87 83 81 77 70
50 52 92 49 30 28 24 20 18 18 78 98 93 89 98 92 92 80 80 63 66 70 70 74 69 70 78 71 65 60 60 61 61 65 63 83 94 99 94 89 93 62 61 65 72 71 74
71 54 89 61 51 31 81 51 42 42 23 90 96 90 95 91 89 84 84 71 69 70 75 77 79 76 71 68 84 82 79 72 72 65 75 71 91 93 97 85 75 60 72 76 80 70 66
90 57 88 92 88 54 98 96 65 94 32 38 98 100 97 99 92 96 99 75 78 79 78 80 74 74 73 84 81 90 97 81 97 95 77 82 84 98 100 98 92 55 55 60 64 83 59
99 82 75 88 98 76 94 98 94 99 93 39 86 92 100 100 94 98 97 91 69 77 82 85 78 74 76 90 90 86 80 74 94 96 100 100 100 96 99 98 83 60 53 64 75 66 56
95 75 60 83 100 95 80 97 96 92 90 76 68 65 74 98 94 85 84 89 96 78 86 76 83 85 92 88 90 91 89 82 85 77 92 95 98 97 88 99 94 51 71 69 60 57 63
81 88 72 84 98 100 91 92 98 89 90 86 78 84 84 77 51 62 78 77 76 78 99 86 75 81 77 92 94 91 93 89 86 90 78 88 82 91 85 80 54 48 50 50 56 60 61

GFSGBSN_850_rhum_036.txt.gz
RH
98 96 99 99 92 100 86 85 85 78 90 85 92 90 94 84 81 80 76 77 80 80 71 91 92 97 98 100 84 90 98 82 40 80 99 88 88 80 71 68 61 63 56 52 48 47 47
99 99 99 96 93 98 86 82 78 76 82 88 84 91 93 72 77 77 69 74 73 77 80 96 92 90 99 98 72 72 80 84 54 88 99 91 84 71 63 65 60 56 54 52 48 47 46
96 98 92 98 96 90 80 84 86 81 80 94 83 89 76 88 83 75 78 75 76 94 97 91 93 84 99 91 82 67 69 78 60 87 98 93 81 65 63 62 56 52 55 56 54 51 52
95 95 97 99 98 86 79 86 92 77 78 75 91 75 93 93 80 74 77 75 76 79 87 80 75 95 95 78 72 70 76 91 87 90 83 85 80 72 63 59 60 66 60 75 54 57 50
96 98 98 100 99 86 84 78 82 81 80 92 81 84 97 94 86 86 81 81 79 80 77 80 88 98 95 78 77 77 89 88 85 80 79 73 71 75 68 73 79 70 87 80 62 53 50
98 99 98 99 99 83 82 91 85 81 77 93 85 94 92 89 82 85 86 77 62 58 63 73 76 93 95 84 70 74 84 92 88 86 86 81 78 89 86 76 88 80 76 72 71 49 58
100 99 98 95 95 86 98 89 90 93 92 92 88 98 94 81 83 89 86 84 76 92 85 63 83 88 87 84 78 72 80 91 97 91 90 84 89 86 83 74 64 70 72 70 62 50 50
100 98 96 88 99 97 99 96 94 97 97 96 93 93 93 84 85 97 90 80 78 82 81 59 82 90 90 78 91 78 70 84 88 96 91 87 89 77 72 69 71 71 77 78 64 53 51
92 97 97 94 99 99 99 92 92 96 97 98 96 98 88 81 86 98 94 76 76 88 87 86 96 96 85 71 77 81 77 86 85 93 91 88 82 72 73 74 84 69 73 70 68 58 54
97 99 96 94 99 98 97 82 95 93 93 89 90 84 87 89 86 99 95 78 80 89 91 98 91 97 82 82 75 71 79 78 82 91 86 92 87 83 87 84 74 88 57 59 60 65 80
78 99 92 93 95 97 98 91 97 91 88 78 82 82 85 76 86 98 90 84 86 94 93 98 92 93 81 67 70 76 75 67 79 82 81 94 94 92 94 87 78 85 55 59 63 73 67
95 97 93 92 97 95 98 95 84 89 85 84 78 77 76 74 82 91 98 93 86 91 98 99 97 91 77 73 78 74 72 68 66 74 70 75 78 80 82 76 68 59 60 68 77 76 86
98 97 90 95 98 99 98 99 89 76 83 85 82 86 72 73 83 84 88 83 94 94 98 100 97 75 75 81 78 74 86 82 91 98 100 90 71 54 55 66 56 58 69 88 74 80 79
92 96 82 79 70 100 89 94 86 60 71 78 89 86 79 84 94 98 96 87 90 98 100 92 73 79 86 73 82 81 85 87 67 86 95 94 96 63 55 61 70 65 67 83 64 73 78
92 90 91 58 7 57 42 74 62 52 57 71 76 77 85 89 96 100 97 98 98 100 94 87 74 89 95 86 90 91 80 77 68 63 80 85 82 60 57 60 57 73 82 60 85 82 90
87 96 80 83 7 12 27 63 54 54 51 54 55 64 77 79 85 91 93 99 99 81 65 69 90 81 95 86 90 90 78 64 66 58 55 67 92 68 61 56 62 61 65 82 90 70 75
66 99 40 83 25 7 19 49 59 47 48 50 54 63 77 70 72 71 99 100 90 80 70 66 78 79 85 83 83 95 77 63 54 61 56 63 75 82 62 71 79 75 80 82 78 82 82
25 100 84 19 42 10 8 30 63 47 41 41 61 87 72 68 90 98 100 99 89 84 73 56 60 64 71 72 71 69 80 62 53 55 62 58 80 95 75 67 62 66 75 73 85 83 91
21 75 91 24 20 20 7 12 52 60 49 50 52 62 66 63 97 99 88 92 89 85 69 55 56 54 62 66 69 62 65 55 53 52 60 59 77 92 82 70 67 74 74 69 71 79 96
26 41 93 38 26 21 9 6 25 60 57 58 65 92 69 71 86 88 92 87 77 69 59 56 59 53 58 61 63 69 66 66 57 52 50 54 72 76 82 68 78 91 82 75 78 99 88
38 39 94 59 45 26 10 7 9 60 63 65 80 96 97 98 89 90 87 81 79 82 67 55 56 54 59 69 72 75 69 66 63 61 63 62 87 85 77 72 77 78 77 85 86 80 88
58 43 82 94 70 44 15 8 8 38 72 71 93 99 92 95 90 82 75 75 80 76 73 65 61 56 62 65 68 81 72 66 63 63 66 66 98 93 91 79 86 93 85 82 84 78 78
66 65 50 99 86 68 21 21 8 15 74 89 97 98 98 85 88 78 80 72 70 66 68 74 68 70 77 82 73 56 52 55 58 71 75 71 94 93 94 84 89 92 87 83 79 77 69
70 70 60 93 97 65 32 58 40 22 53 93 96 97 98 90 90 82 86 77 74 76 70 77 70 69 75 67 65 57 60 63 61 68 63 79 92 95 91 86 96 59 67 65 68 68 68
74 72 65 82 97 84 54 71 74 88 32 96 98 88 93 90 87 87 85 86 72 71 77 78 80 79 74 72 82 78 78 70 68 64 72 68 90 89 92 84 74 61 75 74 74 65 67
87 98 84 94 98 95 74 78 76 100 80 53 98 93 94 99 90 95 97 91 79 80 78 80 76 76 75 84 83 90 97 83 98 96 78 82 79 90 99 97 96 59 59 62 60 74 56
98 99 98 85 91 100 92 63 92 86 95 73 68 50 95 99 92 98 95 97 80 80 82 82 80 75 76 89 89 88 87 76 89 92 98 100 100 98 95 94 85 60 50 63 76 67 56
91 89 88 91 87 98 99 90 70 87 88 87 83 74 69 79 62 65 91 94 92 86 86 80 84 83 89 87 88 89 86 86 88 81 80 88 92 97 88 99 94 57 72 72 60 57 60
85 81 89 87 82 97 99 100 96 77 89 87 84 87 88 89 50 39 32 47 73 74 99 93 79 80 76 90 93 91 93 93 88 92 81 95 83 90 80 80 55 55 51 52 54 58 58

GFSGBSN_850_rhum_039.txt.gz
RH
97 97 99 100 98 92 97 85 84 82 80 80 77 75 79 82 94 82 71 72 77 79 78 84 82 86 74 96 94 83 92 96 98 90 94 98 97 82 76 68 64 62 60 50 44 48 48
93 98 97 96 92 98 90 85 84 79 83 81 76 81 82 82 79 92 65 70 69 71 74 80 84 87 83 98 89 83 74 77 82 95 95 94 89 77 69 66 61 59 54 52 49 49 47
96 98 97 95 97 99 89 81 84 78 81 81 87 82 81 81 89 81 72 66 72 66 71 87 86 88 85 91 82 66 73 70 80 96 95 93 78 72 65 67 56 58 63 56 54 52 50
99 98 98 98 98 98 85 86 83 83 82 77 84 76 84 96 94 79 75 78 78 80 73 73 81 95 98 78 92 82 79 76 95 89 90 82 74 64 60 58 62 65 59 72 54 56 49
98 99 99 98 99 97 89 98 93 91 91 91 92 80 87 98 92 81 79 81 82 77 87 73 77 94 88 85 84 75 83 100 90 94 80 80 77 72 67 72 78 72 81 76 61 58 54
99 98 99 99 97 98 98 98 98 97 95 98 89 92 93 89 80 80 78 74 68 64 65 71 80 89 78 84 75 78 78 93 84 83 80 81 74 88 84 79 84 85 80 74 60 51 59
100 95 98 98 97 97 97 98 95 96 97 98 99 95 88 86 85 88 75 72 75 80 68 65 70 85 90 83 81 75 77 87 93 87 94 85 90 86 84 65 62 66 72 71 63 52 53
99 99 98 96 96 99 100 99 99 97 100 96 97 97 93 98 74 82 87 75 73 80 78 62 68 74 91 92 79 77 83 92 91 91 86 93 89 70 73 69 66 68 75 76 65 54 52
97 99 98 93 98 100 99 100 99 98 90 77 74 79 80 85 94 99 97 77 72 78 82 86 90 94 97 82 82 81 83 98 88 92 85 79 73 68 70 77 78 74 79 76 69 57 55
94 98 98 95 99 98 93 100 100 100 81 70 73 76 73 77 77 96 97 83 78 85 90 97 94 100 88 82 88 81 89 86 96 96 89 89 89 73 77 78 72 86 59 61 60 66 72
64 98 92 92 98 98 98 100 99 78 69 64 66 74 80 81 84 90 87 81 79 90 92 92 94 97 79 84 85 81 80 72 86 92 87 96 89 93 85 82 69 77 58 62 64 71 65
33 72 70 80 81 98 100 100 77 62 62 67 69 74 76 77 79 88 90 86 84 84 99 98 94 90 77 87 87 84 77 69 77 81 78 87 88 86 91 91 72 59 60 67 71 70 79
36 48 39 40 60 86 92 100 59 47 54 67 75 77 77 83 89 93 97 94 88 96 98 100 98 75 77 88 86 88 81 84 91 99 100 96 97 82 84 91 85 71 70 86 72 83 77
48 53 30 29 36 22 73 96 66 40 48 52 60 67 77 84 94 98 98 84 90 99 100 91 81 76 87 86 86 85 89 86 72 87 97 95 99 74 58 66 78 75 68 78 67 54 62
35 41 23 26 19 10 18 80 70 46 39 39 45 50 79 82 88 98 96 97 98 98 78 83 70 86 90 88 86 86 97 80 68 63 80 82 92 61 62 61 59 70 81 59 83 80 78
30 29 38 20 12 8 6 23 68 59 41 41 53 52 72 70 77 83 95 94 99 88 65 68 86 80 93 88 90 84 79 66 69 58 57 67 96 69 63 56 62 61 64 81 85 75 66
28 30 28 26 14 10 7 6 36 61 44 40 56 53 66 64 61 71 98 100 90 80 71 64 79 85 82 82 90 92 74 63 58 60 57 64 74 85 64 70 77 73 77 78 72 75 68
29 32 39 33 24 12 10 5 10 54 45 41 52 85 63 56 80 95 99 100 89 83 71 55 61 68 76 74 73 76 69 63 55 54 63 62 79 91 77 68 64 64 73 68 74 78 87
38 38 50 43 48 26 12 8 4 34 60 53 52 57 63 56 94 98 87 87 88 78 65 55 56 59 61 66 72 63 67 57 54 52 63 60 76 92 81 68 68 75 75 67 68 78 97
50 48 53 63 51 53 23 11 6 13 62 61 66 84 63 65 84 82 92 84 76 70 60 56 58 54 57 63 68 72 65 70 57 52 53 52 71 72 73 65 78 90 83 71 76 90 82
60 60 55 78 57 56 43 15 9 6 60 71 76 96 97 97 86 90 88 81 78 79 70 55 56 54 59 69 73 76 72 72 65 63 61 61 86 84 73 67 78 78 79 83 84 77 81
66 66 61 61 71 68 54 29 14 6 54 72 95 97 94 95 91 83 75 77 78 76 78 63 60 59 61 67 64 80 72 70 68 64 65 66 98 91 91 81 84 91 81 82 81 77 76
60 66 62 62 81 82 64 46 35 11 37 87 99 99 96 86 87 79 79 72 71 71 74 77 65 62 70 77 74 64 54 54 60 70 75 71 95 93 88 82 87 93 89 81 77 78 68
72 66 60 62 90 93 73 70 73 58 22 95 97 97 92 91 92 86 88 83 73 76 71 77 68 66 78 67 63 57 59 63 62 68 62 80 90 92 89 84 96 59 66 68 69 67 68
82 90 95 86 95 93 91 70 87 100 56 57 93 91 91 87 86 87 91 92 79 73 78 77 79 75 72 70 77 77 78 66 70 68 68 66 86 91 90 84 70 64 75 75 72 62 62
83 98 92 93 82 97 99 82 84 86 84 60 47 80 86 92 90 94 94 98 86 81 77 82 82 79 74 80 81 88 95 83 95 95 81 79 78 83 96 98 96 58 69 62 61 79 63
84 83 79 86 77 79 95 96 87 75 85 80 74 56 78 100 78 97 90 96 93 84 84 82 83 82 76 88 90 91 91 76 88 80 99 98 100 96 89 92 82 61 63 66 94 72 52
78 77 78 80 82 76 96 96 99 91 80 82 74 78 79 72 47 59 90 94 93 92 88 80 87 83 90 89 88 88 86 84 88 79 81 79 97 93 87 95 95 60 71 85 66 56 58
99 95 92 83 90 94 80 89 99 94 78 83 80 90 95 95 56 53 56 47 53 89 98 98 88 80 76 90 93 91 93 94 88 95 84 92 81 89 81 73 54 57 56 55 55 61 59

GFSGBSN_850_rhum_042.txt.gz
RH
95 98 94 94 95 88 98 88 86 82 93 82 84 86 81 78 70 66 84 91 74 84 68 75 85 90 76 82 82 86 96 82 98 95 92 89 78 70 61 52 53 43 43 38 38 46 44
95 97 96 93 92 96 92 90 88 83 83 89 80 80 76 79 75 83 79 78 80 85 68 77 81 86 90 75 74 85 85 84 99 89 90 87 65 64 58 56 50 42 45 40 40 44 45
99 88 97 90 97 99 91 96 98 94 98 93 94 90 74 76 83 91 80 76 80 83 72 71 82 90 93 63 86 81 86 83 94 85 81 88 66 67 60 60 54 50 46 44 45 40 38
90 97 99 94 95 98 99 99 92 90 87 85 87 88 77 75 86 79 79 80 80 80 84 70 66 83 81 54 88 86 78 75 85 92 87 91 78 63 57 56 54 49 45 55 32 40 44
90 98 97 96 97 100 99 94 98 94 95 85 81 87 96 89 79 79 77 71 78 83 86 72 77 88 65 75 77 89 88 75 84 95 99 85 82 62 61 54 61 48 41 41 42 42 34
88 92 88 96 98 99 97 86 88 97 89 99 93 80 93 76 63 81 78 71 60 63 76 80 74 88 76 75 86 82 83 76 99 96 96 83 74 64 50 49 50 49 40 43 37 41 49
55 93 97 94 99 96 93 96 88 98 98 100 76 87 84 93 78 83 76 71 82 81 86 59 58 80 75 79 79 84 78 74 97 91 90 89 85 78 55 43 38 41 44 38 38 42 44
41 85 95 94 99 93 94 94 96 91 94 78 71 66 75 84 89 77 74 72 69 78 61 71 69 71 77 94 85 80 73 94 80 85 76 85 74 50 49 49 49 45 43 43 54 47 45
27 59 77 95 96 97 97 97 98 92 78 66 68 68 73 81 78 99 90 80 75 73 65 80 89 93 98 81 72 77 88 97 82 84 81 76 62 49 57 56 56 54 50 58 49 49 44
27 47 35 64 87 83 99 98 97 71 58 63 66 65 57 61 76 94 88 76 70 76 88 97 96 96 88 80 80 87 92 87 93 95 77 71 71 54 53 59 50 67 54 55 54 53 44
30 39 36 48 49 60 90 100 98 64 56 63 68 69 55 50 66 94 82 67 75 84 85 94 95 97 86 80 85 93 80 99 88 93 89 96 80 63 61 55 52 55 51 53 54 55 54
33 26 22 26 35 18 49 89 83 80 56 63 66 74 74 70 54 74 87 81 81 94 94 99 94 80 82 83 84 91 93 80 92 87 84 92 91 88 87 73 56 48 52 53 54 56 76
33 30 21 15 13 11 21 53 55 59 50 54 50 59 79 79 79 80 92 93 96 87 94 100 93 70 87 83 82 78 71 83 92 100 100 97 96 94 82 90 76 55 60 87 85 88 65
31 31 28 17 13 9 5 21 49 48 48 50 48 52 80 82 82 90 90 88 87 98 89 85 72 72 96 85 91 88 72 92 66 75 81 97 97 95 88 87 96 80 69 64 65 52 43
28 32 30 25 15 10 7 4 25 48 42 40 54 61 77 74 75 80 97 97 99 99 75 72 56 64 74 73 87 82 80 69 59 58 70 80 94 68 65 57 74 89 90 48 62 59 59
28 33 40 40 39 13 9 6 4 36 43 41 53 56 70 64 68 70 85 96 97 78 60 56 65 63 67 71 69 69 76 58 58 51 49 61 93 63 57 55 52 54 49 75 76 75 55
31 40 48 46 46 48 14 8 5 6 45 40 55 63 63 58 65 77 100 100 75 74 65 56 65 62 63 70 70 63 61 58 51 51 47 51 60 80 61 66 61 61 62 58 52 54 48
38 48 49 52 46 42 48 10 6 5 34 42 52 88 62 53 78 83 89 93 85 69 66 51 53 61 59 65 66 62 54 55 52 46 52 54 63 84 73 59 55 54 53 44 52 70 63
48 56 56 60 50 42 35 45 8 5 38 54 56 59 58 52 80 85 74 75 77 62 55 48 52 52 53 56 62 59 58 57 54 47 50 49 65 88 83 64 61 66 58 50 51 59 82
52 63 64 64 57 48 37 34 21 6 26 65 71 90 64 62 85 69 72 69 62 72 56 52 52 48 48 52 51 58 58 61 59 52 54 45 57 66 54 60 64 84 68 57 63 80 56
47 64 65 62 59 49 42 37 40 8 13 68 79 94 96 80 73 71 74 72 68 65 63 52 50 46 46 54 56 58 60 59 56 62 54 49 87 80 59 58 67 70 69 68 82 59 71
38 48 65 60 60 64 65 55 42 11 14 71 100 97 90 81 83 67 68 69 72 70 68 55 50 48 49 50 43 57 56 54 50 57 52 54 94 86 84 72 69 79 64 62 65 59 57
40 69 72 65 64 93 86 69 43 29 25 85 99 98 96 81 71 62 61 65 65 67 72 70 49 54 58 61 63 57 49 46 46 52 56 58 84 86 74 70 73 81 68 63 61 58 54
70 76 71 73 82 89 95 82 87 83 46 94 94 95 93 72 73 63 72 75 69 71 67 70 66 54 68 61 60 57 56 55 52 57 49 63 77 82 84 76 87 54 53 53 57 52 51
71 80 85 78 79 83 99 94 85 78 71 47 79 84 90 81 72 68 83 80 78 72 70 73 78 76 65 70 62 65 64 62 63 64 55 50 66 82 85 73 54 48 63 62 64 59 49
77 78 76 75 75 68 82 99 91 83 73 62 56 54 92 84 65 89 88 92 74 66 65 77 82 81 76 72 68 72 78 61 77 78 70 63 56 68 80 90 77 56 56 56 54 72 52
80 76 76 74 78 80 72 97 99 95 78 69 70 63 58 96 80 84 82 85 90 76 68 77 84 84 77 72 68 69 70 62 76 72 90 84 83 82 75 72 54 43 59 62 93 75 57
99 99 99 85 81 86 88 80 91 99 91 82 80 77 87 85 50 52 79 84 93 94 74 82 83 81 81 81 68 66 62 63 67 55 64 67 78 90 70 80 77 52 71 74 59 60 67
98 97 98 94 83 88 92 79 79 99 99 99 92 82 94 98 66 53 56 54 43 82 93 98 92 80 71 71 77 70 69 68 66 78 65 68 56 58 55 52 44 59 56 62 55 54 60

GFSGBSN_850_rhum_048.txt.gz
RH
93 97 99 99 97 98 99 92 73 67 82 96 99 76 78 81 87 72 78 72 75 89 77 73 66 73 88 94 79 61 65 53 70 90 88 83 52 66 60 53 43 48 36 30 29 35 35
93 96 96 98 96 98 95 76 84 83 85 99 96 82 94 87 84 71 78 77 83 83 70 75 67 75 84 93 59 56 80 96 67 92 76 81 47 56 50 42 48 39 38 35 26 36 37
87 98 96 94 98 95 95 91 90 86 96 86 83 80 87 78 79 72 82 75 61 69 70 77 73 84 95 75 64 68 70 96 78 81 72 73 51 46 51 49 40 39 44 42 34 35 38
60 82 97 91 98 90 98 97 89 90 94 83 77 88 90 80 90 77 79 59 61 64 68 74 66 97 82 63 64 74 78 88 95 86 67 61 58 47 52 49 42 45 47 56 38 36 36
45 72 62 68 92 88 99 99 93 91 93 87 77 71 77 79 83 71 51 69 61 52 70 78 70 94 65 62 58 65 74 89 84 83 73 64 68 62 60 61 62 53 60 54 45 33 37
33 54 54 26 71 83 99 98 94 92 89 89 83 65 77 83 79 68 69 59 53 76 82 90 83 81 67 62 55 55 72 90 94 86 80 68 72 77 64 65 87 62 55 46 47 38 39
32 33 33 27 70 80 90 93 90 95 98 92 95 63 78 86 60 69 69 87 85 81 78 90 69 64 80 80 63 66 89 89 96 91 86 75 84 87 68 51 42 39 43 42 35 35 41
32 31 34 30 38 78 75 86 68 73 98 67 91 78 70 74 74 65 72 73 82 89 67 55 56 60 65 73 86 84 87 85 95 89 64 86 87 56 52 43 39 35 37 40 32 38 40
30 30 31 28 23 48 62 66 57 49 52 56 70 88 60 63 79 82 90 80 67 68 78 69 79 92 84 84 79 99 81 91 83 76 70 76 61 47 46 48 43 37 42 38 39 44 40
30 29 30 35 16 12 19 48 20 44 46 46 50 72 71 73 80 76 87 55 60 72 95 91 84 89 82 88 95 84 87 85 85 72 60 63 58 64 59 53 42 43 33 35 45 56 60
31 29 31 39 42 32 16 14 7 8 37 49 46 52 74 54 83 89 54 54 64 85 96 98 94 86 78 93 90 98 85 82 89 67 81 95 74 76 78 61 39 43 46 50 50 58 60
32 29 32 40 40 42 39 20 9 6 9 44 44 48 66 95 79 57 51 63 95 99 97 99 92 88 82 77 88 94 98 80 95 81 80 90 85 77 76 70 51 47 55 56 53 61 91
32 30 35 40 42 38 35 33 35 12 6 39 46 56 69 81 95 98 86 94 100 93 91 97 84 75 81 88 82 79 91 95 98 98 100 98 94 86 84 86 69 53 63 93 94 97 87
31 32 37 41 43 41 35 32 26 34 7 30 46 57 64 78 94 87 99 97 91 86 84 76 73 70 87 76 81 89 96 99 88 84 100 100 99 96 84 81 82 64 56 83 72 88 76
30 33 37 39 48 44 38 32 27 25 20 17 46 50 67 75 76 95 99 95 97 98 62 64 60 63 73 70 68 73 90 89 83 84 98 100 100 92 87 79 76 77 96 48 70 40 78
30 32 37 39 47 44 41 37 31 26 28 18 48 61 79 65 71 98 97 92 89 65 48 44 57 55 67 64 68 60 56 50 57 54 47 70 98 96 91 90 82 88 72 77 92 90 63
30 34 38 44 47 40 44 41 35 36 33 17 61 73 74 58 78 99 96 98 56 50 51 51 48 48 52 54 53 46 53 52 41 44 41 47 67 97 96 98 98 96 90 64 61 74 88
28 45 34 42 42 42 47 43 44 41 34 9 79 89 70 58 84 77 84 81 58 50 47 43 45 47 45 47 50 47 51 52 42 39 48 51 67 93 72 54 55 78 79 62 86 77 67
39 49 31 36 44 52 46 59 60 42 17 22 84 68 69 53 82 74 59 55 54 49 44 41 46 46 44 45 53 47 50 50 46 45 49 47 79 96 77 64 56 64 55 68 50 74 86
50 38 36 41 46 49 76 70 50 17 13 49 86 98 73 70 64 61 56 51 54 58 48 41 42 41 45 46 41 53 55 52 50 48 44 42 55 78 85 72 66 75 61 56 73 94 74
46 42 44 47 58 71 83 73 49 14 37 88 79 84 83 87 64 58 55 53 51 54 53 43 44 43 41 47 45 47 52 57 50 50 46 52 94 78 55 53 74 75 66 63 79 70 80
51 46 50 59 62 66 83 80 65 20 39 62 94 95 90 77 58 56 65 56 54 53 54 48 49 38 36 41 38 46 48 50 51 52 49 56 91 83 84 57 60 72 64 60 63 62 62
52 52 59 63 62 65 79 82 80 59 31 84 87 87 96 77 53 56 59 55 54 56 56 52 48 41 42 56 48 48 38 37 39 52 54 60 85 92 83 64 68 86 71 63 58 58 58
51 56 63 66 68 67 67 76 89 81 41 74 78 96 94 73 59 55 58 59 60 58 68 48 52 51 56 51 49 43 40 40 40 39 41 53 73 92 94 82 97 57 46 49 54 49 51
49 61 73 84 81 76 74 75 85 86 81 73 51 78 92 68 48 52 64 67 68 59 62 58 63 66 57 53 48 58 60 54 48 46 50 42 63 87 80 88 61 45 56 57 57 57 43
56 74 91 89 89 85 77 86 86 81 89 82 63 53 88 82 53 49 63 66 80 70 62 62 75 69 70 70 63 65 75 54 67 65 55 48 50 72 75 73 82 63 50 44 45 84 45
68 86 93 91 84 83 83 90 89 81 92 87 97 77 86 72 50 53 59 73 73 80 77 63 76 78 75 72 73 70 69 47 62 60 78 76 72 87 85 78 62 50 53 49 85 78 55
85 89 88 87 74 75 85 82 93 92 90 82 95 94 88 90 78 72 60 58 56 55 89 86 79 75 80 83 73 72 63 58 54 49 65 67 73 71 69 82 86 54 60 74 70 66 61
92 81 83 81 78 77 86 89 89 90 93 91 99 99 98 98 77 70 72 69 56 56 73 81 90 82 88 85 72 62 68 55 56 67 50 68 58 62 59 67 46 47 49 54 55 58 66

GFSGBSN_850_rhum_051.txt.gz
RH
68 86 98 92 95 98 98 98 100 78 92 94 89 97 86 86 86 83 74 77 72 82 77 72 70 75 88 97 84 64 72 52 60 77 79 92 78 82 75 70 57 62 45 46 44 53 47
52 83 99 93 97 100 98 99 95 83 94 89 94 93 89 74 70 76 72 71 78 76 67 67 69 77 88 93 73 66 73 81 88 86 88 78 58 68 63 59 59 47 48 47 44 41 36
36 50 78 73 77 100 100 98 97 82 88 83 80 83 82 69 81 75 71 71 50 67 65 71 65 79 91 69 71 86 80 96 87 75 81 81 52 66 52 55 49 48 54 54 50 42 40
30 37 70 64 70 93 98 100 98 85 87 88 81 56 76 59 83 72 67 53 50 63 61 70 72 84 80 50 67 70 86 97 89 88 75 64 55 60 53 48 47 51 55 70 47 43 38
29 37 62 68 71 76 97 98 100 96 95 90 87 63 85 80 58 45 44 60 54 50 50 70 61 78 79 69 55 66 68 83 97 84 74 66 70 65 54 66 69 60 79 66 50 40 43
29 33 37 41 68 68 67 89 88 96 98 93 95 56 84 67 55 65 64 52 62 72 74 74 87 84 70 75 65 57 62 82 93 86 94 70 68 80 78 80 84 76 71 58 54 44 43
30 30 30 34 40 28 28 42 72 89 98 96 76 58 63 73 52 55 69 77 70 76 82 74 70 71 67 67 64 52 72 82 99 98 84 74 88 88 79 66 56 54 57 51 47 39 46
30 29 30 38 39 22 16 18 13 67 92 89 63 73 43 66 67 52 71 78 92 91 85 64 65 63 69 69 84 58 81 99 96 95 78 86 88 69 64 55 56 50 56 52 39 41 45
29 29 31 39 41 43 35 18 9 11 27 62 64 59 59 55 66 67 62 61 70 89 90 74 89 90 79 78 88 80 99 90 83 90 78 77 68 56 62 59 60 56 49 48 49 45 43
28 29 32 38 40 36 34 33 32 13 7 35 51 55 66 52 64 70 75 52 62 72 96 94 83 86 80 87 90 99 96 89 91 82 69 63 60 64 62 68 56 62 38 39 55 60 66
27 29 32 39 40 39 34 30 26 31 13 13 47 50 57 69 60 91 78 53 67 82 93 93 90 78 89 95 86 88 88 86 85 76 74 85 77 75 75 66 52 56 47 56 58 64 64
25 28 32 40 42 40 36 33 29 26 33 8 45 53 62 77 78 83 58 60 96 89 97 98 86 85 98 94 88 92 89 82 84 82 83 90 79 87 83 81 67 51 60 63 68 75 90
25 27 32 37 43 46 38 32 35 31 29 13 44 56 65 73 83 95 95 84 94 93 88 89 91 83 82 85 87 78 86 90 93 98 99 90 94 84 83 86 74 63 66 95 95 97 89
25 29 32 38 40 45 38 35 39 37 33 15 42 55 68 81 81 80 91 93 89 87 87 76 77 78 83 78 85 90 92 95 88 88 93 98 97 95 87 88 94 80 61 86 87 98 84
28 32 35 40 40 41 35 40 41 40 37 17 48 63 67 82 75 91 96 93 85 95 68 71 70 72 80 73 80 94 96 88 82 80 88 99 100 90 84 86 91 93 96 52 72 55 85
36 30 43 37 39 37 38 43 47 41 38 14 59 73 81 71 81 95 96 90 90 78 56 52 71 59 85 73 77 86 95 71 84 75 73 86 97 95 88 84 81 89 72 83 94 97 69
38 35 44 34 39 40 43 52 55 42 37 14 71 79 84 68 91 97 94 98 79 54 53 56 61 56 57 64 68 60 63 55 52 64 59 70 77 99 96 99 97 92 92 69 71 86 90
28 52 39 40 43 45 50 58 48 25 32 16 84 93 82 69 97 91 94 83 58 53 50 49 49 51 52 52 46 50 64 56 43 44 58 55 79 98 89 78 73 82 82 69 90 79 74
32 47 44 46 46 51 58 57 40 15 20 39 77 76 87 76 94 83 65 65 61 56 46 45 50 48 46 50 57 52 64 52 47 53 54 56 83 95 87 71 73 93 92 80 77 74 83
44 48 50 47 52 53 56 61 48 14 40 77 88 94 88 90 67 69 65 65 70 54 55 43 45 44 48 49 43 56 65 54 50 50 45 46 70 77 83 70 75 81 76 85 95 91 73
49 56 48 51 53 52 58 59 56 18 36 78 83 89 86 95 72 68 58 55 56 68 57 45 47 49 52 52 49 56 62 64 53 49 49 60 82 72 61 66 72 72 70 76 97 74 79
56 53 52 58 59 59 59 65 66 36 33 36 87 93 88 93 75 63 66 62 59 59 57 56 53 49 42 50 48 54 60 61 62 57 54 64 91 83 81 61 60 72 69 70 72 66 66
59 52 60 63 66 68 66 63 72 62 24 39 66 86 93 83 82 68 71 68 67 58 57 53 56 53 46 63 53 49 42 42 47 62 64 69 86 93 88 70 71 81 74 68 64 63 60
56 59 69 69 66 74 69 67 78 78 67 43 63 93 91 91 67 62 72 68 76 73 74 55 61 57 53 49 46 43 42 43 44 52 50 79 76 90 94 84 95 54 52 57 58 51 60
53 62 76 73 72 76 74 73 74 76 80 70 60 61 90 92 65 54 62 74 70 67 68 65 70 63 60 56 60 63 64 58 52 49 50 53 62 79 83 86 65 50 59 59 66 64 51
54 75 92 79 76 69 75 85 86 82 85 79 86 74 79 87 69 59 60 64 89 90 77 73 72 62 65 79 68 73 81 55 67 60 55 58 55 74 79 70 86 60 50 46 52 81 55
58 89 84 84 69 68 74 73 83 84 81 82 88 88 79 86 65 71 63 76 68 80 93 78 82 75 75 85 81 76 70 51 75 73 76 76 74 86 83 90 70 47 50 50 82 70 60
82 84 84 79 72 71 72 76 83 86 89 84 88 95 93 90 83 71 68 61 56 62 88 87 78 81 88 88 86 81 68 63 62 58 77 83 78 80 78 86 90 54 62 74 67 64 61
80 82 79 80 80 73 76 81 85 80 78 84 95 97 95 93 82 75 78 71 66 58 57 76 87 86 96 97 89 85 73 69 69 77 58 74 67 73 70 73 48 56 56 56 60 64 61

GFSGBSN_850_rhum_054.txt.gz
RH
40 64 76 91 94 99 95 96 87 72 88 88 97 61 88 70 72 74 73 76 69 76 77 62 63 65 90 86 85 74 70 81 76 94 92 77 83 74 84 75 72 62 58 54 54 55 58
40 49 75 81 95 99 99 99 97 83 87 88 100 69 68 82 80 68 69 68 65 67 70 73 61 72 90 93 65 80 88 82 57 98 84 84 74 69 67 66 72 62 52 57 62 64 63
32 42 55 74 89 83 98 98 98 93 93 89 100 73 73 69 82 63 69 66 43 61 68 68 62 71 84 72 75 82 93 84 87 94 76 82 59 73 58 66 53 53 68 57 51 48 49
29 33 44 38 77 78 85 98 98 90 96 94 94 60 73 71 53 56 57 56 56 55 53 60 72 75 73 69 67 81 82 94 93 84 70 68 65 62 60 53 55 55 60 70 51 48 41
29 30 33 35 52 68 82 79 98 91 97 81 69 87 70 45 66 59 48 54 69 61 55 67 62 68 70 71 70 73 81 95 99 92 83 66 76 65 61 70 72 59 86 73 57 46 46
28 30 30 38 46 53 38 44 80 86 89 87 61 65 60 56 61 64 55 51 70 71 71 70 81 84 66 68 71 72 81 81 100 90 94 79 74 83 76 76 83 74 78 63 60 47 49
27 29 30 37 40 48 48 37 41 18 65 81 49 59 56 66 55 63 61 56 66 65 64 67 63 67 57 63 73 84 72 94 92 98 96 76 90 89 76 60 59 63 59 64 51 43 47
29 29 30 36 39 41 36 36 47 39 11 33 50 50 56 50 58 56 61 49 72 74 80 73 77 71 74 66 79 73 79 99 96 96 80 90 88 73 67 60 56 58 66 62 44 39 47
30 28 30 36 40 42 38 33 30 40 34 9 39 49 58 52 52 51 60 54 73 87 92 80 88 88 84 82 88 88 92 96 84 93 77 75 76 67 68 64 67 58 62 57 48 47 44
32 28 29 36 40 44 42 36 32 32 29 26 29 48 52 60 70 59 62 53 68 78 93 92 82 74 87 86 86 90 96 93 94 90 72 74 64 67 72 70 59 66 46 44 50 60 74
34 27 29 34 40 43 45 37 36 39 35 31 26 50 57 71 53 70 63 56 69 84 89 87 92 80 86 91 87 94 87 78 90 92 80 97 78 74 75 67 53 60 44 54 59 66 64
33 27 31 34 42 40 44 36 38 41 40 34 24 51 61 75 84 80 75 60 97 81 90 96 92 90 89 92 88 86 80 82 85 79 84 87 83 87 86 80 62 57 59 67 76 74 86
30 28 35 35 42 41 42 39 42 42 41 35 24 53 64 73 85 92 93 76 86 93 72 80 95 87 80 83 84 79 87 88 92 97 96 95 91 84 86 82 72 64 63 97 94 94 84
32 32 35 44 41 41 41 43 42 41 41 36 34 53 69 72 82 86 87 86 86 84 78 69 81 77 82 83 85 84 86 92 84 84 90 94 99 94 85 84 86 80 78 89 85 96 83
34 41 38 48 39 43 44 46 46 43 38 33 47 55 73 76 84 88 88 89 84 89 76 78 73 84 83 78 87 90 92 77 81 84 84 94 99 87 84 88 81 95 99 60 74 67 88
44 36 50 44 46 46 46 52 47 32 32 23 54 67 77 77 90 96 90 87 86 78 60 57 81 67 87 80 86 92 98 75 80 76 70 87 97 95 88 84 90 95 74 82 92 96 76
49 35 51 49 49 47 48 53 46 27 25 24 78 80 84 76 95 97 93 95 83 65 54 57 62 58 64 74 74 84 89 71 70 77 78 80 77 98 94 94 87 98 99 86 73 86 91
39 40 51 54 49 48 50 52 48 21 23 34 82 95 92 81 100 98 93 84 60 55 53 54 52 53 55 54 52 56 69 59 51 58 66 66 84 94 88 74 74 75 86 70 91 86 80
37 48 54 52 49 49 50 49 49 21 23 52 80 90 98 96 97 73 72 65 64 58 51 48 52 50 49 51 56 60 63 54 50 52 63 63 85 99 95 83 82 97 89 76 79 77 86
43 52 57 51 52 52 53 51 49 26 28 71 83 95 97 100 93 78 69 69 66 58 56 45 46 45 50 51 47 62 65 55 52 49 47 51 78 76 84 69 81 93 96 86 93 97 74
52 57 54 52 56 57 58 53 50 26 24 63 75 93 89 97 83 75 68 55 65 70 59 48 49 49 53 56 54 60 65 64 54 51 52 56 78 74 67 66 71 74 80 91 97 77 78
55 60 53 60 59 62 59 56 54 33 18 16 78 90 89 94 87 79 68 62 60 62 62 60 56 53 50 51 53 59 65 66 62 58 56 67 90 80 78 63 62 73 70 83 89 87 86
61 55 57 64 60 65 61 65 64 54 22 22 62 90 91 82 84 77 82 71 78 64 58 55 54 62 63 60 53 47 46 47 52 64 67 71 86 89 87 80 72 78 72 70 72 70 77
62 54 63 66 63 63 68 67 66 63 60 45 46 75 83 88 70 71 66 70 75 77 78 66 64 58 56 53 51 46 45 49 54 56 58 80 77 87 94 80 94 59 48 59 60 52 62
59 56 67 67 61 61 75 81 77 72 70 69 71 59 70 79 74 56 58 70 72 76 72 67 70 64 61 54 66 66 69 60 56 57 59 66 60 90 94 95 67 50 60 64 70 64 53
57 63 66 65 59 63 72 72 83 74 73 70 69 76 75 80 73 66 61 68 92 93 88 76 76 69 62 78 71 78 86 68 66 59 61 57 55 74 85 78 85 53 55 49 52 82 57
54 67 68 64 64 67 71 74 81 80 73 69 76 82 78 86 73 73 68 70 66 70 85 81 82 79 73 86 79 80 77 55 74 68 74 75 74 84 79 88 79 52 47 52 83 68 64
63 66 67 71 74 72 73 82 89 78 70 70 82 82 79 81 73 76 71 70 73 62 86 88 89 85 90 88 86 82 69 63 68 59 74 80 81 83 79 86 89 48 61 71 62 62 63
61 64 70 75 79 76 74 81 82 81 80 76 97 99 98 96 76 76 72 74 75 68 80 60 97 91 95 97 93 93 81 77 74 79 67 76 66 70 72 71 48 48 55 52 58 59 60

GFSGBSN_850_rhum_057.txt.gz
RH
29 35 59 61 69 65 96 97 99 94 94 97 99 82 64 87 73 70 68 66 60 64 61 59 54 60 88 90 77 78 98 95 92 93 95 91 79 74 74 84 73 73 58 66 60 71 61
30 32 32 43 52 57 89 98 98 97 97 99 98 82 77 65 76 70 68 64 51 53 56 60 59 66 89 90 73 68 89 80 77 84 80 93 70 66 68 74 78 62 62 65 73 72 63
30 30 30 35 44 60 78 90 93 99 99 99 98 91 79 55 54 67 69 55 42 60 61 61 78 73 85 62 66 84 89 88 66 67 73 98 61 71 70 72 67 66 78 78 85 80 83
30 31 30 35 52 50 59 75 70 99 99 100 99 98 63 44 45 44 50 57 52 52 51 52 82 70 67 72 82 85 91 100 89 74 80 76 74 67 62 62 62 68 75 88 61 65 62
34 30 30 35 42 42 76 66 51 69 94 96 100 98 78 48 51 60 57 58 71 55 58 64 71 75 62 82 88 88 93 94 92 85 99 71 67 75 66 76 78 69 89 77 64 51 50
42 30 30 34 39 39 59 62 71 85 67 83 94 87 58 57 51 54 64 61 77 74 79 81 83 79 60 84 92 99 82 86 97 98 94 86 71 82 84 79 89 87 82 73 62 56 53
52 31 29 34 38 40 38 36 36 67 90 58 53 66 60 48 49 48 58 62 67 65 69 65 70 74 62 76 80 79 69 86 95 86 93 87 89 92 85 68 57 65 70 67 54 47 53
63 34 29 32 37 41 42 43 40 68 49 56 71 72 56 41 46 50 48 52 72 81 76 82 86 84 79 73 81 68 72 79 98 94 83 92 88 75 66 57 57 62 70 70 51 44 52
69 39 29 30 34 41 44 46 38 40 41 38 37 47 55 48 43 46 47 52 69 86 90 82 85 85 89 79 91 81 81 94 87 93 84 77 73 70 67 67 64 59 72 65 56 49 47
71 42 29 32 34 41 42 44 39 40 43 42 37 39 58 64 60 56 56 48 65 80 92 95 82 82 87 83 93 77 87 99 94 95 69 75 70 76 74 72 65 68 50 54 52 60 74
69 43 30 36 36 44 43 43 41 44 46 43 40 34 59 68 58 63 73 54 59 93 87 79 90 77 84 92 91 88 95 98 91 94 89 96 80 83 83 72 54 61 48 50 56 68 62
72 42 32 40 39 44 45 44 44 48 44 42 35 38 62 75 80 71 86 60 83 81 87 94 90 87 78 82 92 89 98 96 94 79 83 91 86 81 83 78 55 58 61 68 75 74 90
75 41 36 40 48 43 47 46 44 44 38 39 27 50 65 78 85 91 94 85 86 88 65 79 96 93 83 88 82 86 89 94 97 98 99 93 93 84 83 78 68 57 65 95 93 95 91
75 38 44 42 48 48 49 44 44 40 31 34 27 56 72 82 92 90 86 81 86 78 81 68 83 82 86 76 83 76 84 97 86 79 93 97 97 88 86 81 78 73 63 88 86 96 82
68 45 43 50 50 52 47 41 43 36 25 29 34 59 79 84 90 93 89 89 81 87 77 84 82 88 89 82 87 87 90 86 82 77 81 94 96 86 81 86 84 87 91 62 79 72 90
58 53 40 51 54 51 44 42 40 35 24 24 52 71 85 83 93 93 89 85 84 73 69 62 80 75 93 89 87 83 90 74 83 78 65 76 96 81 92 79 84 91 80 90 93 92 84
61 50 41 53 56 49 42 42 41 37 24 45 77 82 91 81 99 96 92 96 80 68 66 60 66 64 76 82 84 86 81 76 73 82 70 74 76 89 91 95 83 98 99 94 76 83 81
62 42 48 56 53 47 44 44 45 38 26 57 85 98 97 90 99 97 94 82 64 57 56 57 55 55 66 76 81 72 88 69 68 72 89 70 82 92 88 77 76 74 84 90 93 89 88
59 45 54 58 51 46 45 44 46 35 28 64 77 94 99 96 98 92 74 68 65 60 56 50 53 51 51 53 64 67 67 56 59 62 69 69 89 97 96 93 86 97 86 80 82 84 88
52 51 58 55 49 48 48 43 47 28 31 78 86 96 100 99 100 90 73 70 62 60 58 48 49 47 51 53 56 70 67 58 54 54 57 58 80 77 84 70 84 96 85 83 88 99 80
54 56 59 52 49 51 48 44 45 30 25 78 80 96 95 98 93 85 72 65 64 68 59 52 51 51 54 56 58 64 68 65 56 52 60 59 81 81 68 64 77 84 86 85 94 82 89
57 59 56 51 50 51 46 47 45 37 19 27 59 79 86 91 90 85 76 68 63 62 61 61 58 55 53 53 55 64 69 65 58 59 60 67 89 79 81 71 69 76 74 87 82 78 76
57 60 54 53 53 51 51 49 48 46 25 20 52 80 90 84 79 82 83 76 79 77 60 58 56 66 56 55 54 51 51 51 54 66 71 71 86 87 83 84 75 80 72 75 83 84 80
62 58 52 56 53 54 57 53 56 54 57 52 37 51 74 82 70 71 60 52 73 73 84 70 68 64 57 56 52 47 48 56 59 61 63 80 78 85 91 80 89 56 48 57 67 57 75
63 57 54 58 54 57 55 56 64 64 64 65 62 54 46 70 77 59 61 68 75 76 78 74 76 75 68 54 67 67 74 60 57 61 66 66 78 93 93 98 70 46 61 67 68 62 57
62 55 59 59 58 58 59 62 67 72 70 66 67 73 67 57 71 69 66 72 92 92 89 80 82 74 70 81 73 78 87 71 72 67 60 60 57 74 92 83 85 54 54 52 55 82 55
62 56 64 64 64 62 63 66 75 69 70 71 76 74 80 78 76 73 72 70 66 67 77 78 85 82 76 80 79 84 85 61 73 63 84 79 79 81 82 87 80 56 50 53 84 65 65
60 63 68 69 69 66 64 69 69 69 72 73 86 82 95 87 74 77 73 71 74 66 83 79 91 95 91 84 80 79 78 66 70 60 73 78 86 86 78 89 91 47 59 69 60 60 62
58 68 70 72 73 71 66 74 75 77 80 86 98 98 92 97 88 84 77 74 76 78 81 68 97 99 99 98 94 95 86 82 75 79 70 76 70 75 76 75 48 43 56 52 57 61 59

GFSGBSN_850_rhum_060.txt.gz
RH
36 31 30 44 53 50 61 74 80 94 98 91 95 95 94 69 66 58 65 62 55 55 62 70 73 63 77 94 81 74 88 100 98 82 98 100 86 71 83 87 82 76 72 64 59 55 60
47 32 30 34 48 67 43 44 54 98 98 95 95 97 81 63 51 57 63 64 49 52 61 68 77 67 79 92 75 70 76 89 89 88 93 99 83 69 71 79 78 69 65 64 75 69 72
57 35 30 31 49 42 53 50 65 86 99 97 97 99 93 84 44 47 56 50 42 52 63 64 71 75 79 63 78 67 71 80 77 85 84 97 76 74 73 86 72 74 90 83 76 70 78
63 40 32 30 40 40 43 69 60 80 96 94 98 98 98 71 54 47 42 51 54 55 56 57 81 75 64 71 80 71 77 76 72 69 82 85 81 73 71 73 70 82 84 95 84 83 85
68 49 36 31 35 41 56 49 46 84 99 98 85 97 100 93 56 55 55 49 60 53 59 66 79 90 71 91 89 91 98 94 74 81 71 92 91 74 67 81 84 78 95 88 94 80 93
69 59 42 33 31 39 53 52 47 84 98 100 99 85 96 81 86 53 54 53 63 62 73 80 85 87 62 79 91 99 92 100 99 87 79 96 87 89 84 83 92 89 87 79 77 79 82
66 68 47 34 30 36 43 50 49 77 96 99 92 68 88 67 58 48 52 50 55 57 69 75 70 75 71 82 88 90 92 98 94 84 98 90 90 92 88 70 66 75 71 77 59 54 59
76 72 54 36 31 36 46 46 52 52 52 93 92 48 57 67 46 51 51 56 71 68 88 83 88 84 84 89 86 77 85 82 98 97 90 93 86 78 69 60 62 67 76 71 54 51 55
80 72 59 37 32 39 45 45 51 46 50 90 86 49 47 60 46 51 51 57 63 73 90 79 84 83 87 89 93 90 81 82 90 96 92 78 77 70 66 64 66 64 76 71 65 53 48
81 74 63 36 37 40 46 47 47 47 48 61 55 42 46 61 63 56 64 54 55 68 92 83 84 80 84 84 90 85 84 84 89 90 74 70 74 76 74 70 62 69 57 57 61 67 81
84 78 65 36 40 44 46 49 46 44 43 40 41 34 53 66 72 66 74 62 62 83 90 68 86 78 87 88 81 83 81 87 85 93 90 96 87 85 82 69 56 63 50 54 56 71 64
90 82 65 38 42 48 50 50 42 41 37 31 36 33 59 73 81 68 73 62 94 80 94 93 86 88 78 82 88 91 97 97 83 87 84 93 86 77 79 74 56 62 63 68 74 75 92
90 84 65 43 44 50 53 48 39 40 29 28 32 49 65 78 88 94 94 87 85 83 62 89 89 70 78 84 88 93 96 96 99 99 99 87 91 85 80 72 66 56 63 95 93 95 92
85 82 60 48 46 52 53 45 39 40 26 30 30 61 76 83 90 95 92 81 85 77 83 66 79 75 86 82 84 88 98 100 86 82 94 97 99 91 87 76 79 67 61 88 87 95 85
83 75 55 51 48 55 51 43 39 39 27 29 37 71 88 85 89 92 90 87 77 85 76 82 83 88 84 83 82 83 98 93 77 71 81 95 98 84 86 88 77 88 84 59 79 76 91
76 70 57 47 51 56 48 43 40 37 28 34 66 77 94 87 95 95 90 87 85 70 70 70 84 76 90 71 87 89 88 74 83 73 63 78 97 81 87 78 88 80 75 84 90 93 89
71 66 59 45 56 54 46 42 39 35 29 38 75 87 97 86 99 98 94 96 79 68 67 61 68 68 78 86 84 81 84 77 76 80 70 72 74 94 82 91 87 95 97 91 79 85 88
72 64 56 49 57 51 45 42 38 35 29 46 83 99 98 92 96 86 97 83 68 60 60 57 56 58 76 81 88 88 89 83 74 77 78 67 79 95 83 81 72 79 77 83 87 87 92
74 67 50 55 56 48 45 41 39 34 28 48 77 95 99 96 96 97 78 72 68 62 60 54 55 53 53 60 66 69 71 60 72 70 77 73 89 98 97 90 85 94 76 78 87 89 94
73 67 51 58 52 46 44 40 41 34 23 64 83 95 99 96 95 96 81 71 63 62 59 52 50 50 52 54 61 71 69 59 65 64 67 61 84 76 86 69 84 93 84 74 80 92 80
72 57 56 57 48 46 41 44 40 34 19 61 78 92 94 98 96 89 80 71 65 67 59 55 52 52 55 60 62 70 70 65 59 63 73 71 87 83 70 63 82 87 86 89 96 87 95
70 55 58 54 48 44 41 44 41 35 19 23 50 76 87 92 89 85 77 74 74 71 62 62 58 57 54 54 56 67 72 68 73 60 71 69 87 78 83 75 80 84 82 88 86 86 87
62 56 59 53 52 44 47 46 42 42 31 21 41 70 87 85 78 84 78 70 80 77 67 66 59 68 59 54 54 50 52 53 56 69 75 74 88 87 81 81 75 84 76 78 82 83 77
58 59 56 55 51 45 50 52 46 43 42 44 43 46 76 84 72 76 57 54 69 72 80 74 74 66 68 62 53 52 53 59 59 64 64 80 78 84 88 79 78 52 51 58 70 64 80
58 61 55 57 49 48 52 54 54 51 49 48 54 56 49 66 75 57 61 73 77 76 81 79 87 83 75 56 66 67 74 61 62 63 69 66 79 94 89 97 67 45 63 69 68 62 59
60 61 55 56 50 50 53 54 61 55 54 50 54 65 69 54 66 75 69 75 90 90 82 81 85 77 72 77 68 79 83 72 73 70 61 64 60 71 91 85 82 52 45 55 57 78 53
63 59 57 56 52 54 55 58 59 58 56 56 64 66 73 74 80 74 80 76 68 71 78 82 83 83 76 79 84 89 84 64 75 68 79 80 82 96 87 92 78 58 52 53 80 63 59
64 58 60 56 57 58 59 61 61 61 62 63 76 83 74 88 86 82 79 79 77 72 85 69 88 96 93 83 79 80 82 70 71 61 74 84 90 95 83 90 91 47 59 69 56 58 63
64 58 61 58 62 61 61 67 70 70 73 75 87 99 89 90 85 80 74 68 71 83 85 69 90 99 100 99 94 93 88 84 77 75 69 77 73 77 78 77 50 43 53 46 53 59 59

GFSGBSN_850_rhum_063.txt.gz
RH
64 51 36 32 34 43 57 83 73 79 96 94 86 88 94 84 48 65 69 63 68 55 57 58 58 56 70 93 78 74 88 96 90 93 99 99 93 75 89 76 84 78 74 57 58 60 61
66 60 43 35 32 42 45 74 82 92 98 91 97 92 94 90 60 40 59 60 45 46 61 56 54 64 71 81 67 69 68 90 90 88 96 100 89 69 75 81 76 73 77 74 65 68 67
68 68 54 41 32 36 50 72 61 94 99 99 86 90 97 92 63 48 41 45 49 48 53 54 69 82 67 59 70 73 56 74 85 83 77 92 81 73 76 89 73 75 80 77 77 76 75
92 67 64 50 36 33 42 73 65 93 99 93 84 68 86 94 91 54 50 50 52 56 52 54 69 67 54 57 77 75 65 58 76 84 73 81 90 77 76 75 72 83 82 88 80 76 78
98 71 63 62 40 33 36 52 65 86 99 98 88 89 59 96 93 76 49 52 55 66 66 73 76 82 74 82 93 89 81 68 74 78 84 85 93 76 75 82 85 82 89 89 93 74 86
98 97 65 68 44 33 39 44 66 83 88 99 92 90 56 74 72 58 47 47 52 56 68 74 82 82 70 96 98 94 99 88 85 91 98 98 93 89 83 84 82 94 90 78 83 86 86
100 98 69 69 49 33 41 47 57 79 95 99 95 86 45 72 53 50 49 51 50 56 70 81 83 76 76 89 99 99 100 91 86 87 88 94 88 88 84 62 67 66 80 75 64 80 81
98 95 72 69 54 34 42 47 52 78 90 98 90 69 41 61 56 48 50 59 66 69 83 79 87 89 89 98 87 89 86 92 84 89 91 96 88 78 66 61 67 67 76 75 58 69 71
100 97 76 72 56 37 43 48 51 75 71 94 85 46 37 64 60 48 48 55 63 64 85 72 83 83 91 86 97 93 87 85 75 94 96 91 78 72 68 67 66 69 72 75 69 64 56
98 89 83 76 58 40 45 49 52 61 64 77 46 41 33 63 68 61 57 51 57 70 88 69 82 82 87 86 90 88 89 89 89 95 94 85 74 74 75 72 62 71 60 60 64 67 80
98 88 90 79 61 42 48 52 51 44 48 38 32 36 37 65 70 66 70 59 57 82 91 66 80 76 85 83 82 81 83 88 95 94 92 97 85 82 76 67 55 65 59 58 63 71 66
92 88 86 80 60 45 50 54 47 42 43 29 33 33 57 67 77 74 74 63 85 80 93 89 82 81 77 87 88 89 97 82 84 89 83 92 84 79 78 72 56 63 63 67 72 70 79
97 91 82 78 56 48 51 55 44 40 40 28 32 52 67 78 88 86 92 88 84 83 63 90 88 71 78 87 86 87 91 92 92 100 100 89 92 84 82 73 62 57 68 89 89 90 83
99 94 82 75 53 49 54 53 43 40 39 30 40 67 75 84 91 94 88 80 84 76 85 70 74 75 85 83 90 91 97 93 88 91 96 95 99 92 85 74 79 64 64 83 88 92 80
100 98 79 71 56 48 55 50 41 40 38 38 56 78 84 89 85 91 87 88 78 85 74 77 86 92 80 85 82 95 98 92 79 72 78 94 98 85 87 88 75 80 77 58 78 78 81
100 97 72 66 57 49 55 47 40 40 35 53 69 84 93 92 85 100 89 87 84 67 74 75 81 75 81 79 85 97 98 76 82 70 64 77 95 84 87 81 83 74 68 81 88 93 86
99 89 70 62 53 54 54 44 40 40 30 64 82 91 97 91 95 96 97 96 78 68 68 64 72 71 79 84 84 84 86 83 76 76 65 70 74 97 79 88 90 90 92 87 74 77 83
95 87 70 63 50 56 51 41 39 40 29 72 87 96 96 97 99 92 99 83 70 64 68 59 57 58 79 78 87 89 87 82 75 70 72 68 81 93 86 83 72 74 80 80 86 86 89
94 88 70 65 52 57 45 40 40 37 28 66 85 94 97 99 93 94 82 77 71 63 62 56 56 54 54 72 71 74 75 62 77 67 76 71 87 96 96 76 78 81 70 76 88 87 96
98 88 70 61 56 54 41 38 40 34 24 68 83 95 99 99 91 91 88 72 64 64 60 53 52 52 53 55 64 73 70 66 72 72 64 62 82 75 82 68 83 97 71 62 70 92 73
100 85 70 56 57 48 38 38 37 31 23 62 74 89 90 99 96 90 85 75 68 68 60 56 53 54 57 64 64 75 72 66 63 75 75 76 87 84 69 64 84 84 84 71 80 77 84
99 75 65 56 55 44 38 38 36 34 19 35 51 81 91 93 90 90 79 82 78 72 65 64 58 60 55 56 57 69 74 71 72 64 76 69 89 78 81 74 78 87 84 90 83 74 73
95 72 59 55 51 42 40 38 38 36 30 24 39 49 72 86 80 86 76 69 77 76 72 68 60 69 62 60 61 55 57 56 61 72 79 76 85 88 85 82 71 70 70 79 83 84 81
87 67 55 55 48 40 44 40 39 39 38 37 27 41 72 85 76 80 57 56 70 71 78 73 76 65 74 67 54 51 55 63 62 70 66 82 78 81 86 72 85 54 51 61 71 65 75
86 60 57 54 44 40 46 44 42 40 39 42 41 37 32 80 70 56 60 75 78 76 81 81 93 84 80 57 68 70 73 62 64 65 70 67 79 93 90 92 66 50 66 67 67 58 60
81 59 58 52 43 44 46 50 47 45 44 46 44 47 48 50 73 73 67 73 86 79 76 80 83 84 77 75 72 86 84 74 76 75 66 64 61 71 89 86 80 46 47 57 55 78 53
73 62 58 49 44 47 48 50 49 48 49 51 47 49 57 72 83 76 78 77 71 72 75 84 64 86 81 81 94 90 85 67 81 81 90 99 96 96 89 91 78 56 50 57 78 61 54
70 62 58 47 48 49 50 50 49 52 54 54 56 56 55 75 86 83 78 74 75 71 76 66 92 98 98 85 83 86 83 75 74 62 72 86 93 96 94 96 88 50 61 73 54 57 63
68 62 56 49 53 52 52 51 54 61 62 61 58 64 65 70 88 79 72 72 73 81 82 71 96 99 99 100 96 91 88 83 76 74 72 78 74 82 78 77 51 46 54 50 54 61 59

GFSGBSN_850_rhum_066.txt.gz
RH
72 65 66 60 49 36 40 69 83 69 85 98 97 95 91 91 78 37 46 53 52 46 52 55 52 48 50 69 69 70 74 86 83 90 99 98 85 56 49 62 67 87 55 49 46 55 48
86 83 64 63 61 40 36 56 78 78 91 98 99 91 92 95 86 43 30 48 44 46 47 63 76 52 65 50 52 60 65 86 92 90 98 94 74 59 46 52 63 64 75 51 54 56 54
97 93 72 62 64 48 35 40 68 78 99 98 98 100 84 84 91 60 45 45 48 55 56 78 87 76 78 51 61 64 62 71 98 85 92 97 79 65 58 56 65 56 63 85 61 56 56
94 88 96 66 68 57 38 39 54 75 99 98 99 99 100 78 91 84 45 47 46 58 59 63 65 73 62 52 66 72 68 60 87 93 93 95 96 76 59 64 60 62 57 74 60 58 60
98 95 99 86 67 64 42 40 48 59 88 97 99 99 100 84 74 64 45 45 46 58 69 71 74 82 73 76 94 90 80 76 72 87 90 84 91 71 71 57 58 57 49 50 70 56 59
90 99 100 90 67 66 42 42 48 50 81 98 98 98 100 90 68 51 44 47 45 54 67 78 70 85 78 99 95 94 90 74 83 86 98 92 90 68 53 52 56 50 43 45 52 62 56
94 99 99 91 70 67 44 42 48 51 61 92 98 97 98 81 72 49 48 50 52 64 72 76 77 82 78 97 98 94 97 85 83 88 87 94 93 70 50 43 32 36 46 49 44 53 59
93 100 99 88 74 70 47 43 48 52 60 86 83 85 88 72 81 48 50 58 60 67 68 75 76 76 84 99 99 99 90 74 84 96 84 95 86 48 50 49 47 46 51 49 50 56 60
97 98 100 88 80 73 50 44 49 53 47 70 60 76 74 70 84 49 52 54 60 58 75 73 83 87 91 91 92 99 93 72 75 91 94 97 71 56 55 52 52 46 47 52 46 64 55
100 99 99 88 81 75 52 47 51 53 41 43 39 40 60 87 80 56 56 55 55 63 86 66 72 91 86 82 94 90 86 86 72 85 94 85 57 61 54 55 42 63 48 50 55 51 50
98 100 100 89 75 76 53 49 53 51 40 42 32 36 48 94 73 63 65 58 55 78 77 66 75 74 80 76 85 93 76 76 73 85 92 95 66 63 65 53 43 55 49 48 51 42 50
100 100 100 93 76 72 54 49 55 49 39 37 32 39 60 82 77 73 68 60 78 88 84 86 70 70 79 73 76 89 86 79 92 74 85 79 73 62 56 55 46 48 47 48 50 48 64
100 100 100 98 80 68 55 49 55 46 38 33 33 59 75 86 89 80 85 75 94 83 64 92 69 61 71 78 78 76 76 82 89 100 100 91 83 74 69 58 50 46 46 68 68 79 56
99 100 100 95 82 65 56 51 54 43 38 32 40 75 85 87 88 89 86 74 83 73 72 68 64 66 83 87 84 91 85 82 76 89 98 97 98 77 81 56 54 49 42 53 64 61 47
98 99 100 98 79 63 53 53 52 41 38 32 48 85 94 88 83 90 86 88 86 82 61 65 70 67 71 76 90 93 96 81 66 60 73 82 93 79 80 70 59 58 64 43 56 55 56
98 100 100 99 76 62 52 54 47 40 37 34 59 93 96 90 85 96 84 84 81 60 68 62 68 63 59 67 85 96 96 73 71 59 54 63 97 84 82 69 65 60 45 66 72 80 60
100 100 100 98 73 62 52 54 42 38 33 45 74 98 99 95 96 98 96 94 69 65 68 62 60 62 63 62 72 77 96 83 67 64 52 51 61 97 74 79 62 64 67 61 52 56 58
100 100 100 93 71 62 53 51 40 37 31 58 86 95 95 95 96 92 86 75 67 63 71 56 52 53 62 65 67 70 83 74 69 56 56 56 61 87 89 71 67 51 53 52 60 68 60
100 100 100 90 68 61 54 45 36 34 30 69 98 97 92 94 84 84 75 70 69 61 57 54 53 51 49 63 68 64 67 64 76 63 57 54 66 88 92 72 61 66 60 54 56 68 83
100 100 99 87 67 57 53 39 33 32 26 58 91 93 99 98 88 82 79 66 63 66 57 50 49 49 49 54 54 66 64 68 74 66 63 55 61 64 60 58 52 69 59 53 59 88 63
99 100 98 90 66 54 49 35 32 31 25 62 77 79 82 92 83 76 77 70 62 65 58 54 51 50 51 61 58 63 63 66 66 76 68 59 84 79 56 61 70 72 62 56 72 67 76
97 100 99 82 62 53 43 32 31 32 26 59 64 77 89 83 85 78 73 68 66 66 59 59 52 51 49 52 51 59 60 60 64 65 75 65 87 71 76 64 65 73 63 61 57 56 59
99 100 99 78 57 51 38 31 31 34 26 26 36 51 70 81 72 72 63 67 71 69 69 66 57 56 57 58 62 53 54 52 51 62 70 79 78 79 79 65 62 64 52 57 59 57 57
100 100 97 81 57 47 35 32 34 34 34 29 28 36 63 60 63 67 55 52 66 68 71 71 76 60 83 71 58 57 56 57 55 60 55 67 70 72 79 72 74 46 39 46 48 45 47
100 100 95 70 54 42 34 34 36 35 35 35 30 24 44 57 55 53 55 64 71 74 74 87 94 86 82 67 55 58 60 58 60 58 56 54 60 76 76 68 48 44 58 53 51 52 46
100 100 82 64 51 39 34 35 36 36 36 37 38 38 28 46 52 62 56 66 60 65 70 75 82 84 77 64 66 73 66 57 67 71 60 52 49 55 68 72 60 46 46 55 51 57 48
100 97 79 64 47 38 35 37 37 38 38 40 40 42 46 66 86 72 51 52 69 59 62 75 66 90 84 70 94 72 61 55 62 68 82 84 78 76 64 63 50 39 40 54 66 65 54
100 95 77 61 44 40 38 39 40 41 40 41 44 45 47 85 94 77 72 75 72 66 61 67 87 96 98 86 69 66 60 54 56 52 62 64 73 75 72 77 72 47 58 63 55 54 62
100 88 77 58 45 43 41 41 42 40 41 45 48 52 54 66 92 73 72 71 71 72 75 75 95 99 98 100 81 67 63 59 56 58 58 59 51 55 56 50 45 52 51 56 66 67 65

GFSGBSN_850_rhum_069.txt.gz
RH
83 91 82 70 61 62 50 40 40 46 62 78 96 96 98 85 93 88 42 38 53 42 38 49 62 52 72 56 46 77 67 75 84 72 97 98 84 65 47 56 85 64 45 43 69 45 38
99 99 99 86 73 63 56 43 40 48 76 85 98 98 99 97 91 90 57 44 41 51 54 62 80 75 80 49 60 77 68 77 81 83 95 99 82 53 37 44 66 68 71 55 82 49 40
100 93 98 91 93 65 61 47 40 47 71 79 98 97 98 100 83 93 91 52 47 49 54 56 54 86 81 54 64 85 70 83 87 90 99 100 98 71 39 41 55 63 68 65 61 81 39
100 96 98 99 98 80 64 53 41 47 66 84 97 97 98 99 91 97 80 80 47 50 58 62 68 88 67 66 70 79 84 88 88 69 92 87 99 82 42 44 56 77 72 89 74 48 45
100 98 99 99 96 88 66 60 42 48 59 86 96 96 97 98 94 92 53 49 44 49 61 71 94 86 59 70 82 96 80 78 84 79 87 92 93 59 55 54 61 66 88 86 70 70 52
100 91 99 99 100 89 69 63 46 47 54 60 88 98 98 98 82 79 47 49 45 48 79 94 87 90 81 81 91 96 96 91 92 97 96 100 83 63 50 49 58 47 54 53 51 70 57
100 96 99 99 100 90 74 67 49 48 52 69 87 98 89 91 52 94 48 78 71 69 75 65 65 68 74 98 98 98 95 90 93 95 95 97 96 78 43 34 25 28 32 32 40 43 51
99 100 100 95 100 92 80 70 52 48 53 60 75 86 74 54 51 94 50 76 73 69 61 67 72 77 93 99 96 98 98 65 72 95 89 92 86 45 32 32 35 26 33 31 35 41 44
86 98 100 99 100 92 82 70 52 49 53 51 56 69 42 36 69 68 89 71 59 54 67 59 76 79 90 92 75 86 87 69 78 96 92 96 68 44 40 42 39 32 34 35 42 44 44
84 100 98 100 100 92 79 69 53 50 53 45 45 38 38 37 80 89 78 53 50 59 84 61 64 75 81 73 77 92 86 82 79 80 72 89 56 52 43 42 33 41 30 34 42 51 50
88 100 100 99 100 96 77 66 54 50 52 40 40 34 35 54 98 84 77 57 52 87 81 62 64 71 76 83 86 75 77 59 59 73 86 91 63 52 48 40 33 44 42 42 46 44 33
84 96 100 100 100 98 78 63 54 51 49 38 34 38 50 66 89 85 68 59 87 93 87 79 60 61 59 60 71 77 70 75 66 62 70 72 70 55 46 44 40 42 43 43 41 36 58
85 89 100 100 100 99 80 60 53 52 45 37 35 57 69 78 98 75 77 88 94 94 61 77 58 58 60 64 70 69 68 65 62 97 100 80 79 62 58 53 45 38 42 61 60 69 54
93 84 100 100 100 100 80 59 51 53 41 36 41 74 80 79 83 82 91 70 95 70 67 55 53 66 92 66 69 72 63 70 69 93 97 100 99 68 66 44 47 47 34 47 54 50 41
98 84 96 100 100 99 82 59 50 52 38 34 54 86 90 82 80 80 81 90 86 67 50 54 58 90 74 74 70 86 74 57 57 76 77 73 93 75 76 61 54 46 58 40 48 38 45
100 87 95 100 100 100 83 59 51 49 37 33 85 100 100 84 79 95 83 82 78 53 53 47 53 57 73 62 70 85 70 57 54 60 46 51 85 74 83 65 54 52 36 56 61 72 42
100 94 98 100 100 100 82 58 51 44 36 40 99 89 98 87 94 99 95 85 62 59 58 56 47 48 47 60 67 68 78 72 51 57 46 47 54 76 67 66 56 58 58 49 45 48 54
100 82 99 100 100 100 76 56 51 39 35 58 92 86 88 91 97 78 74 64 62 56 58 52 47 46 44 49 60 57 83 71 54 49 52 45 67 89 66 57 55 58 48 45 54 59 45
100 94 94 100 100 99 80 55 48 34 34 65 78 94 92 92 82 76 65 61 60 55 49 48 50 46 45 49 60 55 73 61 64 52 49 46 61 92 97 65 54 62 46 48 43 54 81
100 97 98 100 100 98 70 53 42 32 33 67 80 91 98 96 82 66 67 56 60 61 48 45 45 44 46 52 46 59 64 66 65 56 59 49 50 59 59 53 48 62 49 45 53 95 59
100 98 99 100 100 97 64 51 36 31 30 62 76 63 67 91 73 65 64 55 53 60 52 47 46 47 47 52 51 56 58 70 66 69 57 52 75 75 49 56 58 62 54 50 64 57 68
100 100 99 100 100 93 60 48 32 31 28 60 60 60 76 57 64 62 66 56 52 55 48 50 46 43 44 49 48 54 53 58 60 66 61 56 84 68 78 57 58 66 55 50 48 46 48
98 100 100 100 99 84 57 42 31 31 28 67 48 54 57 66 61 62 51 48 51 54 60 52 46 44 48 53 52 47 46 44 44 56 61 65 70 78 83 56 55 61 48 47 50 46 46
100 100 100 100 99 75 56 36 30 31 28 29 28 54 47 46 50 54 53 52 57 59 57 63 58 50 76 73 54 47 46 47 47 51 51 64 69 71 83 65 78 45 34 36 38 38 35
96 99 99 100 100 82 61 34 34 32 32 27 29 32 44 39 42 54 50 50 59 64 64 69 81 77 81 60 50 56 56 55 52 49 50 47 58 73 79 65 41 37 51 47 47 46 42
99 97 100 100 99 85 55 34 34 34 35 38 35 25 35 40 47 49 53 54 54 54 64 69 76 83 77 54 59 63 65 51 63 63 51 48 47 57 58 64 54 43 43 43 43 56 45
100 100 100 100 94 80 46 36 39 35 36 39 33 33 49 53 73 56 47 52 57 52 51 66 69 83 85 64 67 56 56 43 55 56 70 70 63 69 68 63 44 33 35 46 57 68 48
100 100 100 99 89 70 40 42 43 37 38 41 39 41 55 67 90 81 75 56 56 52 51 62 75 82 93 81 67 58 48 45 46 44 56 63 66 69 62 81 69 44 50 56 54 50 56
100 100 100 96 84 64 48 44 41 39 40 40 41 48 52 71 93 79 71 67 66 64 58 77 88 99 98 100 74 56 50 47 41 51 46 52 48 57 46 62 42 48 46 59 63 59 59

GFSGBSN_850_rhum_072.txt.gz
RH
100 100 98 97 96 95 73 64 57 42 49 60 90 94 98 99 90 81 94 70 40 54 89 71 82 78 46 62 53 72 76 67 69 73 74 91 86 84 81 59 75 81 69 64 67 47 42
97 99 100 99 97 100 94 66 61 43 49 56 90 93 98 97 98 87 89 93 53 50 77 81 64 78 85 62 54 74 77 89 85 77 73 99 80 76 66 47 72 81 90 64 75 63 56
82 93 100 100 92 97 98 75 64 48 49 54 83 93 96 97 98 99 92 89 91 46 48 87 61 80 82 66 59 71 75 82 89 74 87 100 100 97 64 47 69 76 93 93 82 77 79
86 95 100 100 89 92 99 81 66 53 47 55 71 84 94 96 99 100 92 74 49 44 48 62 69 80 75 62 51 73 77 78 83 85 80 98 89 93 93 43 64 85 90 92 91 78 66
83 95 97 100 89 97 100 86 71 58 47 54 52 71 89 96 98 97 65 46 44 45 54 67 86 94 66 69 82 88 83 78 79 88 81 91 89 90 60 66 73 90 98 86 72 76 81
78 86 98 100 93 96 99 94 75 62 47 51 56 66 66 94 96 79 55 46 46 42 64 88 88 84 81 90 94 92 81 88 90 86 89 84 94 90 69 62 84 97 77 81 69 70 83
74 88 90 98 100 100 97 97 77 64 49 50 54 46 49 86 80 57 52 61 74 78 74 64 60 64 81 99 97 87 83 82 92 92 96 94 97 94 67 51 39 81 70 71 63 51 67
87 83 95 97 98 100 99 98 76 64 51 50 53 43 37 58 57 74 50 85 74 68 68 60 65 78 85 80 89 85 92 74 87 98 91 96 90 58 42 41 36 33 50 62 65 54 51
91 93 94 97 100 100 98 100 76 63 52 50 52 39 33 42 64 74 73 73 61 56 75 59 71 77 75 78 70 82 93 81 82 88 96 93 82 50 53 40 40 39 39 68 72 75 58
100 98 90 96 99 100 100 100 79 60 52 50 47 35 33 40 94 94 80 73 48 56 98 63 62 72 77 72 78 88 82 80 86 92 80 87 67 55 70 54 35 43 30 37 47 60 70
99 99 99 93 93 98 100 100 83 58 51 50 42 32 36 44 98 86 84 57 50 85 94 58 59 64 73 67 75 82 76 70 75 78 71 91 74 68 50 39 36 50 42 42 50 54 46
99 100 100 99 94 96 100 100 85 57 50 49 37 32 46 69 86 97 67 57 88 96 89 79 56 60 58 58 64 70 67 62 60 63 84 80 67 80 87 46 41 43 47 47 47 50 80
92 98 100 100 98 95 100 100 87 57 50 48 34 42 64 93 95 85 70 86 98 93 61 74 58 51 53 59 63 63 60 68 73 92 99 84 80 66 64 55 44 44 53 85 85 88 78
99 96 99 100 100 93 100 100 89 57 50 43 33 63 76 99 82 81 94 83 88 70 65 47 51 62 69 55 59 65 57 70 69 77 91 99 96 74 63 55 57 51 50 76 64 79 67
98 100 98 100 100 92 99 100 88 56 51 38 40 77 99 82 79 80 92 82 95 66 46 51 54 69 67 65 67 74 77 57 62 75 76 97 93 70 70 64 60 57 72 45 63 38 75
99 97 97 99 100 96 98 100 81 54 50 35 63 98 98 82 80 87 94 79 77 50 44 45 65 64 62 64 64 81 67 54 58 60 52 56 94 73 73 65 56 62 43 65 84 78 48
100 99 92 99 100 96 100 100 86 66 45 38 95 93 93 84 83 99 84 73 58 52 55 54 50 52 52 61 58 72 64 66 49 59 48 47 62 85 74 76 66 64 60 54 55 60 83
74 96 97 94 99 100 96 100 92 66 39 49 90 95 95 82 97 82 78 62 59 54 56 52 49 49 45 53 60 56 71 67 52 50 54 51 69 74 70 57 58 63 53 50 76 74 65
95 84 96 99 96 100 99 99 92 67 36 61 84 93 87 83 83 76 63 60 57 55 53 49 49 47 45 50 60 62 65 60 53 52 52 47 77 96 86 63 57 69 59 54 48 70 81
97 97 99 95 100 100 92 100 92 63 36 72 80 96 98 95 88 72 63 52 63 59 49 44 45 45 47 51 45 60 70 63 61 54 56 53 59 72 90 64 58 70 58 52 64 99 77
99 99 98 98 100 100 98 100 85 54 37 79 77 82 73 90 78 66 59 50 51 63 55 46 48 50 48 58 55 57 61 71 67 67 60 61 80 74 52 57 62 62 60 55 64 68 78
93 100 98 96 100 100 100 99 80 45 42 65 67 69 70 56 58 66 60 61 47 51 50 52 51 46 44 67 55 60 62 62 72 68 66 61 95 72 84 57 58 67 62 58 56 54 56
96 99 99 98 100 100 100 94 75 42 36 60 67 57 56 59 62 66 61 52 49 55 58 47 42 44 49 64 52 48 46 44 48 70 72 70 80 89 87 58 58 74 61 59 57 52 51
96 98 100 100 100 100 100 90 61 38 32 50 45 47 60 67 62 62 47 52 53 56 59 57 54 50 74 64 51 47 44 45 49 52 49 70 76 89 96 74 91 54 36 41 46 44 46
88 98 100 100 100 100 100 85 61 38 35 39 30 39 44 54 51 54 52 54 58 66 64 64 76 74 71 60 56 63 64 58 54 50 52 53 88 98 97 91 58 45 51 50 50 50 42
94 95 98 97 100 100 100 82 50 39 37 36 27 31 39 47 58 50 53 56 65 67 71 74 75 80 73 63 63 67 80 58 72 68 51 50 54 72 74 82 67 60 47 42 43 74 50
65 97 89 77 100 100 100 78 52 45 38 36 31 29 46 62 65 57 57 62 54 53 66 69 76 80 76 73 82 74 74 47 72 67 78 74 70 84 82 79 68 47 42 46 67 86 55
65 99 100 97 100 100 99 74 64 50 40 39 40 32 45 76 83 73 66 58 56 51 69 64 82 82 83 82 74 67 63 56 47 55 64 68 84 83 78 90 89 44 47 59 64 59 59
86 98 100 100 100 100 92 74 70 57 44 47 41 48 46 57 92 69 69 68 63 71 62 81 90 92 98 95 89 75 61 54 51 64 48 66 59 76 60 71 50 47 61 62 58 57 56

GFSGBSN_850_rhum_075.txt.gz
RH
82 89 94 100 100 100 87 83 88 64 60 48 54 81 90 92 97 98 94 86 92 65 98 85 80 53 60 78 66 75 63 56 76 76 78 76 90 87 83 77 76 90 76 78 82 78 54
62 78 85 96 100 100 90 88 94 69 65 50 51 74 94 95 90 97 99 87 87 89 57 75 79 58 81 90 58 63 54 68 71 76 77 84 99 97 83 72 75 83 84 83 93 89 72
66 74 84 91 100 100 97 90 98 80 68 56 50 62 79 85 92 92 99 97 81 78 88 55 78 70 84 74 64 67 72 72 72 74 79 89 97 98 94 70 67 77 81 80 89 84 85
89 76 81 90 97 98 100 91 96 90 71 59 51 51 74 80 91 79 96 72 50 44 49 66 67 76 79 68 61 53 69 77 72 78 71 86 89 99 95 77 73 89 84 94 90 88 85
100 95 83 87 94 94 100 100 96 98 74 61 51 51 66 59 70 76 62 48 45 44 47 72 80 92 84 75 73 78 73 81 86 80 89 74 94 92 77 89 90 85 100 96 88 92 90
100 99 96 92 100 99 98 99 99 97 77 61 52 52 55 43 45 42 46 44 54 50 56 82 86 93 88 94 96 94 82 89 90 94 90 92 94 86 89 90 95 95 94 88 95 88 84
98 99 100 99 100 100 98 96 100 93 82 60 52 52 51 36 41 38 52 55 71 76 74 64 64 74 89 79 86 94 87 91 87 96 91 93 96 95 88 75 61 74 74 77 74 84 81
90 95 99 100 98 100 99 95 100 98 88 59 52 52 44 34 38 51 51 77 76 69 72 62 66 71 83 90 80 84 90 88 91 98 89 92 99 78 66 65 65 73 90 87 76 68 73
57 65 87 97 99 99 100 98 100 100 91 59 50 51 40 34 52 67 70 82 67 57 85 65 66 73 73 82 76 70 82 84 90 91 88 84 79 67 73 69 65 70 74 85 81 76 73
90 77 60 86 92 99 100 96 100 100 95 61 50 49 36 36 82 77 82 73 50 56 88 71 73 68 68 69 81 82 75 91 88 97 86 90 72 65 72 77 50 51 52 61 78 82 83
97 86 72 72 86 96 97 97 100 100 96 61 49 44 34 40 87 82 85 61 51 84 96 60 64 64 71 67 77 73 76 88 82 87 88 97 82 74 75 67 48 55 49 64 69 75 59
87 98 88 72 82 94 94 100 97 100 93 60 50 39 37 56 83 86 71 58 84 89 85 74 62 68 63 66 80 67 76 71 66 75 82 90 74 77 74 56 47 50 48 57 63 58 80
100 93 98 64 87 96 85 99 100 100 92 62 51 34 58 83 97 81 63 83 95 89 63 75 70 58 59 64 66 64 69 72 82 92 97 88 81 72 65 60 51 51 60 87 84 86 78
89 91 91 83 98 99 83 99 100 100 96 70 46 44 75 98 97 77 80 90 85 76 78 49 51 64 68 57 60 64 70 77 70 78 96 85 96 88 77 72 63 53 52 78 81 89 72
96 98 88 96 97 98 92 99 100 100 93 69 44 74 87 84 82 89 86 94 73 77 48 52 60 62 79 69 68 71 70 73 68 78 86 83 94 69 74 75 64 58 78 48 67 51 82
90 92 81 96 84 99 91 98 100 100 89 70 66 95 96 82 80 84 90 81 88 57 46 49 72 60 72 79 76 75 61 58 65 67 58 75 91 73 74 67 58 60 48 66 85 71 52
89 93 84 86 73 85 98 99 100 100 86 74 94 96 97 85 84 86 84 79 57 53 60 56 72 70 63 69 67 64 63 66 58 62 50 53 72 89 69 73 68 66 64 61 63 75 86
86 94 96 97 78 95 98 94 100 100 81 90 96 99 94 93 95 93 77 70 58 58 57 58 53 53 57 61 72 63 75 68 54 53 57 60 74 92 72 60 59 66 63 55 82 72 76
90 93 87 92 65 98 92 96 100 100 78 83 94 98 100 96 98 84 64 65 64 65 62 58 55 49 48 59 71 69 73 62 54 54 58 55 84 93 92 68 62 70 65 61 57 74 82
89 90 76 96 90 98 99 100 99 99 72 90 82 99 100 100 94 78 74 70 77 60 55 46 48 47 50 53 50 72 69 66 60 63 56 52 72 74 83 73 71 79 66 62 72 92 75
84 84 78 99 96 98 98 100 100 97 65 90 78 88 80 98 85 79 67 57 70 76 60 46 50 53 55 61 65 65 64 76 69 65 61 69 87 73 58 61 66 66 65 67 80 70 77
84 79 81 100 97 100 97 100 100 90 88 98 82 79 74 79 73 77 75 66 48 63 62 60 56 53 54 70 63 73 65 63 79 72 71 69 96 73 76 60 60 69 66 65 64 60 69
90 86 84 98 99 98 95 100 99 81 92 94 76 67 60 75 86 86 78 66 54 65 60 50 49 54 70 61 52 51 50 53 66 79 80 78 83 89 91 66 62 74 66 67 65 57 57
93 89 96 96 99 99 100 100 100 81 77 68 59 59 60 81 79 75 60 62 63 63 70 70 57 66 72 53 49 47 47 57 59 64 60 79 79 93 97 76 94 60 38 45 59 54 55
95 94 98 89 98 100 100 100 100 94 73 54 56 53 46 77 69 66 61 70 68 68 72 80 75 72 65 60 66 70 72 62 61 58 60 68 92 100 94 96 67 48 48 46 43 54 50
94 97 98 97 100 98 96 99 100 98 73 59 48 44 42 60 65 60 63 64 84 86 80 79 81 72 67 73 72 76 86 73 82 71 57 57 65 92 91 88 80 56 49 44 46 84 64
95 95 92 93 99 90 92 98 100 93 84 61 37 42 46 60 70 64 66 70 60 73 90 78 82 77 74 85 86 82 84 60 87 79 85 80 75 94 92 91 73 49 46 46 60 63 65
96 91 85 98 100 98 98 100 98 78 82 67 40 35 45 71 82 68 60 60 56 67 88 75 77 81 86 81 82 78 78 64 63 67 79 84 87 90 87 96 92 43 48 55 66 63 59
96 87 94 100 100 100 100 100 93 97 98 78 56 48 43 45 87 77 73 71 66 68 72 81 81 92 98 96 91 87 71 65 62 84 56 74 68 78 74 76 56 62 61 58 58 61 63

GFSGBSN_850_rhum_078.txt.gz
RH
93 84 71 68 86 93 100 100 98 94 91 71 63 52 66 96 94 89 97 99 83 91 98 66 80 75 52 83 75 77 66 51 72 81 80 87 90 89 82 84 79 81 81 69 76 84 80
98 98 94 82 85 92 96 100 100 88 89 81 66 54 53 74 88 91 96 99 96 90 91 87 59 80 78 96 64 67 61 57 65 77 79 92 100 97 82 81 85 78 86 85 84 86 86
94 98 98 97 90 90 98 99 100 94 94 91 70 54 51 52 85 89 84 95 94 93 90 76 77 84 74 64 65 67 63 61 73 78 69 88 86 95 93 80 76 73 89 85 85 91 86
87 91 99 100 99 95 93 95 100 100 99 99 74 56 50 52 64 51 68 67 61 50 49 55 76 89 84 70 71 65 60 67 78 77 74 79 86 92 99 86 86 79 83 92 89 89 86
80 86 92 99 100 98 95 100 100 100 100 100 82 59 50 51 47 37 41 49 46 47 46 62 86 93 91 80 91 90 83 78 86 84 87 81 76 86 89 90 95 89 100 96 86 91 87
100 90 88 84 95 99 99 100 100 99 100 100 88 62 47 50 39 37 44 47 55 58 54 79 89 100 87 90 82 95 95 86 89 87 87 89 87 88 92 99 88 97 94 90 94 85 94
98 98 65 58 70 83 99 100 100 100 100 100 95 62 50 48 34 37 52 70 71 78 70 66 67 74 78 79 78 95 86 91 92 92 91 91 92 92 80 88 76 67 78 78 81 80 86
91 100 99 83 48 50 68 90 99 100 100 100 97 60 52 42 35 52 51 72 70 61 62 62 65 72 74 83 71 83 90 93 92 91 90 91 91 76 75 76 76 63 75 90 85 82 91
96 100 99 94 84 58 54 83 86 99 100 100 98 61 51 35 44 59 72 69 62 56 83 68 68 71 73 81 75 81 94 94 89 83 89 84 88 80 84 89 73 72 81 90 81 84 84
94 100 98 100 98 84 64 92 89 94 100 100 100 62 51 32 57 70 74 69 54 53 90 72 70 70 74 72 76 82 89 97 89 88 87 90 87 88 88 90 70 78 66 69 87 96 96
98 99 98 95 98 89 74 58 76 94 99 100 100 62 50 35 62 75 80 62 50 78 83 55 63 64 73 74 71 69 88 96 86 85 90 97 94 85 83 87 62 62 60 69 74 85 78
100 99 98 97 92 81 83 77 76 99 95 100 99 58 44 41 52 79 80 57 72 86 85 74 62 67 75 75 80 67 77 82 73 83 84 90 76 74 76 70 55 55 73 76 72 66 87
97 96 94 96 90 74 87 87 86 97 99 100 98 56 40 57 67 74 62 80 90 88 58 81 78 69 66 67 68 69 70 78 83 97 99 87 86 78 73 61 56 65 78 98 98 93 78
98 97 93 96 89 90 76 94 92 98 100 100 95 61 64 68 83 70 80 87 92 71 80 54 58 62 70 66 60 66 72 77 72 80 95 94 95 89 78 77 73 68 56 75 75 87 68
92 92 90 91 99 99 89 72 82 97 100 100 91 83 88 78 85 77 89 95 81 76 63 58 64 76 75 71 68 69 71 71 68 76 84 88 91 73 75 74 65 59 73 50 66 65 74
93 89 88 91 98 96 91 70 88 84 96 100 83 86 79 84 86 90 94 85 83 66 53 53 78 65 80 82 70 70 61 64 62 69 66 76 89 75 74 63 57 57 50 64 82 70 62
89 89 89 88 84 80 94 68 94 100 100 99 94 87 93 88 86 90 90 85 72 55 56 61 70 67 71 81 70 64 62 65 60 64 52 64 76 81 69 77 72 65 65 65 66 74 78
87 89 88 88 74 64 96 81 100 100 100 100 99 98 96 93 97 88 81 67 58 62 59 56 58 58 65 70 67 64 64 66 58 55 61 64 82 98 78 64 62 67 61 63 77 71 80
84 86 86 86 73 64 85 85 100 100 100 100 98 100 100 97 96 97 69 63 65 67 66 65 60 52 52 65 72 70 71 63 58 60 58 60 81 96 82 68 61 70 67 60 66 76 81
95 90 89 89 79 76 94 96 100 100 98 100 98 100 100 100 99 86 75 65 77 61 61 54 51 49 54 58 61 76 73 68 63 62 60 57 75 71 85 72 72 79 70 68 71 89 78
96 98 96 97 85 80 97 98 98 100 93 97 99 96 92 96 96 91 76 69 78 76 59 48 52 55 56 65 67 75 66 77 68 64 62 69 85 75 62 62 69 69 66 71 80 70 73
98 97 94 92 85 88 89 99 100 100 100 99 96 89 87 85 74 91 82 77 78 70 64 61 58 56 58 68 64 81 70 71 75 72 70 74 96 72 76 63 64 68 66 70 72 66 70
97 98 99 96 95 95 96 100 100 98 100 99 100 83 64 81 86 87 88 73 58 67 62 52 54 68 68 62 55 56 54 53 69 80 82 78 85 86 88 73 63 74 66 67 69 64 61
96 99 97 96 81 93 98 99 100 96 100 100 95 73 67 92 80 81 72 64 58 64 73 75 54 68 66 51 50 53 61 66 70 71 65 82 80 92 92 76 93 58 41 50 63 58 57
100 98 97 94 83 98 99 99 99 100 99 97 72 65 55 92 78 76 65 72 74 72 83 81 74 68 55 51 72 89 88 65 66 66 65 74 92 99 91 96 71 60 46 45 48 69 70
99 99 97 95 93 93 100 97 97 100 99 88 66 56 49 72 76 70 74 74 88 89 87 82 82 72 62 74 74 88 96 77 86 73 62 80 84 86 99 96 88 52 50 46 50 81 72
98 98 93 95 90 99 99 94 94 98 100 85 71 54 50 67 81 72 77 75 74 81 92 82 83 75 73 87 86 83 86 70 90 87 82 80 91 98 93 94 77 54 48 45 58 58 71
96 95 92 88 95 99 100 99 95 100 100 97 70 53 49 76 85 72 64 60 68 71 88 81 76 77 87 80 82 84 80 73 76 71 83 85 91 95 90 97 95 48 54 51 56 67 60
97 97 88 97 100 100 100 100 98 100 99 90 73 54 52 56 88 82 78 70 69 68 76 86 78 90 85 94 88 88 75 72 76 85 66 75 71 79 78 79 61 57 53 62 62 60 60

GFSGBSN_850_rhum_081.txt.gz
RH
88 88 88 91 92 83 81 96 99 100 100 99 98 85 67 54 95 62 66 86 92 100 92 93 82 69 85 85 75 59 70 60 59 74 84 90 89 86 91 85 83 88 73 72 73 85 85
100 90 87 94 94 90 82 78 88 100 100 100 97 97 72 57 60 65 53 57 93 98 96 89 84 78 96 94 67 71 66 67 61 74 79 95 85 93 85 88 83 73 76 69 81 91 93
97 95 92 90 91 96 81 80 78 93 100 100 100 100 81 57 54 86 54 45 73 99 99 90 74 96 94 68 68 68 68 69 66 75 80 82 86 98 83 85 69 66 80 72 78 87 86
100 100 99 96 96 89 86 82 83 85 99 100 100 100 91 61 57 50 51 45 44 56 51 54 79 96 86 75 80 74 70 71 69 83 85 77 90 98 96 86 88 78 84 95 92 81 89
99 100 99 99 99 95 80 76 82 92 93 99 100 100 97 72 58 42 40 44 44 47 49 60 90 85 90 80 81 77 87 82 76 85 87 84 97 94 97 92 96 80 98 99 95 80 83
100 99 99 97 95 92 82 66 70 74 85 92 100 100 99 76 55 38 40 50 47 58 58 73 90 99 85 84 83 93 91 88 84 91 88 91 90 89 89 93 91 96 99 100 93 94 86
97 100 99 97 99 96 75 52 44 59 75 78 93 100 100 69 50 41 53 68 70 82 72 63 66 70 73 79 77 88 84 84 91 91 91 85 93 98 88 92 88 81 72 99 92 84 87
94 99 97 98 98 99 94 70 50 63 90 97 75 100 100 79 46 54 53 67 61 58 58 58 64 70 75 81 64 80 90 91 93 92 86 87 88 74 76 81 93 79 84 96 92 83 84
96 98 98 99 99 94 97 95 68 54 62 91 91 100 100 81 46 74 58 61 57 52 76 68 67 71 72 77 76 88 94 96 90 84 88 86 94 72 77 84 94 71 74 85 82 86 85
99 100 100 100 100 98 98 99 88 65 58 85 99 100 100 73 67 76 61 66 50 56 88 67 72 70 75 75 81 90 90 97 84 79 80 94 85 84 87 87 88 88 66 69 82 90 100
100 97 97 98 100 100 100 100 94 77 82 75 99 100 100 76 88 81 69 65 48 72 87 48 68 69 76 74 72 79 90 100 88 89 83 97 90 92 98 92 71 77 68 78 84 97 98
94 95 98 100 99 89 86 93 94 78 82 82 99 100 100 73 85 74 77 54 70 85 83 78 68 73 77 77 78 72 92 94 78 83 87 90 86 83 84 76 70 63 78 88 86 92 98
92 88 89 95 88 85 95 87 90 92 66 80 99 100 99 69 68 78 69 77 87 93 61 79 81 73 71 70 68 72 72 83 89 97 99 87 84 77 76 76 70 74 81 98 97 94 95
90 86 86 88 89 87 87 78 72 87 64 76 99 100 94 74 89 76 72 78 93 68 84 58 66 68 70 70 61 66 74 77 77 80 93 98 95 88 77 82 91 82 76 87 90 86 68
90 87 87 84 87 86 85 86 90 88 82 76 91 100 94 94 99 69 78 94 77 77 65 70 66 74 76 72 73 68 72 73 69 74 77 92 97 74 77 73 66 93 86 50 65 62 77
88 85 82 84 83 88 87 88 93 94 91 79 85 99 98 96 100 87 86 83 81 65 56 62 78 69 79 79 75 73 69 67 64 70 66 72 92 79 75 67 66 55 49 66 80 73 62
90 92 96 91 86 83 84 89 93 96 98 100 100 100 97 100 100 91 96 88 71 61 53 61 74 76 72 81 71 68 68 65 61 66 58 67 75 78 68 82 84 66 64 69 68 74 72
80 94 96 98 89 88 87 93 95 91 94 99 100 100 99 100 99 94 96 74 60 64 62 56 61 64 75 76 70 66 71 63 62 57 67 66 82 99 83 67 64 69 64 62 74 68 83
87 96 98 97 97 79 82 86 93 96 88 100 100 99 100 100 99 98 70 70 66 70 67 64 61 59 57 68 67 68 70 66 61 63 62 58 83 93 79 66 62 71 68 64 69 75 80
88 92 97 93 96 91 81 88 98 93 91 100 99 100 100 100 99 82 80 76 80 66 65 59 56 52 59 64 62 68 78 72 64 63 60 58 76 69 86 64 71 78 73 69 70 88 75
94 98 96 95 99 98 88 98 91 90 100 100 99 99 99 99 98 93 74 70 61 82 61 52 54 55 70 83 69 69 74 72 70 65 68 66 83 78 67 66 73 72 70 78 79 69 71
99 98 99 99 91 100 89 97 86 99 100 100 98 98 100 98 83 94 89 81 70 73 64 62 65 58 57 73 68 80 67 70 70 72 70 76 95 72 79 70 67 66 65 70 75 71 68
99 98 99 97 97 97 94 90 95 99 100 99 100 100 95 93 84 88 88 77 68 68 65 54 56 68 65 62 57 56 56 60 65 76 80 75 86 85 86 76 66 71 64 66 72 69 70
98 97 97 99 100 93 89 98 98 98 100 100 99 92 95 93 85 81 78 77 69 64 76 75 57 65 58 58 58 58 64 68 70 73 71 80 80 89 94 77 90 56 45 52 64 61 59
97 100 97 100 90 90 100 96 100 100 100 100 98 89 77 95 84 76 75 73 77 79 85 80 75 69 55 65 91 86 89 76 66 68 70 72 87 97 94 96 70 57 49 48 56 64 72
90 96 97 92 87 94 95 100 100 97 100 100 95 74 60 81 86 79 79 76 84 90 87 89 84 69 58 75 81 92 96 81 87 73 71 83 80 85 95 95 86 55 49 47 48 68 72
90 91 83 88 85 95 94 100 100 96 99 98 94 64 58 79 87 78 83 77 74 80 95 89 80 72 65 85 85 82 87 72 93 92 89 86 90 96 94 96 80 57 51 43 60 53 72
97 87 85 87 92 81 91 100 98 97 98 97 89 66 59 79 90 78 71 68 77 70 88 83 75 73 84 79 79 85 81 82 80 76 82 81 74 81 89 96 85 52 54 53 50 70 66
90 84 88 89 90 94 94 100 97 100 99 97 68 61 62 63 88 84 81 78 74 67 76 86 72 83 76 92 86 88 79 76 80 84 74 80 75 84 81 76 60 59 58 58 62 62 61

GFSGBSN_850_rhum_084.txt.gz
RH
100 100 99 100 100 100 99 99 94 83 88 77 80 100 100 99 95 63 62 93 90 93 99 86 95 94 73 89 78 53 70 66 62 64 75 87 97 95 88 83 77 89 80 68 64 58 70
100 100 99 99 100 100 100 100 99 86 85 87 86 100 100 99 96 74 72 95 98 92 99 85 84 92 99 97 65 63 70 67 69 66 72 86 89 93 94 84 77 84 75 75 64 67 82
99 99 99 99 99 99 100 99 99 93 88 99 99 98 94 100 100 83 90 92 99 94 99 96 89 87 99 87 67 68 70 68 72 68 80 81 88 100 93 82 76 77 87 74 75 75 84
100 100 96 93 95 91 99 100 100 98 98 98 100 98 93 100 98 88 72 49 77 100 83 98 83 98 93 70 74 76 79 77 74 68 79 87 89 99 99 81 93 92 88 90 80 83 82
99 98 92 89 96 86 94 94 100 100 100 99 100 90 100 100 99 78 61 55 50 98 88 99 97 98 88 76 86 84 87 89 80 71 91 90 97 96 86 94 90 86 100 87 80 81 75
95 92 87 86 94 87 98 92 91 99 99 95 98 94 99 100 99 68 49 50 56 77 87 92 98 99 76 78 77 82 90 88 84 78 89 95 97 95 96 98 96 99 100 93 92 88 78
98 91 93 88 88 95 97 96 92 87 97 59 80 100 100 100 99 75 54 65 90 96 81 70 62 68 69 76 67 81 80 82 78 98 94 79 96 100 100 88 88 81 90 99 86 86 90
96 92 94 96 96 94 97 97 98 87 92 88 67 100 99 100 99 76 62 66 75 68 60 56 58 65 67 75 68 78 83 92 87 93 80 87 92 81 84 87 89 89 88 98 93 84 84
98 94 94 91 89 95 97 95 99 97 87 69 61 91 100 100 97 67 58 57 72 64 71 68 67 70 72 77 77 90 91 93 90 88 85 90 83 78 77 84 93 86 83 91 88 86 88
86 94 95 92 96 96 95 99 98 100 93 81 69 62 100 100 94 61 60 66 71 64 87 66 74 71 76 77 84 86 89 96 92 82 78 90 81 79 84 84 90 97 69 78 87 83 100
92 86 88 88 83 92 83 88 94 100 93 73 68 61 93 100 77 78 67 65 62 77 88 49 75 74 81 78 71 81 96 100 91 85 82 95 88 90 80 80 86 88 73 80 77 94 95
94 96 91 91 90 86 90 88 94 93 82 77 75 78 98 100 92 72 78 64 76 84 81 81 71 76 81 79 80 84 96 100 89 83 84 89 84 84 90 82 75 70 78 85 87 96 98
88 95 90 93 92 90 87 92 92 87 84 64 65 81 99 100 90 68 82 70 90 93 59 80 85 76 73 71 68 73 75 84 97 99 99 98 92 81 78 84 72 78 86 99 97 96 97
85 90 89 85 90 91 88 88 91 91 69 63 79 69 90 100 92 79 84 81 93 62 80 61 73 70 73 71 62 68 74 80 74 77 95 95 97 93 81 85 92 88 84 90 89 88 93
89 84 86 88 90 91 96 90 82 80 65 83 96 93 86 99 100 99 86 98 75 74 70 74 68 73 77 73 73 67 75 74 72 76 77 94 100 78 83 73 76 87 91 57 69 64 81
93 92 85 91 92 95 97 91 94 89 79 98 99 100 100 94 100 98 99 84 74 61 64 62 73 68 83 78 76 73 70 68 69 73 65 71 94 80 76 73 78 78 55 68 81 73 61
93 94 89 92 94 91 93 78 91 96 91 99 99 100 99 100 100 100 98 90 71 64 56 60 75 80 67 80 71 70 74 66 64 66 64 66 76 74 68 90 85 67 67 67 70 76 73
90 89 92 90 88 88 85 79 89 83 98 97 100 100 100 100 100 98 99 73 60 68 65 60 65 69 74 78 71 67 72 67 67 57 74 68 83 98 85 69 67 72 64 59 70 70 84
90 89 91 93 97 90 90 94 91 84 99 99 99 99 100 100 100 100 85 70 68 72 68 63 65 59 61 70 68 69 74 70 63 64 65 60 83 92 79 66 63 73 72 70 70 74 80
89 94 95 92 95 91 92 80 85 88 91 99 99 99 100 100 98 97 100 93 80 69 68 60 58 57 62 64 65 72 82 76 64 68 65 59 77 69 84 65 72 79 75 66 68 85 77
90 94 97 98 95 98 86 93 87 95 98 99 99 99 99 99 99 100 99 77 83 82 64 53 57 58 71 74 73 76 81 77 71 68 71 66 84 80 75 74 73 72 73 77 80 69 68
92 97 98 99 99 93 97 88 94 96 99 100 100 99 99 97 95 100 92 80 71 73 67 64 66 64 65 74 68 79 72 70 68 72 75 76 96 73 84 74 70 66 67 75 77 74 66
96 98 98 100 100 99 95 88 93 100 99 100 100 100 98 99 100 98 87 81 70 66 65 55 62 69 64 62 58 59 59 67 70 74 81 76 85 85 88 79 69 71 68 70 70 71 73
100 97 98 95 80 78 88 93 98 98 100 100 100 95 98 100 98 86 77 80 67 64 73 73 60 63 62 60 60 60 62 66 71 79 69 76 81 88 92 77 80 54 49 56 65 64 68
98 100 99 93 84 81 94 98 98 100 98 99 99 97 90 98 84 77 81 80 82 82 84 78 76 65 60 59 78 78 90 72 70 74 78 67 84 97 93 96 66 58 58 56 59 50 69
100 97 97 93 82 85 98 96 99 99 98 100 100 93 70 85 89 88 81 77 86 91 90 95 81 64 59 75 78 89 95 82 88 76 80 76 70 80 81 93 81 52 50 48 47 62 72
99 98 94 80 90 83 85 84 97 100 100 100 97 82 60 79 87 86 86 79 76 82 96 90 78 68 61 84 86 82 87 73 92 88 93 88 88 89 91 96 82 59 50 42 60 51 72
99 91 82 85 85 82 91 100 98 100 100 98 85 63 56 79 92 84 78 76 76 74 88 84 72 69 79 80 80 83 84 85 81 76 87 86 87 81 90 93 88 53 56 56 51 72 69
88 100 76 87 85 94 97 97 99 100 98 96 82 74 62 65 85 85 84 81 76 76 80 83 73 78 72 91 86 88 81 82 81 83 74 79 72 82 80 75 59 59 59 58 60 65 66

GFSGBSN_850_rhum_087.txt.gz
RH
98 99 98 98 98 98 99 98 99 99 98 96 96 96 97 99 100 99 96 74 62 58 85 88 86 99 99 89 75 64 60 69 68 67 58 74 94 91 94 79 74 76 58 80 88 58 56
98 97 98 99 99 91 90 97 98 98 100 99 96 100 99 100 99 100 99 69 84 55 88 91 86 100 99 97 70 60 62 69 72 72 66 70 82 87 95 91 93 73 64 64 64 72 58
99 97 98 96 87 84 80 89 89 97 96 97 98 99 96 99 100 100 99 70 56 60 63 98 90 97 99 86 72 71 72 72 71 75 70 66 86 95 100 87 70 65 72 74 73 72 73
99 97 99 97 86 88 86 93 76 78 99 98 77 96 93 86 95 100 99 65 44 44 53 99 89 92 97 79 77 76 77 78 82 78 72 66 90 98 100 91 83 79 89 98 74 73 78
99 97 99 98 98 97 94 89 80 75 88 98 84 78 97 96 99 100 97 56 46 54 68 96 89 98 89 76 80 80 89 90 87 81 76 94 97 93 96 94 84 82 89 99 87 76 85
98 96 96 97 95 92 97 93 92 84 88 98 70 65 99 84 100 100 95 60 54 62 68 96 97 99 81 71 78 70 76 87 87 80 83 99 99 95 96 98 93 91 96 86 85 84 79
93 96 95 92 94 96 96 96 85 98 81 94 86 63 94 82 99 99 94 68 86 89 97 67 76 78 68 76 71 67 76 87 81 90 91 94 97 100 100 92 94 78 88 95 80 82 81
98 94 86 92 94 92 94 97 97 95 88 88 69 70 71 100 100 100 92 68 70 67 69 62 67 77 68 72 71 82 73 90 85 86 82 91 97 79 91 88 85 79 82 92 91 83 79
97 95 96 93 90 88 87 91 90 95 92 99 66 68 86 79 100 99 88 67 66 66 70 68 66 67 71 76 75 89 87 83 80 91 87 97 76 79 85 96 81 82 83 93 88 82 83
98 95 94 94 93 90 91 89 87 92 93 95 84 57 67 100 100 99 76 63 72 57 89 72 82 75 77 78 85 83 82 88 91 89 76 92 74 78 86 95 83 81 70 76 84 80 89
99 91 92 93 94 90 86 85 88 83 81 71 87 64 51 96 100 88 83 74 72 65 87 63 83 77 84 79 70 87 90 96 82 86 88 91 85 80 74 80 88 86 73 77 78 89 86
95 92 93 85 88 89 89 98 91 91 77 71 50 86 63 72 100 100 87 75 64 86 91 79 83 88 91 86 81 92 99 99 94 86 90 90 85 82 83 76 80 68 73 76 81 86 90
98 97 95 93 92 89 93 84 85 91 87 91 85 70 79 73 93 100 95 72 95 93 63 84 90 83 75 74 70 78 80 92 99 99 100 100 97 90 83 90 81 70 83 99 91 93 94
96 92 90 95 92 89 95 87 95 95 91 86 80 89 82 60 78 100 97 97 97 66 80 63 79 80 76 70 64 69 71 94 94 98 95 96 99 96 83 86 94 86 83 86 89 92 91
98 93 87 94 89 92 97 81 96 87 93 83 95 85 95 79 92 99 98 98 83 76 70 78 70 76 79 74 70 66 77 76 72 79 79 98 100 83 82 78 79 80 85 59 68 65 73
96 89 84 91 88 93 81 86 91 84 84 93 99 99 99 88 100 100 100 90 77 66 65 62 71 68 83 80 73 71 71 67 71 74 66 73 96 82 82 73 72 73 65 68 80 71 71
98 88 87 93 89 86 84 80 79 95 92 99 85 99 100 100 100 100 99 89 67 65 62 57 71 75 73 81 69 71 74 65 69 68 64 65 76 84 80 91 86 75 70 65 68 74 68
98 86 89 94 90 85 89 80 80 81 92 100 98 100 100 100 99 98 99 74 63 70 64 62 64 72 71 78 70 69 74 70 70 63 73 71 83 96 87 71 68 77 72 59 68 69 78
97 86 90 98 92 89 91 87 83 85 98 98 100 99 100 100 100 100 93 87 74 80 72 64 68 63 65 72 70 70 76 71 64 68 66 58 82 92 75 64 62 73 72 67 67 69 78
91 88 92 98 89 88 90 85 84 85 98 99 99 99 100 100 100 97 100 100 98 70 70 61 64 59 62 68 69 80 83 78 66 74 68 59 76 69 79 66 73 76 76 68 65 77 68
90 90 96 92 87 84 89 80 84 92 99 98 99 99 100 100 99 100 93 98 100 84 67 58 60 61 66 76 76 83 84 76 71 70 72 66 86 84 82 78 74 74 74 75 76 63 59
91 96 100 90 91 85 83 80 84 97 100 99 98 98 98 98 99 100 99 100 84 75 68 62 69 70 64 68 69 81 77 70 68 72 75 75 96 73 83 73 69 67 70 76 77 71 67
92 98 96 92 94 82 78 79 88 94 99 98 100 100 98 100 100 100 99 80 73 60 64 60 64 68 64 62 59 60 62 69 72 73 80 76 84 85 88 78 71 66 61 73 73 72 72
95 99 92 90 92 77 81 81 92 92 100 100 98 100 97 97 100 98 85 77 75 68 68 73 60 61 63 63 62 62 64 69 73 82 66 76 82 86 91 73 75 52 51 56 64 63 70
95 98 94 98 84 87 86 91 86 95 92 100 94 100 98 100 98 82 78 77 81 76 87 84 76 68 64 61 77 78 85 69 73 84 79 64 79 95 91 93 61 54 56 51 51 47 64
97 100 99 96 88 89 91 77 90 98 97 94 99 99 87 83 89 93 80 76 87 92 89 93 79 67 61 78 77 86 95 80 86 77 75 68 66 77 86 90 72 51 49 46 45 57 68
90 90 96 92 87 89 95 99 97 99 98 98 98 81 68 81 91 87 88 87 82 88 95 87 74 66 62 86 81 79 87 75 88 88 96 89 81 88 81 80 80 60 50 46 57 45 70
94 90 94 87 87 94 100 98 93 94 99 100 86 59 58 78 91 86 81 83 80 77 85 81 79 74 80 98 84 83 83 85 82 76 89 86 87 90 85 94 82 54 58 57 51 62 68
95 93 85 73 78 95 99 96 86 93 98 99 74 64 62 65 85 85 86 83 83 82 80 77 75 76 70 91 85 87 82 87 81 80 76 84 71 75 75 73 54 56 56 54 53 59 67

GFSGBSN_850_rhum_090.txt.gz
RH
98 99 97 93 90 96 85 96 88 86 96 96 96 100 100 100 99 100 97 96 95 73 88 90 80 81 96 93 80 69 67 62 74 71 75 70 71 65 72 58 61 69 56 49 42 38 41
98 98 95 97 94 85 93 84 87 81 77 93 97 90 99 97 100 99 100 100 97 95 84 92 87 85 99 95 71 68 60 62 70 75 79 78 67 70 77 76 89 62 58 53 45 49 50
98 97 97 96 98 96 98 89 76 81 86 82 97 92 62 94 85 86 93 100 98 64 47 86 89 91 98 85 65 73 73 73 76 84 81 78 75 82 74 75 84 88 92 59 48 48 64
99 98 99 98 99 91 90 89 84 75 87 85 98 100 91 81 84 84 100 100 95 48 48 86 94 94 88 70 67 73 79 83 77 83 76 87 90 92 85 91 90 90 71 78 59 63 69
98 98 99 96 96 97 94 92 97 82 88 90 97 92 88 86 97 96 99 100 88 68 88 91 87 90 85 76 65 75 72 92 95 93 84 92 96 86 90 100 95 98 74 72 72 64 64
98 96 95 95 94 92 93 98 88 90 82 77 76 84 69 80 93 99 100 100 75 74 94 90 99 96 85 73 73 63 69 80 97 92 87 94 97 91 94 100 71 77 65 74 64 59 68
98 97 99 97 98 96 98 98 97 96 92 86 74 88 58 82 99 99 100 92 88 99 100 77 77 79 67 69 75 66 70 83 93 86 80 83 93 93 86 88 64 80 55 95 59 61 67
98 99 99 98 93 93 94 95 94 92 94 98 80 59 49 71 88 100 100 85 74 65 71 72 86 80 72 70 75 70 73 87 83 74 68 80 88 59 84 92 80 86 58 73 72 68 62
99 98 98 95 95 92 97 90 91 92 94 93 88 65 43 48 66 99 100 95 69 68 59 66 81 84 71 69 70 75 84 82 69 70 74 98 61 83 91 95 82 73 54 73 86 80 70
94 97 94 94 91 92 86 92 84 92 80 91 93 90 82 47 64 96 98 91 82 69 80 67 78 80 77 82 74 82 80 83 77 77 63 90 58 71 90 92 80 74 58 62 73 77 75
97 96 92 99 92 93 89 93 86 78 88 84 91 92 93 88 97 99 96 80 87 71 92 70 81 80 83 77 74 83 83 93 74 67 76 70 68 67 71 66 76 70 65 72 67 70 64
91 97 95 94 90 92 89 95 80 90 94 95 81 64 77 66 94 86 100 100 86 95 84 81 84 83 84 79 73 99 100 99 89 91 81 85 88 85 92 82 84 61 64 63 67 65 79
100 96 99 94 91 87 92 95 77 96 99 80 70 79 79 93 98 94 100 99 99 93 58 89 80 75 68 70 70 78 80 94 99 99 100 98 96 88 91 93 67 61 62 83 75 79 89
100 100 100 93 92 90 90 76 94 97 88 82 82 90 98 97 97 94 100 100 95 62 58 62 69 68 64 60 58 62 70 99 95 100 100 100 99 95 78 84 84 68 69 70 71 70 80
100 99 95 94 93 94 84 93 97 91 78 83 83 95 99 98 96 99 100 98 87 60 59 73 66 62 64 66 58 61 69 68 64 69 80 87 99 86 76 68 69 68 66 53 56 52 52
100 100 87 92 93 93 81 92 94 82 80 84 96 100 100 99 84 100 100 95 69 61 63 62 58 54 58 60 59 61 63 62 65 60 58 62 93 84 72 65 63 59 52 61 58 60 63
100 99 94 92 89 96 82 86 84 82 85 94 95 99 100 98 99 99 96 100 78 66 70 60 58 57 53 60 56 56 63 63 62 57 50 52 56 87 70 75 75 61 54 48 48 51 47
98 98 90 94 89 84 81 85 81 81 93 95 100 100 99 100 98 98 81 82 76 82 69 64 54 53 51 57 56 58 61 62 65 56 58 58 58 84 73 60 58 62 60 48 46 54 52
97 95 92 93 86 83 86 85 77 87 95 98 100 100 100 97 100 100 94 94 96 84 78 62 62 55 56 52 56 61 66 66 62 60 57 50 63 77 63 52 53 60 54 51 46 48 64
97 92 94 96 85 84 84 81 74 91 93 95 98 100 99 98 100 77 100 100 99 87 82 60 58 50 51 58 56 69 69 66 68 64 70 48 57 60 56 64 65 63 60 53 50 69 38
99 91 98 92 81 76 73 65 80 88 94 92 97 98 100 99 99 98 92 100 99 95 71 56 59 52 50 61 62 69 68 63 60 64 58 48 77 78 64 61 62 64 62 58 64 50 49
84 90 93 94 82 88 80 80 81 87 90 96 98 100 98 98 98 98 99 100 99 77 65 63 61 54 48 52 53 63 61 56 58 53 57 55 82 67 73 56 55 59 59 62 61 53 51
76 90 88 84 88 82 82 80 88 85 96 96 100 99 100 99 100 100 98 84 68 69 62 61 58 52 55 57 54 55 58 58 56 55 58 59 66 72 73 59 53 51 52 58 60 60 53
86 86 87 95 87 87 88 97 88 85 96 98 98 100 98 82 88 88 87 76 68 69 64 67 63 53 63 66 62 58 58 58 56 58 52 57 62 71 76 58 63 50 45 49 52 49 53
90 88 83 85 90 87 93 92 98 99 98 86 99 98 97 99 96 94 77 71 67 74 79 81 84 73 67 64 56 59 58 52 61 70 58 48 58 76 72 61 50 48 50 48 48 40 46
84 87 84 86 82 94 99 97 97 96 93 90 92 99 95 74 78 89 77 70 72 83 74 83 74 68 67 55 57 69 64 66 65 68 65 57 51 56 70 71 54 43 44 42 42 41 52
81 90 86 81 86 92 98 94 89 84 92 94 92 99 77 76 88 88 78 74 85 91 83 75 70 66 68 67 64 60 67 65 64 64 69 68 67 66 59 62 51 42 48 48 47 38 61
68 82 86 63 76 94 91 88 76 74 81 96 90 83 66 80 89 82 81 88 81 84 68 78 76 72 82 92 66 61 56 62 64 62 73 64 61 61 53 66 69 49 52 47 42 58 66
61 60 59 56 87 97 86 82 79 80 89 86 67 66 70 73 83 86 86 83 79 80 86 77 76 75 72 77 66 61 59 65 59 55 64 69 51 50 51 46 46 55 52 50 49 58 67

GFSGBSN_850_rhum_096.txt.gz
RH
93 92 99 99 98 99 98 97 97 89 94 92 96 97 98 96 99 99 95 94 99 100 100 94 88 71 86 89 73 64 50 50 78 84 72 57 55 51 55 43 39 46 42 42 41 41 43
91 97 97 96 98 97 93 96 94 94 94 94 96 96 98 99 100 98 65 93 98 100 100 94 96 74 89 77 65 66 63 70 72 82 70 60 56 53 51 48 54 49 50 47 49 51 53
90 92 91 90 93 97 98 97 97 97 95 93 90 94 96 98 94 98 81 45 71 96 100 100 85 69 97 76 65 69 68 67 68 69 64 58 58 64 53 52 44 54 74 64 60 57 62
94 97 96 98 97 94 95 90 84 82 96 93 94 90 91 93 94 73 99 76 56 99 100 97 81 71 86 74 71 73 72 72 75 74 69 66 67 68 60 58 56 62 80 90 54 54 52
94 97 97 99 94 95 97 97 95 91 90 91 73 71 90 88 88 48 84 86 73 100 99 83 87 89 79 74 74 74 74 71 68 79 78 75 73 70 63 84 91 89 93 78 64 51 49
96 98 98 98 95 94 85 91 87 91 93 84 66 69 69 96 90 41 67 100 100 99 96 90 98 98 78 71 74 77 76 73 72 77 85 81 73 75 74 90 92 70 98 87 79 46 57
98 99 98 97 99 94 91 95 94 84 86 82 75 61 59 71 95 40 51 97 100 97 99 95 86 66 67 74 78 79 77 80 73 69 74 68 88 93 82 76 75 73 80 80 60 48 78
99 98 99 99 98 100 100 96 92 86 80 78 79 74 60 63 90 61 89 84 100 100 89 90 90 70 68 70 73 74 78 72 71 73 59 78 97 68 64 73 90 87 86 76 61 73 78
94 96 99 100 100 100 96 84 93 82 77 74 67 68 70 59 55 92 84 96 100 99 89 62 85 72 73 74 60 71 77 73 74 70 61 76 59 62 76 81 93 92 83 72 91 76 66
96 97 98 99 99 100 89 93 90 81 78 71 71 75 74 64 62 76 83 98 98 99 100 79 70 68 68 71 63 69 73 69 58 63 59 68 54 53 90 85 85 92 54 55 80 81 99
100 100 100 100 99 78 72 96 90 81 76 79 82 76 74 73 74 90 88 82 99 99 97 77 68 71 72 69 71 81 78 70 67 71 78 75 75 90 77 63 73 70 76 82 78 96 100
97 95 98 80 55 80 92 86 84 87 87 80 78 75 78 85 87 84 90 91 99 100 98 98 82 83 73 66 67 82 88 86 94 87 81 79 73 83 72 73 70 62 71 77 78 97 99
90 91 64 72 84 96 91 98 89 87 81 79 79 82 87 92 88 95 94 100 100 97 84 86 79 70 61 65 67 75 89 97 93 99 100 93 94 87 84 94 72 76 96 99 98 100 98
97 70 70 85 93 90 94 90 84 79 83 89 94 98 97 98 97 89 83 100 96 98 84 56 60 60 96 62 69 60 83 100 95 98 99 100 100 98 79 81 92 90 94 99 96 97 97
89 77 87 91 96 97 90 82 93 91 95 99 99 99 99 96 92 82 94 96 98 88 69 61 56 71 81 53 57 69 89 99 90 86 98 100 99 84 84 61 66 74 80 49 76 59 83
86 27 89 100 95 78 72 96 97 92 94 90 95 99 98 97 93 92 99 99 99 86 60 48 56 55 61 54 89 93 95 56 86 60 62 64 99 68 58 62 60 66 49 74 84 96 91
65 22 90 97 68 58 65 95 96 91 79 73 88 96 99 85 94 90 99 100 96 73 60 59 50 44 44 54 73 70 58 57 50 49 46 50 75 83 69 65 65 61 59 47 48 56 86
56 26 74 67 78 67 68 66 72 93 83 72 90 96 91 100 96 95 100 96 97 80 62 58 52 43 44 44 51 56 66 66 51 49 51 50 58 84 62 51 46 53 48 48 76 66 67
45 32 72 69 61 65 80 70 70 73 77 86 97 99 99 97 91 89 66 75 81 81 74 65 48 42 38 43 56 51 59 56 54 56 60 54 65 89 67 56 48 50 45 46 42 64 57
31 41 56 78 59 73 85 84 73 70 80 92 94 99 96 92 82 64 69 80 96 75 78 58 44 36 37 44 45 57 59 56 54 53 55 58 62 77 91 73 62 63 52 45 62 76 61
18 49 35 42 58 83 85 88 76 67 76 95 87 95 93 93 85 70 75 81 77 90 66 55 45 38 41 44 51 57 52 53 46 45 48 52 74 74 54 49 52 53 53 49 52 43 68
17 46 40 36 58 73 94 93 84 68 78 88 88 96 90 89 84 69 81 87 82 64 59 60 49 42 48 56 48 52 46 48 54 43 46 48 79 65 56 50 49 56 53 54 56 42 46
14 38 38 41 57 74 94 95 91 78 71 92 92 90 99 91 83 85 83 78 68 59 52 55 55 51 62 60 44 42 41 43 46 52 52 55 68 82 74 58 50 60 54 54 52 54 50
10 36 26 51 70 77 92 98 96 95 79 94 94 93 99 84 76 75 68 69 58 63 63 63 64 55 62 59 48 41 41 42 44 47 43 51 60 78 92 74 82 56 41 43 47 48 47
8 34 24 43 65 80 90 95 98 86 90 79 79 95 96 73 62 69 62 62 56 62 66 69 70 65 59 59 54 52 52 49 50 50 50 49 55 81 90 78 47 48 45 44 47 50 44
7 35 25 41 82 86 92 79 90 82 80 81 97 87 92 88 74 71 59 59 57 59 64 66 65 62 66 62 53 62 75 56 56 52 43 45 44 62 68 76 54 49 42 36 38 65 48
6 37 21 56 94 85 75 76 65 77 77 96 77 85 80 76 74 72 72 79 77 78 76 63 70 67 63 71 63 63 70 54 61 54 60 61 60 69 62 71 54 44 42 41 51 68 50
5 36 26 81 88 92 79 69 75 80 80 82 87 84 78 75 73 73 76 82 78 78 71 66 72 70 71 77 68 57 57 59 60 52 56 60 62 67 57 66 70 42 45 50 50 52 53
5 34 29 89 87 95 84 75 85 89 80 67 72 71 67 81 76 72 76 77 78 79 85 73 69 68 72 88 67 60 61 57 53 59 56 68 59 65 55 62 44 42 48 47 47 50 56

GFSGBSN_850_rhum_099.txt.gz
RH
90 88 85 84 86 81 83 93 95 93 97 96 92 92 95 95 98 97 93 55 58 88 91 100 99 83 74 90 76 61 40 42 61 79 85 72 58 59 69 54 53 62 53 46 45 45 46
86 78 85 78 82 91 96 96 92 80 80 95 93 94 91 95 96 96 88 78 97 62 96 100 96 88 78 85 65 69 57 59 61 84 76 64 57 55 57 53 58 51 51 53 51 52 52
88 86 79 83 94 92 85 93 92 86 83 93 92 94 90 90 91 90 93 71 92 40 88 98 94 95 83 64 66 69 66 55 72 76 74 62 58 58 62 65 54 53 70 61 57 53 61
97 98 98 98 96 98 92 90 96 93 87 93 92 94 89 84 92 82 49 60 85 53 73 99 98 94 92 70 72 70 66 68 68 69 69 67 60 65 63 61 66 75 82 95 60 57 60
99 99 99 99 99 98 97 98 97 98 83 82 84 61 71 96 80 67 22 52 89 81 98 100 91 92 87 76 72 74 74 70 70 72 70 71 72 75 67 84 82 83 98 94 70 53 60
93 97 98 97 91 98 100 100 100 98 84 80 78 71 68 93 79 54 37 54 100 99 98 99 96 99 85 80 74 76 75 72 67 68 69 83 80 81 72 83 90 85 97 88 79 69 65
94 100 100 96 92 100 90 100 98 89 84 73 74 83 59 94 79 48 61 50 97 100 96 90 91 75 73 75 71 75 75 72 71 71 76 72 90 95 80 75 72 81 80 84 74 61 64
99 96 77 94 100 99 100 98 98 97 87 77 69 64 66 80 66 67 85 97 100 100 98 93 93 82 74 70 78 77 68 75 67 81 70 93 96 69 68 72 77 82 96 88 74 60 72
93 59 91 90 90 79 93 96 93 87 77 75 72 77 73 70 76 69 78 96 98 100 99 96 97 81 74 69 70 76 73 78 74 76 76 85 65 60 70 81 96 88 86 89 87 64 78
80 54 91 89 90 79 86 86 83 79 79 80 76 72 68 76 74 60 91 88 99 99 100 98 96 86 75 68 70 71 66 72 69 67 65 70 57 62 63 75 87 94 61 78 79 94 98
75 72 72 91 89 88 89 94 81 76 75 74 72 75 75 83 78 89 95 83 100 99 96 92 81 76 73 73 76 80 71 72 75 65 79 83 78 84 91 76 71 80 70 77 90 99 100
79 97 96 94 95 92 90 84 83 84 85 82 84 81 77 76 81 88 90 90 95 98 97 99 84 79 78 71 82 82 82 77 86 91 77 86 72 78 80 75 76 69 74 78 85 96 99
81 92 95 96 98 94 92 85 96 100 98 99 94 85 79 76 80 78 74 98 96 97 97 94 96 72 65 74 84 76 86 94 96 97 99 93 91 85 82 92 77 85 93 98 98 99 98
68 59 94 95 97 94 96 98 93 98 97 82 90 94 69 66 66 65 72 96 96 100 96 65 68 70 96 67 74 73 90 98 95 95 99 100 95 97 88 91 88 88 95 99 96 97 98
46 33 95 100 97 99 99 98 99 87 91 80 91 90 81 78 73 64 79 98 99 100 83 65 72 98 95 68 66 81 97 99 92 82 99 100 98 80 85 77 68 81 99 81 100 100 97
41 32 90 98 93 96 99 100 98 86 89 84 93 91 99 75 76 81 89 99 100 80 68 57 70 70 74 74 96 98 98 85 89 77 77 88 100 81 69 68 62 72 60 83 94 96 97
33 31 63 89 53 65 92 92 76 74 68 74 79 77 93 95 85 83 98 99 90 75 70 65 66 58 62 85 95 92 77 64 57 58 66 78 94 74 72 65 68 69 68 57 56 73 88
28 30 26 76 48 60 71 80 66 68 56 68 77 97 95 91 92 98 94 88 85 82 70 68 56 52 49 52 62 69 79 72 57 54 62 55 68 89 64 53 51 57 62 55 75 68 76
20 31 23 43 47 59 62 70 69 70 81 86 98 91 90 95 97 95 71 75 80 88 83 76 55 45 39 45 69 61 68 58 57 58 58 54 71 92 76 60 55 62 56 51 51 68 80
17 29 26 43 50 57 64 59 54 63 74 87 87 92 79 80 80 79 79 82 88 72 84 70 57 39 41 60 58 63 64 56 54 52 55 59 69 76 91 70 69 68 60 55 64 81 81
18 27 24 37 56 62 76 74 53 52 64 81 85 91 92 96 86 86 81 84 90 88 71 66 51 56 50 68 58 60 55 54 49 45 48 56 76 75 56 54 54 62 65 64 62 59 70
37 23 21 34 67 70 75 83 72 52 62 86 87 84 74 87 82 89 86 90 79 67 67 71 72 65 64 72 65 66 57 62 62 54 52 59 78 72 63 58 56 62 60 64 65 55 60
43 15 27 20 63 70 77 77 88 67 54 86 93 91 98 88 88 88 86 77 74 69 60 67 69 68 74 72 66 58 45 48 49 53 60 61 76 87 80 62 59 61 59 60 61 60 52
55 12 30 16 54 72 80 86 82 83 71 74 86 89 94 82 69 79 75 71 72 68 76 70 67 68 61 57 49 45 44 47 48 56 52 60 69 87 89 73 75 59 43 46 55 54 58
60 10 30 15 59 79 81 79 77 83 74 75 85 87 88 69 59 74 67 68 62 66 69 74 66 65 66 61 64 61 64 54 53 52 53 55 67 83 86 90 54 50 46 46 49 52 53
66 8 33 17 64 76 78 74 69 66 70 69 79 86 78 88 74 75 74 71 68 85 79 69 60 61 62 76 66 64 80 63 63 55 46 50 56 74 74 76 55 50 43 38 40 64 52
68 7 32 20 68 74 71 72 66 69 69 68 74 80 72 80 72 72 81 85 76 83 87 72 68 59 60 86 75 70 77 55 70 62 67 70 69 76 76 76 65 46 45 42 56 55 52
66 8 32 27 67 72 74 78 77 79 87 78 70 67 75 76 75 70 72 78 78 80 87 72 71 70 80 80 78 73 68 65 64 55 59 70 71 76 69 74 70 44 47 55 51 55 54
72 9 30 26 69 74 77 85 86 78 70 74 77 69 66 71 72 72 74 73 74 76 79 75 76 79 76 93 81 76 69 69 65 67 59 63 66 66 64 65 48 43 46 45 47 53 56

GFSGBSN_850_rhum_102.txt.gz
RH
98 97 97 96 93 89 82 74 88 74 80 70 76 92 97 98 93 96 94 93 95 97 99 96 98 100 94 92 72 69 87 92 59 49 69 76 67 60 66 62 56 66 59 54 51 52 54
97 92 92 97 99 100 99 98 90 94 85 87 84 89 93 84 94 94 93 65 90 88 72 99 98 91 92 88 59 70 61 65 58 70 80 74 60 58 60 58 58 55 57 58 54 54 54
85 87 91 98 99 99 93 99 99 98 99 98 98 88 87 90 82 74 63 26 44 76 61 86 100 97 84 84 73 75 55 62 62 72 76 68 60 59 63 67 61 64 77 68 56 53 58
94 99 98 77 80 78 82 87 99 100 100 100 97 76 68 80 88 70 54 17 57 78 58 84 100 89 94 86 96 82 64 69 77 76 73 70 62 58 64 60 62 78 80 97 64 61 58
99 96 61 96 92 88 98 98 98 99 99 100 95 77 79 77 80 66 42 22 87 83 70 99 100 84 94 92 81 69 62 66 68 70 69 68 68 61 69 79 78 77 89 92 80 58 61
96 78 66 98 98 87 93 97 99 98 100 93 87 71 74 72 67 52 36 42 81 96 99 100 99 82 99 95 81 71 72 70 72 66 66 77 70 85 80 82 95 85 88 85 92 64 68
84 45 92 95 91 89 93 83 88 88 89 77 78 72 64 65 60 57 51 57 90 99 100 90 93 88 85 82 78 79 75 71 67 68 66 76 87 88 80 76 69 79 83 82 73 61 74
82 80 96 98 100 96 90 77 87 78 76 74 74 74 70 62 53 76 71 82 98 99 96 99 92 88 83 76 80 77 75 70 70 81 67 86 89 70 68 72 72 75 88 90 74 66 73
81 97 99 100 100 96 93 93 78 70 72 71 74 72 63 61 70 79 82 97 92 100 99 97 98 86 77 69 78 78 68 74 71 78 78 86 70 64 69 76 84 83 96 84 87 78 77
93 89 93 99 100 81 89 92 77 73 72 72 68 68 68 68 73 97 88 88 93 98 100 100 98 92 71 65 74 68 66 75 76 80 73 86 70 71 70 77 86 96 74 71 80 94 95
88 92 98 99 94 91 81 93 97 99 96 76 69 67 69 70 76 80 89 90 98 100 96 98 96 92 72 73 77 80 74 73 76 62 74 76 80 83 92 85 64 90 65 84 81 90 100
40 69 92 98 97 84 92 97 96 84 84 82 72 72 72 71 64 76 82 95 98 97 97 98 88 86 78 80 81 88 79 79 85 89 80 83 70 80 78 75 77 70 80 78 81 94 98
26 79 90 99 97 82 85 92 89 81 74 69 80 86 83 77 90 83 89 99 93 95 92 97 94 80 73 92 82 76 86 87 92 99 98 92 90 83 80 93 78 87 96 96 98 98 96
27 68 95 98 91 87 84 91 89 85 82 76 77 76 67 77 78 71 82 91 92 86 90 87 71 76 82 74 79 79 95 98 89 95 99 97 98 97 86 90 89 86 96 99 96 97 98
26 27 93 91 60 59 61 82 80 82 89 92 84 68 63 67 76 87 86 90 98 89 80 85 94 88 88 74 88 88 89 99 87 85 96 100 97 82 84 80 74 90 100 93 100 100 99
24 29 49 69 53 52 46 53 50 61 57 57 49 60 80 88 86 80 89 98 98 76 76 68 80 77 88 92 98 98 98 88 83 75 74 93 99 82 72 82 76 80 76 99 98 96 97
22 32 30 45 52 50 44 45 54 35 48 51 54 64 76 80 66 70 97 96 82 78 78 63 64 63 82 92 87 96 85 66 62 71 83 86 89 65 67 67 65 74 94 90 75 90 97
25 30 22 45 53 49 43 36 44 50 52 52 70 92 71 65 78 91 95 85 77 83 74 74 58 50 55 76 80 76 76 74 59 57 84 71 77 93 65 51 53 58 65 67 86 81 83
47 23 22 43 53 65 60 37 37 43 52 57 81 84 63 76 95 97 77 73 80 82 86 81 65 48 42 49 73 68 68 55 58 58 54 55 74 92 71 50 54 67 58 57 55 68 87
50 17 26 24 62 65 72 63 39 42 47 62 80 94 68 67 81 84 84 91 85 69 83 72 70 45 51 66 63 65 64 55 54 54 55 59 71 76 86 72 69 74 64 60 64 87 90
62 14 29 18 49 58 57 58 50 42 44 58 80 92 88 96 87 91 83 87 86 82 69 64 66 70 57 70 62 69 59 58 50 50 53 57 76 76 62 61 56 62 69 66 71 63 83
66 16 26 20 24 61 67 67 58 45 46 50 81 82 79 80 82 86 86 82 80 72 74 78 77 70 74 86 80 74 66 63 61 57 58 63 78 73 63 59 60 59 61 66 69 62 72
75 23 20 24 19 61 68 74 63 54 55 66 84 86 91 80 83 87 86 82 79 73 65 70 74 68 72 74 71 65 61 52 54 56 62 65 76 86 71 75 59 57 60 60 63 68 60
80 42 15 27 30 61 65 71 78 53 62 64 75 76 74 83 76 81 74 74 72 71 81 70 68 63 62 61 50 48 48 49 51 56 56 63 74 87 82 68 58 50 46 47 58 58 65
77 63 10 28 49 64 63 61 60 54 64 72 76 76 76 78 75 75 75 71 65 67 74 74 63 64 66 61 65 64 67 55 50 53 56 59 75 83 82 86 50 50 46 48 48 51 53
74 74 9 29 56 71 62 58 60 68 66 74 72 75 75 79 73 70 77 75 82 88 81 67 60 59 62 75 66 64 72 62 65 61 52 56 66 75 77 71 54 47 46 40 42 56 51
76 74 12 29 44 72 63 64 65 71 72 75 80 73 72 74 72 72 80 85 81 88 89 79 71 62 62 82 76 71 77 58 72 66 65 73 73 75 79 77 67 50 46 42 48 42 54
78 74 19 30 31 74 69 71 73 76 71 72 68 66 65 73 68 63 69 74 76 84 88 73 72 71 83 78 81 76 72 69 65 59 61 64 73 78 76 76 68 47 48 46 46 57 55
78 77 33 31 29 71 81 78 79 71 72 79 76 72 68 64 66 65 64 64 68 72 76 77 82 83 83 94 85 84 73 77 70 69 56 76 68 68 66 65 46 45 45 44 51 51 54

GFSGBSN_850_rhum_105.txt.gz
RH
98 92 74 67 77 94 96 98 73 74 93 96 97 97 84 73 94 72 87 94 92 95 98 83 90 100 99 93 84 93 59 86 96 75 56 80 71 62 68 62 58 65 61 55 52 53 54
82 80 63 94 78 94 98 97 93 73 98 98 100 98 97 64 61 72 83 95 55 48 69 81 97 99 92 88 84 94 90 96 65 62 82 77 68 61 61 61 59 61 67 66 60 58 58
78 95 89 100 100 100 97 88 83 98 100 100 100 99 88 80 68 76 69 62 22 44 57 56 100 97 80 88 86 97 93 64 63 69 82 72 60 59 63 64 64 64 79 74 64 55 63
84 95 93 96 99 99 100 96 88 97 100 99 100 100 85 74 62 59 49 38 28 77 74 47 100 94 96 92 92 86 97 75 85 80 79 70 61 61 60 63 59 67 77 96 62 61 56
88 94 95 99 100 100 100 97 81 84 92 94 92 85 69 58 51 46 39 32 79 78 73 77 100 84 99 97 89 95 80 72 79 76 72 71 62 60 67 76 85 72 96 83 83 63 63
93 93 99 100 99 98 100 100 96 87 68 68 70 68 58 58 56 43 39 38 97 99 100 99 91 91 100 94 97 84 69 67 70 66 68 70 66 84 82 74 94 86 92 83 90 67 72
92 92 100 100 99 95 96 95 94 93 93 83 69 62 65 65 59 56 48 63 98 98 98 92 88 95 90 89 85 86 70 72 68 65 70 77 86 92 82 76 70 80 87 91 73 62 72
92 94 100 98 99 95 86 89 83 96 81 80 74 69 68 77 68 70 70 95 98 98 98 92 92 91 93 90 88 76 72 74 68 84 75 79 86 70 71 73 77 73 81 85 72 67 72
91 98 99 94 97 99 89 87 85 80 88 75 66 58 66 69 76 75 91 99 88 95 97 98 100 98 96 86 80 80 75 70 72 81 83 87 64 65 68 78 80 78 84 85 87 72 68
65 97 98 99 96 95 78 96 89 82 78 80 78 69 70 65 66 85 96 97 78 98 99 100 97 96 89 73 78 77 76 73 76 78 76 85 70 74 76 85 83 90 68 74 82 95 96
51 95 98 100 99 70 63 82 85 69 71 80 92 79 76 60 72 88 100 99 98 97 93 99 95 90 88 86 85 78 68 77 77 65 68 73 75 80 87 80 69 81 70 84 87 97 98
28 79 98 99 100 83 42 59 73 64 54 68 64 65 72 75 80 90 96 99 98 89 97 100 98 94 89 79 81 84 77 76 81 82 78 83 66 75 84 77 76 72 84 83 80 88 98
27 67 96 100 96 89 45 33 52 52 51 59 62 58 62 70 87 79 92 97 92 94 95 98 94 81 80 89 80 77 85 91 95 100 98 91 86 80 81 90 80 83 97 96 94 99 96
24 34 92 94 99 60 48 28 29 44 64 62 56 53 54 62 72 82 86 90 89 94 98 88 75 77 98 86 82 79 96 100 89 96 100 98 92 96 78 90 94 91 98 98 96 97 97
22 24 48 68 55 63 44 37 22 27 37 46 55 73 81 81 86 85 94 96 99 93 77 87 82 80 87 94 93 94 99 100 89 88 96 100 91 83 85 77 84 92 100 94 100 100 99
19 23 33 52 58 44 44 42 25 28 30 36 44 57 69 63 62 62 87 96 97 79 76 80 82 79 81 86 87 92 96 86 86 75 79 92 99 79 70 85 80 91 87 100 99 97 96
41 22 20 60 60 64 35 39 34 33 34 30 37 51 59 54 53 60 98 95 84 78 81 74 67 67 80 88 75 89 83 71 76 82 83 86 90 74 71 79 66 89 99 99 97 99 97
61 17 24 40 66 67 53 35 36 38 34 32 36 84 59 47 70 89 96 90 78 80 78 74 60 50 68 78 86 81 74 72 62 79 96 83 85 97 67 51 53 58 68 75 98 88 83
76 33 22 16 52 64 67 54 38 39 40 44 54 58 56 58 94 97 79 77 78 82 82 81 71 62 49 58 69 69 67 54 59 60 56 59 75 93 64 50 55 69 63 64 62 70 88
79 63 14 26 16 54 64 69 51 43 48 58 60 90 58 65 86 85 91 90 85 67 72 72 70 55 57 67 65 68 68 55 55 57 56 57 73 75 84 72 67 74 65 63 65 89 94
77 71 17 28 17 45 64 70 67 52 57 57 65 94 90 96 89 91 84 83 84 84 69 66 66 77 61 74 67 72 67 64 52 53 57 57 72 76 62 60 58 60 69 70 88 75 93
75 72 36 21 21 58 66 70 69 51 60 58 66 76 78 80 81 84 85 82 87 84 78 76 75 72 77 81 76 77 80 63 62 60 59 67 82 73 54 62 65 57 62 67 71 69 81
75 73 50 15 23 57 64 63 56 45 60 60 77 75 58 82 80 85 88 83 80 78 68 72 78 74 71 71 74 71 68 61 58 60 66 68 76 83 66 73 60 52 57 61 62 66 66
74 78 61 12 24 52 66 60 52 48 57 62 66 84 61 83 80 81 76 75 75 75 81 73 69 68 63 67 61 60 59 55 53 55 60 66 77 86 85 64 50 47 50 49 58 58 63
63 82 68 14 25 50 66 60 56 53 64 66 67 72 69 86 74 75 72 76 71 67 74 75 64 64 66 65 65 62 66 47 47 51 56 62 78 83 82 84 46 48 48 53 52 52 53
57 80 76 19 24 47 64 70 60 62 69 71 66 66 74 71 77 63 74 76 88 90 82 65 60 60 61 72 68 65 66 62 57 63 53 64 69 75 79 70 46 41 47 41 42 58 52
52 79 82 32 24 45 59 72 65 67 69 74 77 73 71 71 70 69 75 77 79 90 93 80 73 67 64 82 78 74 79 62 69 70 66 71 76 74 81 82 65 51 46 42 48 36 55
47 82 82 56 24 43 64 74 81 72 67 70 67 66 72 72 68 65 66 69 77 86 87 71 75 73 86 79 84 82 77 73 75 61 62 64 69 76 80 78 59 49 49 48 43 56 55
45 84 89 74 17 35 69 77 82 73 75 77 71 70 70 70 67 66 65 61 63 69 75 76 81 82 83 94 89 89 78 80 71 75 57 76 66 69 70 65 46 46 42 42 45 49 54

GFSGBSN_850_rhum_108.txt.gz
RH
79 92 93 98 97 100 100 97 99 93 97 73 98 100 100 99 91 86 76 77 55 74 31 49 76 96 99 98 92 97 87 91 93 93 77 73 67 62 70 63 59 66 62 61 59 57 58
89 91 99 96 100 100 100 100 100 100 96 100 100 100 100 69 76 82 75 52 48 27 44 83 77 86 100 91 87 83 98 99 83 70 80 76 69 60 64 63 61 65 68 66 58 54 60
91 94 98 96 97 96 98 99 95 98 99 91 98 99 95 67 56 56 52 39 31 24 48 74 100 100 100 94 87 92 94 97 81 66 81 67 62 58 62 64 63 63 76 75 64 60 64
92 96 99 94 99 98 97 98 99 94 95 92 83 74 58 56 48 45 45 33 57 77 64 64 99 98 99 99 93 93 90 83 74 86 79 71 61 61 61 65 58 66 71 82 50 63 58
93 99 98 98 100 99 91 82 100 98 86 92 81 58 63 56 48 42 36 100 97 80 74 88 98 88 99 98 100 96 91 86 80 75 73 66 61 62 64 78 82 78 92 85 77 63 62
93 98 99 96 98 98 76 66 96 98 93 66 78 71 56 60 53 48 37 98 96 84 96 98 89 76 100 98 100 86 80 76 68 67 66 64 68 84 85 84 76 80 98 86 88 66 74
94 100 98 98 99 100 95 64 72 88 80 62 64 68 67 60 50 46 45 97 78 91 87 100 98 98 99 100 92 80 71 70 65 62 75 78 90 96 83 74 70 78 88 93 73 62 71
70 98 96 99 98 99 100 97 52 68 81 63 65 71 72 66 64 60 49 84 98 97 97 97 90 94 94 90 92 79 71 73 67 81 75 80 90 73 72 73 79 82 92 88 74 67 74
37 97 94 98 98 99 98 61 39 41 54 62 63 68 68 74 77 67 85 97 98 97 95 98 100 100 98 89 88 82 73 70 70 81 85 85 63 64 72 80 86 87 91 88 84 70 68
27 80 97 98 97 98 97 47 34 32 31 44 54 61 55 62 70 84 85 96 96 95 93 100 96 96 92 82 83 78 74 72 75 82 81 87 72 72 76 85 81 92 68 72 80 88 92
27 32 97 97 98 98 100 58 45 28 28 35 46 53 59 67 85 91 97 97 90 88 92 98 98 96 84 91 79 78 75 81 83 68 70 71 71 86 87 77 74 82 67 76 86 95 98
24 34 47 99 96 98 99 89 49 39 30 34 43 52 58 67 82 97 100 83 78 80 96 100 98 94 95 84 86 81 70 77 78 86 74 79 68 72 81 78 77 72 85 84 90 95 97
21 24 36 45 82 95 99 89 50 44 38 44 58 71 77 76 73 77 82 83 85 94 97 100 100 96 89 88 88 84 89 96 94 98 97 82 80 75 77 89 79 88 97 97 92 100 93
17 22 33 31 50 56 74 59 71 61 45 49 49 63 75 80 86 86 79 86 88 94 95 83 80 96 89 83 81 85 90 97 90 92 100 95 84 85 76 81 92 97 99 98 96 99 92
38 19 20 45 39 43 41 35 44 52 54 50 48 55 62 66 68 72 74 95 100 93 80 84 82 86 100 96 93 88 99 97 92 94 100 100 90 82 83 77 82 93 99 92 100 99 99
68 17 20 22 44 41 34 37 40 42 47 45 51 52 50 50 58 60 85 88 97 83 77 77 81 75 81 90 96 99 99 86 92 82 78 90 98 77 73 86 83 92 82 100 99 97 96
70 52 15 20 16 42 44 36 36 38 38 39 47 50 53 43 53 56 99 96 86 76 82 81 68 79 79 98 84 87 82 75 79 79 78 87 90 77 72 87 68 94 99 99 100 100 97
82 67 20 21 15 16 44 54 35 36 36 43 49 78 51 45 66 88 93 86 78 77 79 77 71 53 71 83 91 90 76 73 64 82 94 83 90 98 72 55 53 59 69 88 98 97 97
70 80 50 14 22 17 43 54 56 37 44 54 52 53 53 42 92 96 80 77 77 81 80 80 69 66 57 64 71 70 67 54 62 79 64 64 77 91 59 54 54 68 65 67 72 80 89
64 72 73 15 22 22 50 53 62 45 52 57 57 82 55 64 88 86 95 87 82 67 72 71 74 59 57 67 65 64 66 56 55 59 58 55 73 74 84 72 69 73 70 72 70 92 89
48 72 71 34 21 26 55 55 59 43 53 55 59 95 90 94 88 86 82 84 88 86 72 67 66 80 81 70 68 74 70 65 53 54 59 58 67 78 66 64 62 61 67 77 91 82 93
32 69 73 56 20 29 54 56 46 40 49 56 62 70 76 86 80 74 84 84 88 84 81 79 79 83 78 82 82 84 80 66 64 62 62 69 76 75 62 59 68 56 59 63 69 71 84
24 59 73 63 18 38 50 54 44 45 54 60 67 71 68 85 81 82 88 81 80 77 72 74 79 78 73 74 76 76 75 74 66 67 68 70 75 81 66 67 53 46 51 60 62 65 74
31 50 74 67 17 35 53 51 44 49 61 64 67 69 59 82 82 82 78 75 74 75 82 74 69 72 62 67 66 68 73 70 64 58 65 68 78 86 86 61 45 38 50 50 60 60 65
32 41 75 72 20 26 56 52 52 54 65 68 70 71 68 81 80 80 75 72 71 68 76 76 66 66 67 66 66 63 64 44 48 52 58 68 77 80 82 85 41 46 51 55 56 51 61
36 50 81 79 30 25 57 60 57 58 65 68 70 69 71 67 73 69 74 75 80 82 77 65 61 61 61 71 69 62 58 64 57 62 58 65 73 74 77 70 32 32 48 42 42 64 54
66 54 67 83 56 24 52 66 67 65 64 65 66 71 73 69 64 65 76 79 78 89 87 80 68 68 63 80 78 75 81 64 71 70 61 72 75 73 79 86 65 48 46 43 52 37 52
92 58 73 87 81 23 40 63 72 69 68 67 68 66 71 69 64 62 67 68 76 84 84 70 75 74 86 77 86 84 84 76 78 65 59 66 70 78 85 86 64 48 49 52 43 50 52
97 88 62 90 88 38 31 57 73 76 72 74 72 69 67 73 63 64 62 65 63 66 76 76 86 82 86 94 93 91 85 85 75 78 58 80 67 64 71 64 42 45 43 38 46 50 53

GFSGBSN_850_rhum_111.txt.gz
RH
92 96 91 99 93 87 99 100 100 99 98 83 93 97 99 98 96 92 71 64 59 35 42 54 85 90 89 98 99 78 86 99 100 78 62 58 60 61 71 66 60 67 64 62 59 57 58
94 95 87 89 96 89 99 100 99 92 99 96 98 88 87 82 80 64 53 45 54 23 26 82 91 89 95 88 85 81 87 100 100 80 63 71 64 59 63 63 59 64 67 66 54 55 60
98 97 96 96 93 91 96 99 98 92 64 100 90 96 86 89 85 58 42 38 33 25 46 88 74 86 97 96 89 99 98 99 82 54 74 65 63 53 58 65 62 66 67 67 60 60 60
98 88 90 95 88 88 98 99 98 88 84 40 65 91 82 87 68 43 42 97 87 71 53 100 100 91 98 98 90 89 92 84 79 80 70 60 59 56 59 63 61 66 67 59 44 62 58
96 88 87 89 84 88 99 99 100 97 52 44 44 48 53 48 46 43 92 98 82 72 79 99 93 77 97 99 98 91 86 85 82 79 71 65 58 64 64 74 69 74 72 76 66 62 63
97 92 87 85 86 90 98 98 100 92 53 50 52 55 50 44 39 42 94 89 95 94 100 97 92 89 99 100 100 98 86 76 70 68 64 63 68 80 82 76 56 62 87 82 80 60 67
81 92 88 85 88 93 98 99 97 98 62 52 49 46 49 42 33 48 94 90 81 90 92 95 96 100 99 92 86 93 82 63 60 60 80 79 83 82 76 72 66 76 84 86 71 59 69
57 79 87 87 89 93 95 85 93 74 72 54 43 47 52 45 47 47 82 85 99 96 91 100 97 98 96 94 88 81 71 67 66 81 73 78 80 68 70 72 76 80 87 85 72 65 68
39 60 71 87 89 92 99 71 69 65 59 47 48 48 58 59 64 56 75 98 96 88 86 96 100 100 98 88 86 77 72 68 70 80 81 77 63 68 70 80 83 85 88 84 82 71 68
26 54 54 46 88 91 94 97 54 56 54 49 50 59 54 50 48 70 76 88 86 78 91 99 94 97 92 90 88 78 74 74 76 75 84 84 71 69 77 82 80 90 71 72 76 84 87
21 29 63 39 38 87 96 94 96 48 55 53 53 57 74 59 68 75 87 81 75 67 88 97 95 96 84 88 81 79 76 73 88 86 71 67 72 86 87 77 74 82 68 75 77 91 99
20 22 49 52 36 32 72 98 97 87 59 77 83 79 62 68 56 74 76 72 62 80 97 98 97 96 88 86 86 80 74 76 76 89 76 71 64 73 72 70 74 69 86 85 89 97 97
49 18 22 57 57 33 30 44 79 82 64 61 68 78 70 60 60 61 62 59 83 93 94 100 100 93 86 85 88 84 82 84 90 90 90 80 81 72 70 89 83 83 92 92 89 98 89
69 26 21 18 52 48 34 38 46 44 52 50 49 69 68 67 64 56 61 79 88 92 89 82 83 86 76 86 84 86 91 96 91 92 94 93 86 80 75 80 89 98 99 98 97 94 84
69 62 13 21 14 43 48 40 36 39 42 44 46 64 63 62 65 62 61 90 99 95 80 84 84 95 97 95 85 83 95 86 81 82 92 99 88 81 81 77 81 95 100 92 100 99 97
75 67 42 16 19 15 45 49 43 34 36 37 45 56 56 58 59 61 83 90 96 84 80 76 84 77 85 82 89 91 91 78 86 83 82 91 96 71 77 83 80 94 84 99 98 95 94
52 74 60 15 22 21 45 49 48 35 33 37 45 51 55 51 52 56 97 95 85 78 82 76 70 80 85 90 87 86 83 77 78 84 85 88 92 75 74 93 97 96 99 99 100 100 95
30 66 69 30 21 26 50 53 53 40 35 34 42 80 59 49 62 84 91 83 79 76 79 79 76 56 73 83 89 90 80 73 70 80 96 80 89 98 75 55 54 61 91 96 95 96 94
21 42 73 50 18 33 51 54 50 37 37 34 42 49 58 48 86 94 79 76 76 79 78 78 70 64 59 69 74 77 66 56 67 84 79 76 85 91 60 56 55 76 96 89 98 90 89
21 31 60 68 17 39 54 48 38 33 39 40 47 79 54 60 80 82 86 85 83 70 73 71 75 66 61 67 65 67 68 56 57 61 63 57 72 74 76 66 66 74 66 85 82 93 84
22 24 50 67 21 36 53 48 41 35 40 42 53 94 85 87 85 85 82 82 84 87 75 70 66 82 83 76 69 76 74 67 53 55 62 60 72 78 71 68 63 67 63 77 90 82 92
37 25 44 66 31 34 49 44 41 39 41 42 55 67 76 83 84 75 81 84 82 79 81 77 78 82 77 81 83 90 83 69 66 64 65 70 76 77 77 61 69 69 56 68 70 84 88
53 38 38 66 47 26 53 52 43 47 45 49 62 65 60 85 81 81 82 82 80 79 73 73 77 80 72 72 74 77 78 75 74 69 72 75 77 82 72 64 60 52 53 64 64 70 78
81 56 34 62 62 23 47 56 52 56 53 52 58 64 56 76 86 81 81 75 79 74 76 72 73 74 61 66 68 73 84 85 84 73 68 71 77 85 88 60 37 34 50 52 62 62 69
88 80 51 56 70 25 41 55 61 57 58 57 56 63 67 73 78 77 78 78 74 71 82 75 64 62 61 61 66 60 58 43 52 56 68 74 79 82 79 83 36 43 47 56 60 55 62
88 97 81 52 72 38 34 50 66 62 61 62 61 63 64 65 68 67 74 75 79 78 76 69 66 67 64 72 67 56 51 62 59 62 70 72 73 72 80 63 28 26 48 44 44 54 41
92 96 95 64 75 62 27 51 60 69 65 63 60 61 66 69 63 65 74 77 75 87 88 80 72 74 72 78 75 75 76 67 70 68 57 71 72 75 76 81 60 45 47 42 52 35 47
97 100 99 89 77 80 39 30 62 64 71 74 68 64 64 66 62 60 63 69 78 84 81 66 74 74 85 74 83 85 84 77 80 69 60 58 64 76 84 86 64 49 51 50 44 42 49
95 99 98 98 73 89 70 28 42 66 69 72 76 73 69 64 60 58 60 62 65 67 72 78 79 83 86 94 93 91 91 91 79 78 65 71 65 62 67 62 44 46 47 38 41 45 44

GFSGBSN_850_rhum_114.txt.gz
RH
94 92 95 87 86 84 83 86 90 96 96 98 78 97 95 91 92 86 69 61 50 44 45 69 86 77 97 97 99 81 84 98 86 51 42 52 46 47 44 45 54 45 49 54 51 52 49
96 94 82 85 84 84 92 86 87 97 93 96 96 73 81 98 86 67 68 53 41 35 32 68 94 100 91 91 100 100 92 99 82 65 55 57 57 54 53 49 42 50 51 48 47 45 48
100 97 81 94 87 92 94 87 86 87 98 97 86 56 52 47 50 42 39 37 33 29 48 59 84 95 80 99 100 94 100 95 88 63 66 58 51 51 54 53 60 57 46 40 41 46 42
99 98 84 92 95 98 97 86 93 88 86 91 95 51 48 39 35 59 97 98 84 46 91 83 88 84 98 99 100 88 79 74 74 67 60 59 57 57 53 57 52 46 46 36 35 46 49
98 99 92 92 94 97 98 98 92 95 74 76 95 58 45 42 42 94 98 74 59 97 99 93 90 84 99 91 93 88 86 80 79 73 66 59 50 61 56 51 45 46 54 43 34 47 50
100 99 96 96 90 97 100 99 96 86 77 70 85 49 43 36 65 90 96 88 98 94 94 94 92 85 96 100 100 94 81 76 73 70 63 62 62 55 56 49 42 43 60 50 44 42 46
98 98 100 99 88 88 100 89 96 83 75 68 66 57 46 36 86 87 85 82 85 92 97 100 97 100 98 99 98 87 75 64 62 56 56 65 53 63 57 48 46 48 50 51 44 41 56
35 93 94 99 95 92 84 85 62 47 66 78 63 64 48 46 81 73 66 84 91 93 94 99 98 97 95 87 92 76 72 60 57 63 60 57 54 56 55 57 56 56 58 53 49 51 54
22 60 80 96 99 95 79 73 54 54 54 61 67 63 53 59 73 73 72 87 87 77 87 91 98 98 96 86 75 74 73 67 58 61 59 53 60 58 56 64 64 57 60 58 65 55 47
20 24 73 79 91 76 71 49 55 66 71 75 64 77 51 50 74 82 82 84 76 69 87 96 84 93 88 88 80 78 76 74 64 64 65 61 60 57 60 60 58 66 52 58 64 71 79
51 18 23 76 70 73 45 38 39 43 49 70 74 67 46 37 58 68 72 63 61 58 79 86 85 88 87 77 78 76 74 73 72 72 64 58 65 70 73 65 58 59 58 64 67 81 92
71 26 19 20 67 65 65 44 38 40 41 57 70 62 62 56 59 66 61 61 59 89 91 91 97 94 83 86 78 77 74 74 74 72 64 59 57 58 54 55 58 50 64 66 68 87 94
70 63 14 22 17 47 56 50 37 37 39 51 59 61 59 52 55 55 55 52 93 83 87 86 87 78 69 71 70 70 66 65 71 91 89 70 69 61 60 70 66 73 80 85 84 88 70
62 73 39 16 21 25 54 57 45 34 36 38 52 58 57 58 50 50 50 71 78 76 75 71 76 75 69 77 70 72 72 78 79 76 80 87 84 69 61 64 72 73 97 94 86 71 64
46 63 62 16 21 34 56 51 48 34 34 32 42 56 59 56 56 53 64 93 94 78 67 72 73 68 82 87 72 73 86 83 76 76 82 90 73 65 64 63 69 89 98 77 100 94 92
22 58 60 30 19 36 51 54 50 35 37 34 39 50 59 58 53 55 82 89 85 76 72 66 73 68 69 70 75 78 74 66 75 74 69 74 83 60 69 73 73 90 90 99 98 86 81
22 33 61 43 18 36 51 50 45 37 34 37 39 46 51 55 52 63 97 87 74 75 80 70 62 68 68 72 72 71 67 65 67 78 79 85 82 65 66 80 89 81 98 99 98 86 79
26 26 54 53 17 36 45 39 31 36 36 35 40 88 55 51 76 80 77 71 76 70 78 71 70 53 61 70 71 69 65 59 65 68 78 69 78 85 61 51 53 59 90 97 84 92 74
40 28 39 60 22 34 44 36 32 36 35 35 41 47 52 52 80 76 70 68 70 67 68 67 62 59 55 59 63 64 58 59 69 68 65 65 73 78 54 52 51 58 81 93 79 79 76
75 34 37 57 36 26 42 37 32 37 37 38 38 88 54 54 72 61 67 72 70 72 69 68 64 59 53 55 55 58 52 54 59 61 69 62 60 64 60 51 54 58 54 80 73 86 65
82 54 41 52 53 21 42 40 35 37 39 39 50 82 74 80 69 70 68 69 69 67 69 66 57 67 67 57 53 56 60 53 52 56 60 55 67 68 55 51 54 57 53 66 76 70 74
86 81 49 47 59 24 34 43 40 39 40 41 58 76 72 80 77 69 71 67 67 68 64 60 55 62 61 61 62 67 68 58 54 49 53 55 68 64 68 53 57 59 49 48 68 70 65
78 83 70 47 57 34 28 44 46 40 39 45 50 56 57 85 71 68 62 64 63 70 68 68 62 62 62 57 61 61 66 65 61 64 56 59 61 65 57 47 45 42 36 44 50 54 61
77 79 89 52 59 52 27 44 49 48 42 46 49 54 58 59 63 57 70 73 68 69 74 70 77 68 66 67 68 78 83 79 75 70 63 57 61 69 75 52 42 34 44 43 48 48 49
85 86 87 71 57 63 29 41 53 52 53 51 54 55 56 51 60 65 72 67 69 68 70 76 70 69 67 66 53 44 44 44 51 58 61 57 57 62 63 49 24 32 36 46 48 41 40
90 86 90 94 54 75 37 38 55 57 57 55 55 59 61 57 49 65 66 70 59 60 58 67 62 63 65 58 54 47 32 42 42 49 55 60 58 54 60 53 27 25 42 44 41 40 36
96 95 99 99 87 70 63 34 54 60 60 65 63 60 61 72 55 59 64 64 73 76 61 69 69 72 69 56 52 49 47 55 46 47 52 59 57 63 52 47 32 30 42 44 44 29 40
99 100 100 99 97 67 77 49 39 59 61 65 70 71 69 66 60 57 58 65 74 79 58 63 63 72 74 67 59 54 61 54 61 52 47 40 40 49 53 60 54 44 48 42 34 41 48
96 100 99 99 99 97 74 79 41 43 62 64 70 73 74 72 60 58 57 55 61 64 63 68 73 78 75 74 72 68 65 67 59 46 53 52 40 41 42 33 40 47 43 42 44 46 47

GFSGBSN_850_rhum_117.txt.gz
RH
96 96 97 98 99 96 92 84 80 79 93 96 96 90 85 76 91 86 83 63 60 66 63 68 84 100 93 94 98 88 98 94 70 58 49 41 30 30 28 30 37 28 34 38 38 40 38
94 98 96 99 97 99 94 89 86 84 87 85 82 84 69 50 53 67 79 70 56 42 56 86 87 97 87 91 98 90 89 96 69 60 56 47 42 40 38 37 33 37 39 36 35 34 35
97 96 95 99 98 98 91 84 86 71 88 67 70 89 56 45 46 41 48 46 45 26 42 100 98 81 85 100 100 98 100 88 68 62 61 57 48 40 40 40 46 44 38 30 31 34 33
99 98 97 96 97 98 96 88 79 63 61 90 94 86 46 46 90 96 87 88 51 72 54 100 90 96 97 98 96 82 86 71 65 64 60 56 49 47 42 44 40 36 37 35 33 39 39
95 99 93 95 98 97 98 96 82 71 59 49 43 43 41 86 77 71 70 90 98 98 86 98 92 85 99 96 95 79 79 72 66 62 57 53 50 47 45 44 40 40 50 34 30 37 38
79 88 93 97 97 98 98 74 95 74 63 54 36 37 49 92 91 99 93 96 98 97 97 82 80 76 97 99 99 94 85 71 66 63 56 50 46 43 41 45 46 36 44 36 30 37 39
31 72 64 83 81 99 99 98 79 59 63 52 36 36 86 95 94 89 86 88 92 92 96 99 99 98 98 100 96 91 72 58 55 49 45 50 46 56 50 37 34 32 31 32 29 31 47
18 50 62 66 52 57 94 95 93 77 64 67 37 32 71 86 76 65 69 87 99 97 93 96 99 96 90 91 92 70 69 54 50 53 47 48 46 43 43 44 42 40 42 36 40 42 44
40 18 22 45 50 30 39 75 70 69 74 67 49 25 65 71 70 65 67 77 81 85 71 80 90 94 90 78 67 68 61 54 45 48 44 45 52 47 46 50 48 41 44 44 52 47 38
63 21 20 15 42 36 33 43 59 54 61 67 58 30 47 59 72 64 69 69 66 63 78 85 74 82 78 78 65 74 74 66 51 52 47 46 47 47 48 47 46 48 43 49 54 67 75
69 48 15 19 14 36 38 32 43 52 53 62 61 39 40 48 60 75 60 59 53 64 72 75 78 76 70 62 66 67 74 63 56 57 59 54 58 59 58 52 47 52 50 55 58 72 87
68 66 26 18 21 22 38 33 32 40 49 56 60 57 47 51 57 55 53 52 60 90 90 81 79 79 74 61 64 66 66 66 62 58 54 50 48 50 50 46 50 46 57 57 59 66 90
49 68 47 18 22 35 34 38 27 31 38 52 57 56 52 56 70 53 50 66 95 81 72 74 70 57 49 56 58 55 57 55 63 91 87 65 59 53 52 59 55 61 76 80 94 96 71
32 59 61 20 23 40 45 39 33 30 31 41 55 57 59 54 52 51 57 62 78 69 61 59 61 57 61 63 57 59 60 69 65 61 69 81 80 59 55 58 66 76 78 91 87 75 60
28 44 62 27 24 42 44 41 31 31 30 44 50 54 57 58 54 58 62 93 90 65 56 58 60 51 62 61 63 58 65 71 67 64 68 74 64 51 52 51 59 92 95 76 99 69 87
43 32 54 40 23 41 35 31 30 29 29 38 40 47 53 54 58 64 75 84 68 62 60 56 70 58 61 56 59 61 57 56 65 65 58 64 77 52 64 65 64 71 83 99 100 88 83
55 38 47 52 20 38 37 28 30 30 30 34 35 62 45 47 55 62 92 73 61 64 66 57 53 52 54 58 59 56 54 55 56 69 66 71 70 61 59 70 60 88 91 98 92 78 84
75 48 43 56 24 34 39 31 29 31 32 34 46 89 45 44 73 59 66 57 65 60 66 57 56 48 48 55 53 54 55 52 55 59 64 57 64 78 54 41 45 51 71 86 86 90 65
80 58 49 53 38 27 37 34 32 29 30 32 58 62 39 40 72 65 60 59 62 58 56 55 52 50 48 50 54 50 48 54 58 57 57 54 66 72 54 48 45 58 70 81 71 74 79
80 73 57 51 53 24 34 36 37 32 29 30 52 86 59 59 63 47 55 59 61 66 57 56 49 50 46 44 44 46 40 46 54 55 60 59 56 58 59 41 44 49 46 68 72 88 64
76 79 67 58 56 33 30 38 38 34 32 32 51 72 68 68 56 54 55 57 56 56 59 55 47 49 45 41 42 39 42 42 47 52 56 53 62 57 51 43 40 42 47 42 74 69 73
74 72 75 65 55 51 26 37 39 36 35 36 60 61 70 63 62 54 60 54 56 50 57 44 51 45 46 45 43 44 48 41 36 43 42 46 62 50 64 38 44 48 43 42 41 50 57
81 72 78 74 57 57 32 31 41 39 33 36 43 52 67 71 56 54 44 49 52 59 57 58 58 53 44 53 62 56 53 50 49 50 45 48 52 53 53 39 37 36 31 33 36 39 49
96 87 80 83 64 58 43 30 39 45 46 44 39 42 54 46 49 43 52 56 53 57 57 56 61 55 59 64 58 55 62 57 56 54 56 54 50 55 73 51 54 33 37 38 29 34 36
96 100 95 90 80 58 58 35 37 46 50 51 46 45 59 40 41 48 54 54 55 56 61 56 53 58 63 58 42 33 31 39 42 49 53 54 55 57 65 47 28 19 30 40 46 35 32
99 99 100 99 99 73 64 49 36 46 50 56 56 53 51 51 36 50 52 53 49 43 45 56 66 62 69 46 43 43 29 30 30 41 46 50 52 60 46 53 31 30 37 38 37 37 32
95 99 99 98 98 96 66 67 41 40 54 56 62 61 61 64 54 52 49 49 55 55 48 51 56 68 70 45 45 38 35 38 37 37 49 54 54 61 54 54 35 30 38 39 43 39 36
91 94 99 98 98 97 95 74 67 43 46 58 60 67 69 75 65 55 51 61 69 67 45 55 54 65 60 57 44 38 44 36 47 32 35 35 36 47 41 44 55 34 43 39 34 37 39
88 91 95 98 98 97 99 91 84 67 44 50 62 68 73 75 64 56 57 50 51 65 66 60 59 61 55 66 54 47 51 46 40 36 38 45 30 26 28 30 34 36 33 36 43 44 41

GFSGBSN_850_rhum_120.txt.gz
RH
97 90 87 99 95 96 98 89 74 69 88 94 92 76 78 43 57 74 82 59 52 71 65 68 96 100 96 88 99 92 99 87 49 54 47 40 34 29 35 32 35 35 33 32 35 37 37
98 93 84 96 93 86 95 84 86 94 90 93 94 55 45 41 44 46 46 44 40 54 69 76 96 100 86 93 99 96 100 77 55 52 46 38 34 35 33 36 37 35 37 35 33 33 33
99 99 84 90 97 90 78 86 96 78 63 78 40 42 77 86 78 86 91 48 30 41 87 82 95 94 78 99 100 100 100 70 62 57 58 48 41 38 37 42 42 41 37 37 34 33 34
71 98 77 93 96 90 85 72 91 67 41 41 38 71 81 77 76 75 84 76 58 51 99 84 96 85 97 100 98 100 99 72 63 59 52 47 42 43 42 42 38 38 36 45 40 39 44
72 83 78 79 96 94 96 80 56 48 34 39 47 80 92 99 94 89 91 96 81 95 96 99 87 87 99 94 96 85 77 70 60 55 50 48 45 44 42 47 49 42 68 39 46 35 38
20 61 75 76 90 96 90 97 75 52 35 38 58 90 94 98 100 92 89 94 94 92 93 91 83 81 97 99 89 80 74 65 61 55 49 46 43 49 45 56 66 48 50 37 34 47 44
15 19 36 77 85 82 52 90 94 63 50 33 64 84 91 82 70 66 72 78 92 92 95 99 99 99 98 87 80 70 58 54 53 47 50 45 53 78 51 43 36 32 32 31 30 42 49
44 15 17 22 69 89 54 48 57 60 53 38 44 73 76 64 62 63 69 85 92 91 96 91 96 92 89 84 69 66 63 52 50 56 42 52 58 44 42 41 39 36 39 41 48 42 46
61 22 18 18 26 70 67 40 50 55 47 31 32 61 60 63 63 60 63 76 76 75 68 71 76 85 83 74 67 68 60 48 46 47 46 60 55 42 42 46 44 42 42 46 54 52 48
65 48 15 24 26 41 54 41 44 51 50 32 25 49 60 62 61 65 60 59 54 69 89 81 69 72 69 72 61 69 72 65 49 52 52 52 44 44 46 44 43 50 45 48 54 76 92
61 62 20 20 35 37 43 43 36 45 50 50 31 42 56 54 61 80 60 57 49 81 90 74 71 70 68 60 64 64 64 55 59 53 60 60 58 57 56 51 45 60 51 57 59 62 83
40 60 41 20 40 42 41 42 32 35 47 52 50 36 44 52 61 60 56 53 73 91 96 74 64 62 54 53 57 62 61 61 61 53 51 50 46 50 52 46 49 49 59 61 54 71 92
36 49 51 21 41 39 41 36 30 32 38 48 54 49 43 45 52 49 49 68 94 92 65 66 65 47 49 53 54 52 54 60 71 85 78 66 59 53 50 56 53 57 65 93 81 94 92
39 45 56 22 39 34 33 28 31 30 40 47 52 52 53 50 46 48 62 88 85 66 62 54 56 53 63 57 55 56 54 68 62 56 69 86 87 62 57 59 66 72 76 84 81 97 88
54 43 54 33 28 38 28 29 30 28 41 44 44 50 54 50 57 64 71 91 85 62 52 57 63 56 61 56 61 54 60 66 61 56 70 75 68 52 55 50 57 87 86 78 96 88 97
65 48 51 50 21 35 33 29 32 29 32 38 38 58 45 51 60 62 87 84 70 56 55 53 63 53 54 55 58 56 56 54 62 59 55 65 71 52 68 63 61 69 78 95 100 97 94
74 57 52 55 31 28 33 30 30 30 30 31 32 61 40 42 61 61 98 75 60 59 61 58 51 49 48 52 51 51 55 58 56 66 61 65 66 65 68 79 78 86 88 91 93 91 96
76 64 58 54 46 24 34 32 31 29 28 32 51 95 38 52 77 53 80 59 60 56 62 55 58 48 48 50 51 50 53 53 54 56 62 60 66 88 62 47 44 53 70 82 98 95 82
77 71 64 57 55 32 29 36 32 31 28 32 56 45 37 54 92 81 58 57 60 56 53 53 51 49 45 48 58 47 47 54 56 55 63 58 74 89 66 52 52 63 66 74 72 75 90
72 73 69 64 56 48 28 35 35 31 29 31 54 93 60 50 54 52 56 59 60 61 57 54 50 48 46 43 40 47 40 48 54 52 54 60 65 69 83 54 51 58 59 80 80 95 69
69 71 72 70 60 56 36 33 36 32 29 41 52 73 64 92 62 52 53 55 54 56 61 51 50 47 48 46 38 37 39 39 48 53 53 61 74 66 63 54 52 53 49 58 84 78 80
72 67 71 73 66 58 49 32 36 35 31 34 62 66 58 60 58 53 63 58 54 50 54 49 53 48 46 52 49 54 51 45 42 52 47 52 76 63 70 50 50 54 47 44 45 60 74
76 78 72 74 73 63 58 40 32 38 37 33 38 49 63 69 56 60 55 47 48 56 52 51 54 55 51 46 55 53 51 50 50 53 51 50 65 75 82 62 62 61 41 40 45 44 44
93 90 87 74 80 73 60 55 35 36 42 43 43 44 58 67 58 51 48 50 53 53 60 51 57 56 60 56 52 54 60 56 58 54 51 66 61 71 90 77 76 44 39 41 48 42 37
100 97 98 98 91 87 66 62 45 38 41 47 47 46 63 65 42 43 50 52 49 52 61 54 52 53 58 55 58 48 52 51 54 57 60 60 68 83 88 80 51 39 33 40 46 44 39
100 100 99 99 100 96 90 66 65 43 43 45 52 55 52 66 48 40 50 48 58 54 50 53 55 55 56 61 54 55 48 34 42 57 45 55 64 77 67 76 55 31 39 37 38 59 39
100 99 100 99 98 98 97 87 72 64 46 48 50 56 62 74 56 47 53 54 54 56 61 49 57 68 65 65 66 55 58 38 45 42 74 74 76 88 86 79 60 38 42 39 51 47 39
96 97 100 100 99 98 96 99 89 78 63 52 52 50 62 74 55 56 50 49 54 60 61 58 60 70 72 75 60 55 53 46 54 42 42 61 70 77 67 70 68 40 45 46 42 38 40
91 93 100 100 100 100 97 93 97 92 84 63 59 58 53 66 52 49 53 51 52 60 64 57 62 61 62 86 72 60 66 58 52 54 39 52 38 40 46 55 37 36 35 35 38 42 43

GFSGBSN_850_rhum_123.txt.gz
RH
99 99 94 94 89 87 98 98 91 93 92 96 94 91 85 69 48 45 42 45 70 67 66 78 87 91 92 93 99 100 91 55 53 46 42 34 32 33 41 39 33 35 33 35 36 37 35
100 99 98 83 93 93 73 88 86 88 94 96 93 90 84 76 86 66 37 33 62 74 85 92 100 84 88 94 100 100 68 53 51 47 42 37 36 34 38 41 44 42 40 37 35 34 33
100 100 99 90 95 97 85 37 41 42 30 71 79 98 91 92 87 76 33 29 70 83 94 96 97 85 79 99 100 92 63 56 54 47 42 41 38 35 37 46 40 35 36 40 37 36 41
77 99 98 84 76 97 96 74 27 23 32 69 80 85 90 95 95 81 73 71 88 85 88 81 78 64 97 100 100 89 66 60 54 43 40 40 37 36 41 38 37 40 42 53 40 38 43
22 66 87 78 64 78 84 74 37 24 37 65 69 84 94 84 95 91 82 94 85 96 84 81 63 76 99 95 89 88 65 57 51 44 38 36 29 39 43 54 62 45 76 43 46 39 44
17 26 39 49 73 56 71 58 40 22 29 67 72 68 73 75 74 88 90 90 82 76 78 76 77 78 95 97 82 85 67 63 52 43 40 41 43 60 60 74 72 58 60 38 44 49 44
46 19 25 33 35 55 48 64 52 26 22 61 74 68 62 62 68 66 66 74 82 87 80 95 86 86 83 77 71 65 55 53 52 50 55 48 71 81 57 46 37 34 34 35 36 46 47
51 22 28 26 37 32 38 48 54 42 19 43 57 64 63 63 62 56 52 78 82 87 92 76 78 77 77 72 68 64 62 54 52 58 45 66 70 51 48 45 44 40 42 49 51 43 49
61 23 26 36 34 37 30 38 50 52 36 22 47 52 63 64 54 49 51 60 72 64 70 71 68 74 71 62 70 67 60 51 51 58 64 74 58 42 45 48 49 46 48 56 58 63 56
56 36 25 44 43 37 35 29 41 49 50 36 34 48 56 64 60 68 55 58 54 70 88 87 73 67 66 65 63 59 60 63 51 63 58 59 45 46 47 47 46 58 53 56 64 76 79
56 56 24 42 39 41 35 29 29 44 50 48 36 40 47 49 57 62 59 55 53 81 88 72 67 62 64 62 62 53 55 52 69 61 60 64 56 56 60 58 48 67 56 62 63 70 86
47 58 25 37 32 37 35 29 29 32 44 49 46 36 40 44 48 54 56 56 77 79 94 76 62 59 58 56 57 56 58 57 61 59 56 53 47 52 60 51 53 54 62 67 64 79 90
48 55 43 27 37 27 29 32 30 40 44 46 48 46 40 41 44 45 50 73 84 92 62 69 67 54 49 56 55 54 64 73 80 80 82 66 65 55 51 62 55 59 68 94 89 94 92
56 52 55 27 33 33 27 31 31 41 42 44 46 46 45 45 47 52 67 75 90 75 67 55 56 60 70 65 55 60 61 77 64 61 78 90 80 73 60 62 61 54 75 80 91 89 90
65 56 55 44 27 34 29 28 31 30 40 36 43 43 47 58 57 57 48 95 85 62 53 61 64 64 68 59 60 54 69 74 60 62 78 84 73 59 60 56 62 82 79 75 93 90 86
70 60 58 54 31 29 33 30 27 29 30 34 36 48 41 57 59 53 82 85 78 60 61 59 65 56 60 57 58 59 68 57 67 62 59 65 78 61 68 62 64 70 76 87 98 91 97
70 62 61 56 50 26 30 32 27 26 29 31 42 47 36 53 58 50 93 76 68 60 63 69 69 49 51 50 47 50 60 61 60 70 61 63 66 70 73 86 82 83 79 88 90 98 85
70 67 63 62 55 43 26 30 28 24 27 32 49 55 37 50 60 72 82 66 61 61 62 60 61 56 56 53 59 55 59 61 58 59 72 67 76 93 75 56 62 73 81 86 96 94 90
65 66 66 66 59 54 36 27 29 25 26 34 44 47 44 55 88 88 64 63 62 61 58 58 56 51 48 52 61 49 52 56 56 62 69 68 79 93 73 63 57 68 78 78 77 80 96
57 66 65 65 63 57 50 30 29 28 24 32 51 72 52 45 55 64 60 62 67 60 61 55 55 50 53 53 48 48 44 58 55 54 57 60 77 78 74 61 63 70 71 84 82 98 85
55 59 69 68 66 62 57 45 28 28 25 38 49 68 66 89 69 58 58 58 58 64 62 55 56 53 50 54 49 45 46 45 61 55 58 72 88 77 73 68 66 65 65 78 92 74 79
58 71 66 71 70 67 60 56 38 27 27 26 52 70 63 63 57 57 66 64 57 56 55 57 58 54 51 56 52 57 54 53 51 61 57 65 77 69 77 61 62 70 63 62 64 75 73
60 68 82 75 73 72 66 60 52 35 30 33 38 46 59 76 64 70 69 54 55 56 52 54 56 61 62 56 58 53 52 50 55 59 62 66 76 79 82 71 73 64 60 50 54 52 64
97 86 83 84 78 79 76 64 62 46 35 41 39 41 57 71 69 64 51 50 54 57 62 56 58 61 56 59 48 45 60 64 65 68 59 71 73 79 89 80 62 32 39 40 45 45 46
100 100 99 98 94 93 90 75 68 61 43 42 45 44 51 63 55 43 47 52 53 51 58 57 50 54 58 53 69 59 56 59 61 70 73 67 77 89 90 90 57 46 40 47 51 41 40
92 100 100 100 100 99 96 92 77 72 62 46 46 49 54 65 54 46 49 50 64 64 61 57 55 54 54 68 65 62 52 38 40 59 52 70 72 83 88 86 64 30 36 38 37 48 42
90 100 100 100 100 100 98 95 95 82 76 65 54 51 54 69 50 54 49 56 53 60 69 55 58 62 64 80 76 70 68 38 45 48 78 81 79 92 86 90 76 48 42 39 34 24 42
86 91 100 99 100 99 99 97 98 93 90 80 68 59 62 62 52 51 53 48 56 59 71 58 56 66 83 79 77 70 62 52 55 49 70 77 89 96 92 95 83 43 45 39 34 40 40
85 88 96 99 99 100 99 99 96 90 93 96 84 74 63 68 58 58 58 58 56 53 56 57 55 66 62 91 84 79 70 70 66 67 42 54 55 55 66 65 40 38 29 29 35 36 42

GFSGBSN_850_rhum_126.txt.gz
RH
76 86 90 99 99 99 92 28 26 61 97 98 94 89 90 98 91 36 66 80 83 91 96 80 85 84 86 89 100 98 68 57 50 43 40 34 33 34 41 38 33 39 39 39 38 33 34
93 78 60 82 99 99 98 40 27 57 72 86 88 89 95 83 79 36 69 84 86 93 96 92 83 89 87 94 99 68 58 53 47 42 36 33 35 33 40 45 42 44 40 39 35 34 36
92 97 65 54 75 90 79 51 28 50 67 81 79 72 86 95 79 84 79 93 89 100 95 89 87 74 80 100 83 61 53 48 44 39 35 35 35 34 37 46 40 34 38 39 41 36 42
56 68 70 46 47 68 51 25 23 45 59 71 76 78 83 88 94 93 82 90 86 94 94 84 74 68 97 92 68 56 51 47 43 39 36 36 34 32 38 36 37 41 46 46 41 37 40
40 41 49 34 46 48 49 27 20 33 47 63 70 83 80 87 84 84 85 84 82 78 79 74 67 78 99 97 72 64 54 44 39 38 36 32 27 40 43 57 60 52 66 45 45 41 46
46 29 29 38 28 42 44 32 18 25 41 53 66 78 70 79 74 73 71 73 74 67 67 59 68 79 90 93 79 62 58 43 40 35 31 35 41 61 62 69 60 49 62 41 43 43 44
39 38 32 31 32 30 44 42 29 18 35 46 57 65 61 61 60 62 64 61 72 78 71 83 83 81 76 73 66 56 51 50 48 45 59 53 70 76 50 42 38 36 42 38 45 46 52
67 44 44 40 31 29 33 44 44 30 26 39 54 61 55 50 49 51 54 76 81 77 81 68 68 65 64 64 59 54 51 48 47 58 52 67 69 51 46 45 43 42 46 55 52 51 55
78 47 42 39 37 30 25 39 46 46 34 33 45 56 52 49 50 47 49 64 77 62 71 68 63 67 65 56 63 61 52 51 56 66 65 73 57 44 47 50 51 61 53 58 62 63 55
67 27 37 32 34 29 27 26 41 46 48 36 38 47 54 51 48 45 53 55 61 65 87 75 64 62 61 56 50 54 56 57 53 64 60 59 46 47 50 50 52 65 59 61 66 76 71
56 35 28 34 26 26 28 28 32 42 45 48 39 41 46 45 44 49 52 56 59 63 92 63 62 54 58 58 55 55 53 51 70 62 55 67 54 64 68 62 55 69 57 62 65 75 87
54 54 28 32 29 25 27 28 38 42 43 45 46 41 40 42 39 42 46 62 60 78 90 73 56 56 57 55 57 54 57 56 62 62 59 56 50 54 59 52 55 55 64 68 73 82 93
57 56 44 26 32 28 26 26 35 39 42 40 44 43 45 45 45 46 58 68 83 91 60 60 66 62 59 60 57 55 67 71 78 75 85 72 68 57 53 64 60 61 76 94 88 90 88
63 59 56 34 29 32 29 26 27 32 36 42 45 48 56 60 64 66 64 73 91 76 76 54 58 62 66 61 57 59 64 80 63 68 89 86 79 69 60 63 56 64 79 91 94 94 92
69 63 58 53 30 30 33 28 25 26 29 31 39 40 49 61 64 62 48 96 80 71 56 65 65 73 67 59 57 60 69 74 65 66 76 89 81 63 59 60 62 81 81 72 83 88 97
69 65 63 56 50 30 30 30 26 22 26 28 31 41 41 54 46 45 81 89 77 62 63 61 66 54 67 56 58 62 71 62 70 65 62 72 76 65 66 61 66 68 73 88 97 94 87
65 64 65 61 54 46 28 27 27 22 24 28 37 38 37 53 49 44 92 79 68 61 63 66 66 59 55 55 51 58 65 64 64 70 61 62 74 69 74 85 84 83 76 88 83 86 89
62 62 64 64 58 54 44 27 25 22 24 30 37 55 45 52 54 77 81 64 61 61 62 63 61 58 57 56 60 59 62 61 62 63 82 68 78 93 78 60 66 72 81 86 92 86 92
52 61 62 65 62 57 53 40 26 24 22 28 37 41 41 47 78 87 67 64 63 64 63 61 61 53 50 56 63 52 54 56 62 68 72 70 81 92 71 63 65 77 82 80 81 86 93
46 53 63 66 64 59 56 52 38 24 23 30 45 72 47 49 62 68 64 65 67 61 62 57 58 52 56 57 51 52 46 60 60 61 62 61 80 75 48 42 68 76 77 86 81 96 89
49 52 59 66 68 64 61 57 51 33 25 27 41 63 67 86 68 61 62 63 64 68 64 58 59 58 54 58 51 51 47 50 64 56 62 70 88 87 83 77 75 74 72 83 91 74 83
56 61 70 72 72 68 65 61 58 47 31 25 39 58 67 66 60 59 68 67 64 56 61 62 62 55 55 60 53 51 53 54 58 66 65 75 76 74 82 68 70 77 69 67 68 73 76
52 62 71 80 79 73 70 67 63 57 42 31 34 44 50 80 68 71 70 55 57 56 52 53 56 61 63 58 53 54 54 50 49 69 72 71 82 80 84 68 74 62 52 50 58 65 69
63 56 73 70 80 77 80 80 69 64 53 40 38 39 48 59 76 68 53 51 53 58 57 58 59 62 52 57 53 48 63 69 68 72 58 75 76 82 92 81 60 32 39 42 52 45 53
72 92 73 92 86 80 82 86 80 72 64 51 43 41 44 57 60 49 46 52 52 52 62 59 54 54 54 55 67 56 50 57 66 80 85 72 79 90 94 94 60 45 42 47 50 35 43
78 93 99 100 100 100 97 91 86 84 76 67 57 50 47 56 51 48 49 51 64 68 66 59 58 57 57 65 68 60 45 36 40 62 68 80 76 84 92 97 64 28 32 40 33 45 42
82 86 98 100 100 100 100 99 94 92 88 83 70 65 55 55 48 53 52 48 55 64 76 62 61 65 64 82 76 76 71 44 48 51 80 88 85 86 78 79 78 55 39 38 37 29 40
87 84 85 91 96 99 99 99 98 97 91 93 87 74 71 63 64 60 54 50 58 63 69 55 60 67 82 79 80 76 70 56 57 50 74 80 94 95 76 85 92 48 47 43 35 38 36
96 96 91 88 97 100 99 98 97 96 97 100 98 94 85 78 68 68 68 64 57 54 56 55 59 68 63 89 84 84 74 78 68 65 52 60 56 70 75 72 45 41 34 29 34 32 33

GFSGBSN_850_rhum_129.txt.gz
RH
99 98 100 99 96 96 97 43 62 69 68 86 94 89 72 72 80 88 87 94 96 91 95 85 96 100 95 93 99 95 84 58 43 40 38 35 34 31 40 38 36 43 44 41 36 32 34
79 88 100 96 92 91 72 42 59 65 70 74 79 79 83 87 94 95 92 92 98 99 89 92 98 91 82 93 88 60 57 50 45 38 36 32 31 30 38 45 44 45 43 41 35 35 36
53 83 49 90 83 83 52 28 51 63 66 73 76 78 81 86 97 97 98 96 98 97 88 86 92 77 63 95 64 51 47 43 40 35 33 35 34 34 35 46 38 36 42 40 42 38 43
44 42 56 37 68 67 38 22 39 50 61 68 73 74 79 88 90 86 93 96 90 93 96 97 86 73 94 74 56 49 44 41 37 33 34 35 33 32 38 35 39 40 44 35 40 37 44
51 36 32 34 35 53 38 20 32 45 58 65 66 72 70 71 83 77 77 75 81 78 84 92 80 83 99 69 54 48 43 41 37 35 33 30 29 40 39 54 52 56 53 40 45 41 46
72 38 36 30 27 39 43 32 24 40 54 58 59 60 62 64 64 75 72 66 67 64 61 67 79 79 84 66 59 44 40 38 36 33 29 29 37 59 62 61 50 46 66 44 40 43 45
65 38 34 32 28 28 40 44 32 33 50 53 48 47 44 48 60 57 57 56 61 66 67 78 80 86 70 59 52 43 40 35 32 40 60 49 64 71 48 42 38 46 46 40 47 47 55
36 44 29 32 29 26 30 42 46 33 38 53 52 48 47 44 44 50 52 62 67 68 70 57 59 61 60 56 51 50 42 41 47 63 52 63 67 52 46 45 45 43 49 56 53 52 58
36 31 33 27 28 27 27 30 42 48 36 37 48 48 46 44 46 42 45 59 70 59 66 58 57 57 59 53 59 55 48 48 58 65 65 67 56 47 47 53 61 68 56 60 66 65 56
53 28 32 29 28 29 30 35 37 44 48 39 35 44 50 48 44 43 51 52 61 53 84 66 60 57 52 53 50 53 51 50 55 63 60 61 47 49 54 57 56 66 61 62 67 76 67
56 42 27 31 29 30 29 37 40 42 42 45 39 35 38 41 46 52 49 60 62 55 92 55 56 52 56 51 52 56 52 49 67 64 48 59 59 66 71 66 58 66 60 65 67 79 87
59 55 36 28 32 30 29 30 38 40 40 41 42 42 41 39 44 47 54 68 66 75 85 65 54 60 57 56 58 54 53 52 59 64 65 62 52 56 59 54 57 56 64 71 80 82 86
58 58 52 34 29 33 29 28 28 34 38 44 46 53 58 60 59 62 62 68 77 87 56 62 65 64 60 64 60 61 67 73 78 73 85 73 70 59 54 63 59 62 73 89 70 93 71
62 60 57 49 34 30 31 26 25 27 30 33 40 44 55 65 66 60 48 71 90 82 74 53 61 65 68 62 60 64 65 82 68 71 90 85 78 70 57 60 62 82 73 87 70 94 92
63 61 59 55 48 33 29 28 23 22 26 26 30 40 52 60 54 53 44 94 81 74 59 65 66 69 66 57 57 68 71 75 70 68 72 86 81 65 60 62 59 83 82 68 79 87 95
60 61 62 57 54 49 33 27 24 19 25 27 30 36 45 52 45 44 80 91 79 65 63 63 68 56 68 60 60 66 73 64 70 65 64 72 82 67 65 62 69 71 72 88 93 97 95
53 57 62 61 55 54 49 34 24 21 21 28 32 32 42 42 38 40 92 81 69 62 64 69 66 61 58 61 57 61 68 66 68 71 63 66 70 69 74 82 86 85 77 88 86 78 92
38 51 58 64 60 55 53 48 32 22 20 25 29 55 42 45 50 78 80 66 62 62 63 65 64 59 58 58 61 62 63 62 64 63 74 68 78 88 76 63 66 73 81 88 92 86 96
30 45 53 59 62 57 55 54 46 30 21 25 32 37 38 36 78 87 68 65 65 65 64 63 63 56 54 58 63 55 55 58 66 68 73 70 82 90 67 65 76 84 85 81 80 86 92
33 42 43 53 58 56 57 55 53 40 24 26 38 68 40 47 61 70 67 67 63 61 63 59 60 54 56 59 54 53 48 61 65 65 64 62 82 73 44 32 72 88 83 87 81 96 86
24 32 35 38 53 53 55 57 55 49 31 28 33 62 66 84 68 65 65 64 67 67 64 61 60 60 56 58 52 55 47 52 67 62 69 67 84 87 84 80 76 72 72 89 91 77 84
24 33 36 32 36 49 50 56 58 54 40 30 32 48 67 66 63 59 69 69 65 57 64 64 66 56 57 62 56 51 54 55 55 69 73 80 80 77 85 72 74 82 74 73 73 78 76
32 50 64 60 45 50 55 62 63 60 51 38 38 40 48 83 70 72 68 56 61 56 52 55 61 62 62 61 51 50 53 51 50 72 77 77 86 83 85 71 76 60 54 57 63 70 66
78 93 98 94 80 63 67 70 71 69 65 54 47 41 41 50 78 68 57 56 54 60 57 58 60 61 50 56 52 51 61 69 73 68 64 82 76 82 93 80 51 32 38 41 53 51 60
88 89 99 99 99 98 89 90 78 76 73 67 59 51 43 55 53 51 48 53 52 53 62 61 55 57 57 54 68 55 45 58 77 83 85 72 80 88 95 98 66 37 39 52 52 41 46
90 91 97 98 99 99 100 98 95 87 85 78 70 67 57 54 61 45 49 51 60 66 64 59 60 60 61 67 71 55 42 32 47 72 86 85 77 84 96 100 62 27 34 42 33 41 32
87 94 96 98 100 99 100 100 100 97 90 87 83 79 67 60 55 48 54 46 55 66 74 65 62 67 63 83 77 77 71 50 50 62 92 96 95 91 83 85 74 58 44 38 36 26 27
100 100 100 100 98 99 99 99 99 97 94 92 92 91 83 74 74 70 61 53 56 63 62 52 62 70 84 80 79 77 80 61 60 51 78 90 95 92 78 78 90 48 48 45 33 29 28
96 98 100 100 99 100 99 99 99 97 96 95 96 100 99 95 82 81 81 76 62 53 53 55 62 69 66 87 86 86 82 82 72 64 63 62 63 79 77 68 46 45 38 31 31 34 33

GFSGBSN_850_rhum_132.txt.gz
RH
44 61 88 99 99 99 61 56 63 66 69 83 81 89 88 96 96 93 99 93 99 98 84 76 92 92 89 86 98 94 82 63 44 40 41 44 38 32 41 38 39 46 45 41 37 32 33
46 45 70 93 99 96 51 44 52 62 66 70 79 85 88 89 99 96 99 96 98 100 99 94 94 92 72 91 77 62 58 50 42 39 39 40 30 30 37 46 46 45 43 41 35 36 36
74 43 47 74 95 94 31 35 49 56 64 70 71 79 85 83 96 95 97 98 93 99 100 98 85 69 69 84 58 47 47 43 40 35 32 29 26 27 36 46 40 36 41 40 44 39 42
76 66 59 35 59 66 38 34 48 49 54 63 69 71 72 74 76 79 89 93 96 96 92 85 86 64 90 60 49 44 39 37 37 34 31 34 30 27 36 37 38 40 41 36 38 38 43
84 65 69 40 36 46 39 28 48 47 45 52 49 56 63 69 72 72 73 85 83 92 82 73 66 64 95 58 45 41 38 36 34 33 32 30 26 38 36 50 50 54 53 34 40 41 45
61 33 46 40 36 36 46 33 39 47 40 41 41 44 50 60 61 61 62 64 75 70 71 65 77 72 87 65 46 41 38 35 32 30 26 27 34 56 59 53 52 42 61 44 38 49 46
30 31 28 31 34 30 36 47 33 44 48 38 42 38 40 55 57 52 50 52 57 61 64 76 73 75 69 55 49 41 36 34 32 33 52 46 60 71 52 42 41 50 46 41 52 52 57
29 31 26 27 30 30 32 38 48 39 39 48 37 38 38 43 44 53 43 65 88 73 60 51 56 55 54 48 43 41 34 36 43 61 50 62 69 53 48 49 49 47 45 57 52 52 60
43 28 31 26 29 31 37 38 44 47 44 34 37 37 37 36 39 42 48 51 54 52 60 50 53 52 54 48 59 53 46 46 56 64 64 67 56 49 49 58 62 73 59 62 69 67 60
54 37 28 31 28 28 35 40 42 43 45 45 36 33 32 36 38 41 49 54 54 47 83 65 58 54 47 47 50 54 50 49 56 61 60 62 51 52 57 65 58 60 64 64 69 76 64
56 52 35 30 33 29 28 32 39 43 45 43 44 40 37 34 37 45 51 59 57 46 87 54 56 51 55 52 54 52 52 44 66 66 46 59 64 67 72 66 59 64 61 67 71 82 87
58 54 50 35 29 32 29 27 28 36 44 46 52 58 58 49 47 53 55 57 44 74 77 64 54 64 60 57 57 52 51 51 57 67 69 67 54 58 59 58 59 61 67 67 80 81 79
53 58 54 50 36 29 29 28 24 27 31 38 45 51 59 65 62 57 52 56 75 86 54 67 68 66 62 69 63 65 68 76 75 67 85 74 71 62 56 64 59 62 69 75 63 86 62
49 53 56 53 50 38 27 27 22 22 26 27 33 46 59 62 60 56 45 69 90 78 76 55 63 64 68 63 63 67 66 82 70 71 91 88 74 69 57 62 67 81 69 80 53 89 90
44 49 53 54 52 51 42 26 23 20 24 26 30 40 54 58 50 52 47 92 82 76 61 66 65 64 64 58 58 72 74 76 72 68 65 88 81 67 60 63 59 83 86 65 88 83 95
31 44 48 52 52 52 51 42 26 20 22 27 31 34 49 47 44 44 79 91 80 68 65 64 67 58 66 61 60 68 74 65 70 67 65 73 89 70 65 65 72 70 74 90 90 96 98
19 32 44 49 48 49 51 50 40 23 20 25 28 31 42 43 37 41 91 82 70 64 64 69 70 65 62 65 60 64 69 67 66 72 64 67 71 76 77 84 88 88 87 84 82 80 96
18 20 33 43 48 46 46 50 47 34 21 23 25 53 36 37 50 78 81 68 62 63 64 67 66 62 62 62 65 65 66 64 66 64 73 72 76 88 85 66 68 73 79 84 90 87 84
19 18 24 36 42 46 45 46 47 40 27 24 28 32 34 28 76 87 71 67 66 67 66 65 64 58 57 60 64 58 54 65 66 65 71 70 80 80 56 63 77 82 85 82 80 85 89
23 38 27 27 41 45 45 49 47 43 33 23 27 67 33 42 63 70 68 67 62 64 64 62 61 56 57 60 56 56 48 61 70 67 66 65 82 66 44 29 71 92 88 88 81 95 86
23 44 60 60 32 44 47 52 51 47 37 30 30 60 63 81 67 68 64 64 67 65 64 63 62 61 57 56 54 57 49 52 70 68 71 70 81 86 82 80 77 72 70 89 93 79 84
27 28 54 72 65 32 45 55 59 53 42 37 31 40 62 67 65 60 69 64 65 58 64 65 65 59 65 60 53 52 55 57 51 72 75 82 82 79 88 75 77 86 77 74 78 86 83
51 40 54 69 63 39 44 60 66 63 53 48 47 43 41 81 72 68 64 55 61 57 54 55 63 61 66 65 54 52 50 50 49 75 81 82 89 85 86 70 77 62 62 69 68 76 73
80 80 90 99 91 67 56 76 77 75 69 61 57 47 40 49 80 66 58 61 57 62 58 58 62 62 53 55 54 54 66 72 74 70 68 84 79 84 94 78 46 30 39 45 62 58 64
90 88 89 89 98 99 88 83 88 86 82 75 68 62 50 66 51 53 54 52 52 53 60 62 55 60 61 56 66 58 45 56 84 85 85 76 79 84 97 99 65 36 44 55 53 37 47
87 96 93 94 95 99 100 98 99 97 90 86 80 76 66 60 70 45 48 50 58 62 61 58 61 62 61 68 69 53 44 31 52 78 90 86 78 81 94 100 60 26 33 44 40 37 26
85 86 95 98 99 99 99 99 98 98 97 92 91 91 77 68 64 52 54 53 51 65 68 64 64 70 65 81 73 74 68 52 52 64 95 94 93 92 82 86 80 58 42 38 34 26 25
96 92 92 100 99 99 98 98 98 98 98 95 95 95 93 85 83 80 70 57 57 62 61 54 61 73 84 78 76 72 81 66 63 54 89 90 92 92 77 87 91 50 51 42 32 27 30
96 95 95 93 97 98 94 95 97 96 94 96 94 98 100 99 91 86 90 89 78 63 56 55 62 66 67 86 85 84 82 85 74 63 68 66 69 82 77 70 47 47 43 32 36 41 38

GFSGBSN_850_rhum_135.txt.gz
RH
71 49 66 57 45 59 38 51 57 66 76 73 81 80 89 92 92 95 94 84 80 72 70 83 84 86 78 86 99 95 89 51 46 42 48 48 43 33 42 40 40 48 46 40 38 32 32
75 46 34 42 34 29 36 50 54 56 65 68 68 74 80 84 96 91 94 99 73 77 80 80 75 76 80 92 70 64 54 48 42 42 46 42 34 31 38 48 46 45 42 41 35 36 36
79 50 29 31 41 26 38 47 54 50 50 54 63 69 75 84 84 93 98 99 96 97 100 92 80 70 64 71 54 49 44 42 39 42 43 30 28 26 36 46 41 37 39 37 44 38 43
62 46 28 28 38 42 28 40 48 47 43 49 52 63 71 74 82 83 97 90 97 90 93 78 64 52 72 51 48 44 41 39 34 36 33 28 27 27 34 36 36 39 40 37 41 39 44
63 35 28 28 27 40 40 33 42 42 41 46 47 55 60 63 71 73 83 90 81 78 76 70 56 57 69 47 42 40 38 36 34 32 30 27 22 35 34 49 45 52 50 32 38 46 47
44 30 28 28 29 30 40 35 31 45 40 39 42 45 47 54 56 60 67 65 64 68 64 61 59 60 60 54 44 38 36 33 31 29 27 26 31 50 54 46 43 41 54 43 39 52 50
28 32 28 29 31 35 34 41 36 28 39 38 36 37 42 46 51 52 55 53 52 55 57 68 77 72 68 50 43 38 34 32 30 30 49 44 54 66 51 41 37 50 43 44 53 53 60
42 29 31 29 29 36 39 38 39 35 30 30 31 31 34 36 38 40 45 52 62 60 54 48 51 53 54 46 40 38 34 33 39 57 47 58 66 54 51 48 48 44 45 56 50 55 59
53 40 29 33 28 29 36 40 39 36 33 32 29 29 29 31 33 34 40 44 46 45 52 48 47 48 51 48 59 52 42 44 56 65 62 63 56 50 51 57 59 74 57 63 61 66 60
51 51 40 31 32 28 29 33 40 45 42 36 34 32 30 30 33 39 43 47 53 44 81 64 55 53 49 43 51 56 49 46 56 60 61 64 58 52 60 65 55 55 65 65 70 63 53
49 50 51 40 32 32 29 26 29 39 43 49 52 54 45 36 38 45 49 47 43 42 86 54 55 51 53 50 53 53 51 45 68 65 47 64 65 65 70 67 59 64 64 70 74 79 81
45 46 50 51 42 32 30 26 24 28 34 42 47 53 54 51 48 48 50 50 38 74 77 65 55 66 60 57 57 48 49 47 57 65 70 69 58 61 60 64 62 66 67 64 73 74 71
36 41 46 48 51 47 35 27 23 24 27 30 39 53 55 53 56 53 47 49 76 88 54 69 72 68 64 70 64 64 70 78 72 60 81 72 69 63 58 66 61 61 63 68 56 75 55
32 31 41 44 46 51 49 37 25 21 26 27 30 48 55 52 52 51 43 69 88 74 79 56 68 63 70 68 68 69 66 78 71 71 88 81 69 65 58 63 67 78 63 70 40 63 70
29 32 34 41 42 46 49 48 36 23 21 28 31 38 49 48 50 50 45 91 81 77 64 68 59 63 66 60 61 72 76 76 74 66 61 85 78 67 61 67 60 81 82 66 89 83 91
19 32 36 40 39 42 43 46 42 28 21 24 32 36 45 42 44 46 80 88 79 65 68 64 68 60 69 66 63 70 73 68 71 70 65 69 87 72 68 67 76 67 70 84 87 88 87
21 21 30 34 37 41 39 39 40 33 22 20 27 30 39 40 38 43 90 82 78 67 66 65 72 67 65 68 65 69 74 66 67 72 65 69 71 80 78 83 86 85 88 82 79 81 90
19 20 20 26 30 35 36 37 34 31 28 20 21 54 36 33 49 79 83 69 63 65 67 67 66 62 62 65 65 67 68 66 65 64 72 73 74 94 82 72 71 74 80 82 79 78 78
20 20 17 18 24 31 35 36 38 32 28 22 23 24 30 27 73 88 72 70 67 68 67 67 65 59 59 60 61 61 60 63 67 67 76 72 78 68 48 62 77 80 86 81 77 81 85
21 26 20 16 17 24 34 38 38 36 32 26 23 65 30 38 63 69 67 68 65 66 65 64 62 59 59 61 58 54 52 68 72 67 67 64 81 53 38 24 68 89 92 88 79 94 84
26 27 37 33 16 17 30 39 39 39 36 30 32 58 51 77 66 70 62 64 66 63 64 64 62 64 59 56 56 58 52 57 74 73 72 71 80 88 81 74 67 66 69 93 94 77 78
41 29 31 58 63 35 25 39 43 42 39 40 35 40 60 66 65 61 66 70 65 58 64 66 61 62 64 56 48 44 52 57 52 75 74 84 77 81 85 73 80 84 75 74 74 80 81
80 70 63 55 61 65 39 46 52 51 49 52 51 46 42 79 70 65 59 53 60 57 57 54 61 62 70 67 54 50 51 50 51 73 83 82 87 84 83 74 77 63 59 64 71 75 70
90 85 82 76 77 75 67 54 71 68 68 64 65 54 45 58 78 64 57 63 59 62 58 59 62 62 55 55 58 60 68 73 72 68 71 87 80 84 92 78 50 31 40 54 65 62 66
98 91 90 85 83 86 88 80 76 84 81 77 71 67 60 74 54 55 53 58 49 53 60 62 56 61 63 58 62 58 46 57 92 90 86 75 78 82 93 97 67 30 44 54 52 38 46
99 100 99 99 90 89 96 100 94 91 92 87 81 80 73 65 72 48 49 50 56 58 58 57 62 64 64 68 66 53 42 32 69 88 91 86 80 78 93 99 62 26 33 44 41 30 22
97 100 100 99 99 100 100 100 100 98 98 95 89 86 83 75 71 54 56 58 51 64 67 61 63 72 68 79 69 71 66 52 52 72 90 88 90 87 76 82 76 59 43 42 37 33 26
94 98 99 100 99 99 99 99 97 97 97 98 95 94 93 88 84 84 77 63 59 61 65 59 63 75 83 80 77 71 77 65 63 60 90 90 88 89 77 82 89 50 52 42 32 30 36
89 95 94 93 88 91 94 98 97 99 93 93 93 93 93 94 82 79 84 90 90 78 65 58 59 62 66 87 85 82 78 85 73 60 73 69 71 83 75 71 49 46 41 34 38 41 40

GFSGBSN_850_rhum_138.txt.gz
RH
38 26 28 35 24 34 39 43 49 52 60 68 74 77 84 87 98 87 88 83 82 80 85 73 71 78 81 85 96 92 86 62 46 43 47 48 43 38 34 30 33 33 34 35 37 32 30
32 30 26 32 35 29 39 40 45 47 58 63 68 73 77 86 96 96 88 88 90 97 92 92 78 67 81 91 80 76 55 47 44 48 48 45 37 34 36 38 32 38 32 34 34 34 35
25 26 28 26 35 34 37 38 40 42 50 57 61 62 67 68 98 94 95 84 98 90 85 89 97 84 74 71 55 49 44 42 44 44 46 36 28 30 36 34 38 34 30 28 35 33 34
24 24 26 28 28 36 32 37 39 39 42 49 52 55 55 66 86 87 93 94 84 76 78 75 74 56 56 56 47 44 39 40 44 38 32 28 26 27 33 34 30 26 26 30 35 33 37
28 24 26 30 32 31 39 33 36 41 37 39 45 52 52 54 64 72 75 78 84 83 70 62 58 53 54 45 42 40 37 37 38 32 27 26 24 36 35 30 28 25 42 27 34 40 36
28 29 25 27 32 33 35 40 33 30 35 34 39 44 46 46 54 59 54 57 62 63 62 61 55 48 48 53 40 36 35 32 30 27 24 24 31 28 25 26 28 26 36 29 28 39 38
41 28 30 25 27 31 34 36 38 34 28 28 32 38 38 38 46 52 50 49 53 60 57 64 64 65 50 44 39 36 32 30 28 37 30 40 25 50 38 30 23 21 22 29 36 44 45
51 41 29 29 25 25 30 36 40 35 30 26 26 30 33 32 38 42 45 48 53 54 52 49 51 47 50 40 45 35 31 36 36 38 37 33 43 43 40 35 30 26 26 32 40 46 42
50 51 43 30 29 25 23 28 38 44 40 31 27 28 28 29 32 32 39 44 45 44 46 46 52 53 51 47 59 52 37 44 40 42 37 38 46 43 39 37 31 39 28 36 40 46 43
48 50 52 47 35 30 25 20 25 37 44 49 47 40 33 29 32 37 37 38 42 39 73 60 50 52 52 43 47 50 46 47 46 46 45 48 46 42 43 48 39 32 52 50 50 39 44
47 49 50 53 51 43 31 24 20 24 35 41 48 48 47 37 39 45 45 44 38 36 82 50 50 50 51 52 54 48 47 47 48 50 41 57 50 47 48 58 49 55 54 55 55 49 73
44 46 47 47 52 54 46 34 23 23 24 30 39 48 50 48 50 51 51 43 33 86 76 62 54 57 45 50 53 49 50 47 56 47 48 57 58 53 53 56 52 55 51 50 51 50 68
29 41 42 41 43 50 53 46 30 22 24 25 34 46 45 46 52 50 46 48 94 83 51 60 62 54 52 56 50 50 54 54 51 88 87 54 58 56 55 54 52 48 46 67 57 69 44
22 29 35 35 37 40 46 48 41 28 22 26 28 39 46 43 48 44 40 57 74 69 62 52 61 50 57 55 57 55 50 57 56 53 65 71 67 55 54 56 52 58 50 62 44 40 40
18 21 27 28 28 30 34 40 41 32 22 23 30 35 42 40 42 42 48 93 86 59 54 59 51 49 53 52 53 54 60 60 61 57 50 60 68 61 57 61 56 65 64 54 79 74 74
18 17 21 24 24 24 25 30 35 32 24 24 30 33 40 37 41 43 75 78 65 58 61 56 50 52 50 52 51 54 55 59 62 60 55 55 65 66 63 63 66 61 56 75 70 81 71
16 14 16 18 20 21 21 23 28 31 26 22 26 30 34 31 37 51 91 72 65 68 67 57 56 55 52 54 53 54 53 58 57 60 56 54 51 70 67 64 60 72 68 66 62 63 70
16 15 13 14 14 16 18 20 23 25 27 22 21 65 30 29 63 65 66 61 63 63 69 62 58 55 53 55 55 56 54 53 60 57 56 55 51 69 57 61 58 61 57 57 59 67 58
17 16 14 12 12 12 12 16 21 25 28 24 20 21 27 25 74 67 66 64 64 63 61 61 58 54 52 52 47 52 52 66 68 59 58 57 56 51 53 60 62 70 63 58 54 54 64
19 18 17 16 14 14 12 14 16 21 28 27 25 79 31 35 57 52 57 60 64 68 63 63 56 54 53 52 52 48 47 64 72 65 69 60 55 49 26 25 53 64 66 65 58 77 43
34 30 23 24 22 23 20 17 17 17 26 30 32 64 51 71 57 59 55 56 58 58 64 64 58 55 49 48 49 50 46 58 73 74 67 58 59 69 52 50 51 48 42 62 72 59 50
57 54 45 39 36 36 36 28 23 22 25 36 39 43 52 67 65 54 57 57 56 54 56 57 57 52 52 42 34 38 43 45 42 71 64 66 60 67 68 50 54 59 47 49 48 54 51
78 76 72 67 60 56 51 43 37 35 35 48 54 49 44 73 62 52 45 49 54 57 57 56 56 51 59 52 52 48 46 50 46 51 63 64 62 63 52 51 51 42 35 41 48 47 46
96 75 79 79 79 71 61 53 54 54 56 59 62 56 52 52 57 51 54 60 56 59 58 59 62 57 57 57 58 58 64 67 63 56 61 64 62 64 69 58 54 27 31 36 43 39 42
95 95 97 84 81 84 80 67 62 64 72 70 69 67 64 64 56 56 53 55 52 51 58 62 60 62 62 60 49 45 38 52 76 75 69 61 55 60 69 64 38 34 44 44 44 28 31
93 91 97 98 99 85 90 98 91 77 75 78 75 74 73 68 59 48 49 51 46 50 48 57 62 64 65 58 55 48 36 29 52 82 78 69 62 57 69 71 42 22 31 41 36 24 22
91 95 92 96 97 98 98 98 97 99 94 85 84 80 79 78 71 63 54 57 54 58 54 58 65 74 67 62 59 51 44 43 39 52 86 86 73 76 64 64 50 37 38 44 40 32 27
88 85 92 99 99 97 95 97 99 97 97 95 88 87 90 88 76 77 73 67 61 59 57 62 62 74 72 68 63 54 54 46 49 44 67 69 75 77 65 72 78 44 48 40 30 33 37
85 86 89 97 97 93 88 87 93 99 96 97 93 91 95 98 85 79 82 81 79 78 72 61 66 60 68 71 67 58 59 63 51 42 63 59 49 56 54 49 43 46 42 40 40 45 46